[[{"header":{"parameterUnit":"m.s-1","parameterCategory":1,"la1":30.6,"la2":29.2853,"lo1":-89.7004,"lo2":-87.6739,"dy":0.0162,"dx":0.0183,"nx":112,"ny":82,"refTime":"2026-04-05T00:00:00:Z","depth":0,"parameterNumber":2,"parameterNumberName":"U-component_of_WINDS"},"data":[0.0,0.0,0.0,0.0,0.0,0.0,0.0,0.0,0.0,0.0,0.0,0.0,0.0,0.0,0.0,0.0,0.0,0.0,0.0,0.0,0.0,0.0,0.0,0.0,0.0,0.0,0.0,0.0,0.0,0.0,0.0,0.0,0.0,0.0,0.0,0.0,0.0,0.0,0.0,0.0,0.0,0.0,0.0,0.0,0.0,0.0,0.0,0.0,0.0,0.0,0.0,0.0,0.0,0.0,0.0,0.0,0.0,0.0,0.0,0.0,0.0,0.0,0.0,0.0,0.0,0.0,0.0,0.0,0.0,0.0,0.0,0.0,0.0,0.0,0.0,0.0,0.0,0.0,0.0,0.0,0.0,0.0,0.0,0.0,0.0,0.0,0.0,0.0,0.0,0.0,0.0,0.8236,0.9819,1.0744,1.0548,1.0245,0.9589,0.8471,0.0,0.0,0.0,0.0,0.0,0.0,0.0,0.0,0.0,0.0,0.0,0.0,0.0,0.0,0.0,0.0,0.0,0.0,0.0,0.0,0.0,0.0,0.0,0.0,0.0,0.0,0.0,0.0,0.0,0.0,0.0,0.0,0.0,0.0,0.0,0.0,0.0,0.0,0.0,0.0,0.0,0.0,0.0,0.0,0.0,0.0,0.0,0.0,0.0,0.0,0.0,0.0,0.0,0.0,0.0,0.0,0.0,0.0,0.0,0.0,0.0,0.0,0.0,0.0,0.0,0.0,0.0,0.0,0.0,0.0,0.0,0.0,0.0,0.0,0.0,0.0,0.0,0.0,0.0,0.0,0.0,0.0,0.0,0.0,0.0,0.0,0.0,0.0,0.0,0.0,0.0,0.0,0.0,0.0,0.0,0.0,0.0,0.0,0.0,0.0,0.0,0.0,0.0,0.0,0.8072,0.9761,1.0751,1.1124,1.0717,1.0527,0.9971,0.8879,0.0,0.0,0.0,0.0,0.0,0.0,0.0,0.0,0.0,0.0,0.0,0.0,0.0,0.0,0.0,0.0,0.0,0.0,0.0,0.0,0.0,0.0,0.0,0.0,0.0,0.0,0.0,0.0,0.0,0.0,0.0,0.0,0.0,0.0,0.0,0.0,0.0,0.0,0.0,0.0,0.0,0.0,0.0,0.0,0.0,0.0,0.0,0.0,0.0,0.0,0.0,0.0,0.0,0.0,0.0,0.0,0.0,0.0,0.0,0.0,0.0,0.0,0.0,0.0,0.0,0.0,0.0,0.0,0.0,0.0,0.0,0.0,0.0,0.0,0.0,0.0,0.0,0.0,0.0,0.0,0.0,0.0,0.0,0.0,0.0,0.0,0.0,0.0,0.0,0.0,0.0,0.0,0.0,0.0,0.0,0.0,0.0,0.0,0.0,0.0,0.0,0.0,0.0,0.7993,0.9245,1.0399,1.1043,1.124,1.084,1.0555,0.9897,0.8764,0.7441,0.0,0.0,0.0,0.0,0.0,0.0,0.0,0.0,0.0,0.0,0.0,0.0,0.0,0.0,0.0,0.0,0.0,0.0,0.0,0.0,0.0,0.0,0.0,0.0,0.0,0.0,0.0,0.0,0.0,0.0,0.0,0.0,0.0,0.0,0.0,0.0,0.0,0.0,0.0,0.0,0.0,0.0,0.0,0.0,0.0,0.0,0.0,0.0,0.0,0.0,0.0,0.0,0.0,0.0,0.0,0.0,0.0,0.0,0.0,0.0,0.0,0.0,0.0,0.0,0.0,0.0,0.0,0.0,0.0,0.0,0.0,0.0,0.0,0.0,0.0,0.0,0.0,0.0,0.0,0.0,0.0,0.0,0.0,0.0,0.0,0.0,0.0,0.0,0.0,0.0,0.0,0.0,0.0,0.0,0.0,0.0,0.0,0.0,0.0,0.0,0.0,0.0,0.9237,1.0163,1.0765,1.1199,1.128,1.084,1.0399,0.9625,0.8452,0.7224,0.0,0.0,0.0,0.0,0.0,0.0,0.0,0.0,0.0,0.0,0.0,0.0,0.0,0.0,0.0,0.0,0.0,0.0,0.0,0.0,0.0,0.0,0.0,0.0,0.0,0.0,0.0,0.0,0.0,0.0,0.0,0.0,0.0,0.0,0.0,0.0,0.0,0.0,0.0,0.0,0.0,0.0,0.0,0.0,0.0,0.0,0.0,0.0,0.0,0.0,0.0,0.0,0.0,0.0,0.0,0.0,0.0,0.0,0.0,0.0,0.0,0.0,0.0,0.0,0.0,0.0,0.0,0.0,0.0,0.0,0.0,0.0,0.0,0.0,0.0,0.0,0.0,0.0,0.0,0.0,0.0,0.0,0.0,0.0,0.0,0.0,0.0,0.0,0.0,0.0,0.0,0.0,0.0,0.0,0.0,0.0,0.0,0.0,0.0,0.0,0.0,0.0,0.9795,1.0622,1.1118,1.1416,1.1314,1.0582,0.9992,0.9176,0.8115,0.6796,0.0,0.0,0.0,0.0,0.0,0.0,0.0,0.0,0.0,0.0,0.0,0.0,0.0,0.0,0.0,0.0,0.0,0.0,0.0,0.0,0.0,0.0,0.0,0.0,0.0,0.0,0.0,0.0,0.0,0.0,0.0,0.0,0.0,0.0,0.0,0.0,0.0,0.0,0.0,0.0,0.0,0.0,0.0,0.0,0.0,0.0,0.0,0.0,0.0,0.0,0.0,0.0,0.0,0.0,0.0,0.0,0.0,0.0,0.0,0.0,0.0,0.0,0.0,0.0,0.0,0.0,0.0,0.0,0.0,0.0,0.0,0.0,0.0,0.0,0.0,0.0,0.0,0.0,0.0,0.0,0.0,0.0,0.0,0.0,0.0,0.0,0.0,0.0,0.0,0.0,0.0,0.0,0.0,0.0,0.0,0.0,0.0,0.0,0.0,0.0,0.0,0.0,0.99,1.0772,0.0,1.1436,1.1355,1.069,1.0086,0.9224,0.8062,0.0,0.0,0.0,0.0,0.0,0.0,0.0,0.0,0.0,0.0,0.0,0.0,0.0,0.0,0.0,0.0,0.0,0.0,0.0,0.0,0.0,0.0,0.0,0.0,0.0,0.0,0.0,0.0,0.0,0.0,0.0,0.0,0.0,0.0,0.0,0.0,0.0,0.0,0.0,0.0,0.0,0.0,0.0,0.0,0.0,0.0,0.0,0.0,0.0,0.0,0.0,0.0,0.0,0.0,0.0,0.0,0.0,0.0,0.0,0.0,0.0,0.0,0.0,0.0,0.0,0.0,0.0,0.0,0.0,0.0,0.0,0.0,0.0,0.0,0.0,0.0,0.0,0.0,0.0,0.0,0.0,0.0,0.0,0.0,0.0,0.0,0.0,0.0,0.0,0.0,0.0,0.0,0.0,0.0,0.0,0.0,0.0,0.0,0.0,0.0,0.0,0.0,0.8852,1.0093,1.0955,0.0,1.1504,1.1367,1.0704,1.0069,0.9217,0.802,0.0,0.0,0.0,0.0,0.0,0.0,0.0,0.0,0.0,0.0,0.0,0.0,0.0,0.0,0.0,0.0,0.0,0.0,0.0,0.0,0.0,0.0,0.0,0.0,0.0,0.0,0.0,0.0,0.0,0.0,0.0,0.0,0.0,0.0,0.0,0.0,0.0,0.0,0.0,0.0,0.0,0.0,0.0,0.0,0.0,0.0,0.0,0.0,0.0,0.0,0.0,0.0,0.0,0.0,0.0,0.0,0.0,0.0,0.0,0.0,0.0,0.0,0.0,0.0,0.0,0.0,0.0,0.0,0.0,0.0,0.0,0.0,0.0,0.0,0.0,0.0,0.0,0.0,0.0,0.0,0.0,0.0,0.0,0.0,0.0,0.0,0.0,0.0,0.0,0.0,0.0,0.0,0.0,0.0,0.0,0.0,0.0,0.0,0.0,0.0,0.0,0.0,0.9057,1.0363,1.1254,1.1375,1.1653,1.1435,1.0575,0.9958,0.9103,0.0,0.0,0.0,0.0,0.0,0.0,0.0,0.0,0.0,0.0,0.0,0.0,0.0,0.0,0.0,0.0,0.0,0.0,0.0,0.0,0.0,0.0,0.0,0.0,0.0,0.0,0.0,0.0,0.0,0.0,0.0,0.0,0.0,0.0,0.0,0.0,0.0,0.0,0.0,0.0,0.0,0.0,0.0,0.0,0.0,0.0,0.0,0.0,0.0,0.0,0.0,0.0,0.0,0.0,0.0,0.0,0.0,0.0,0.0,0.0,0.0,0.0,0.0,0.0,0.0,0.0,0.0,0.0,0.0,0.0,0.0,0.0,0.0,0.0,0.0,0.0,0.0,0.0,0.0,0.0,0.0,0.0,0.0,0.0,0.0,0.0,0.0,0.0,0.0,0.0,0.0,0.0,0.0,0.0,0.0,0.0,0.0,0.0,0.0,0.0,0.0,0.0,0.0,0.9057,1.0363,1.1254,1.1375,1.1653,1.1592,1.105,1.0514,0.9768,0.8649,0.0,0.0,0.0,0.0,0.0,0.0,0.0,0.0,0.0,0.0,0.0,0.0,0.0,0.0,0.0,0.0,0.0,0.0,0.0,0.0,0.0,0.0,0.0,0.0,0.0,0.0,0.0,0.0,0.0,0.0,0.0,0.0,0.0,0.0,0.0,0.0,0.0,0.0,0.0,0.0,0.0,0.0,0.0,0.0,0.0,0.0,0.0,0.0,0.0,0.0,0.0,0.0,0.0,0.0,0.0,0.0,0.0,0.0,0.0,0.0,0.0,0.0,0.0,0.0,0.0,0.0,0.0,0.0,0.0,0.0,0.0,0.0,0.0,0.0,0.0,0.0,0.0,0.0,0.0,0.0,0.0,0.0,0.0,0.0,0.0,0.0,0.0,0.0,0.0,0.0,0.0,0.0,0.0,0.0,0.0,0.0,0.0,0.0,0.0,0.0,0.0,0.0,0.9206,1.0594,1.1463,1.1558,1.1837,1.1837,1.1382,1.0989,1.029,0.9184,0.0,0.0,0.0,0.0,0.0,0.0,0.0,0.0,0.0,0.0,0.0,0.0,0.0,0.0,0.0,0.0,0.0,0.0,0.0,0.0,0.0,0.0,0.0,0.0,0.0,0.0,0.0,0.0,0.0,0.0,0.0,0.0,0.0,0.0,0.0,0.0,0.0,0.0,0.0,0.0,0.0,0.0,0.0,0.0,0.0,0.0,0.0,0.0,0.0,0.0,0.0,0.0,0.0,0.0,0.0,0.0,0.0,0.0,0.0,0.0,0.0,0.0,0.0,0.0,0.0,0.0,0.0,0.0,0.0,0.0,0.0,0.0,0.0,0.0,0.0,0.0,0.0,0.0,0.0,0.0,0.0,0.0,0.0,0.0,0.0,0.0,0.0,0.0,0.0,0.0,0.0,0.0,0.0,0.0,0.0,0.0,0.0,0.0,0.0,0.0,0.0,0.0,0.9352,1.0819,1.1727,1.1777,1.2077,1.2121,1.1694,1.1382,1.0744,0.9587,0.0,0.0,0.0,0.0,0.0,0.0,0.0,0.0,0.0,0.0,0.0,0.0,0.0,0.0,0.0,0.0,0.0,0.0,0.0,0.0,0.0,0.0,0.0,0.0,0.0,0.0,0.0,0.0,0.0,0.0,0.0,0.0,0.0,0.0,0.0,0.0,0.0,0.0,0.0,0.0,0.0,0.0,0.0,0.0,0.0,0.0,0.0,0.0,0.0,0.0,0.0,0.0,0.0,0.0,0.0,0.0,0.0,0.0,0.0,0.0,0.6729,0.0,0.0,0.0,0.0,0.0,0.0,0.0,0.0,0.0,0.0,0.0,0.0,0.0,0.0,0.0,0.0,0.0,0.0,0.0,0.0,0.0,0.0,0.0,0.0,0.0,0.0,0.0,0.0,0.0,0.0,0.0,0.0,0.0,0.0,0.0,0.0,0.0,0.0,0.0,0.0,0.0,0.8808,1.0132,1.1068,1.1442,1.195,1.2203,1.2023,1.1694,1.1158,1.031,0.9015,0.0,0.0,0.0,0.0,0.0,0.0,0.0,0.0,0.0,0.0,0.0,0.0,0.0,0.0,0.0,0.0,0.0,0.0,0.0,0.0,0.0,0.0,0.0,0.0,0.0,0.0,0.0,0.0,0.0,0.0,0.0,0.0,0.0,0.0,0.0,0.0,0.0,0.0,0.0,0.0,0.0,0.0,0.0,0.0,0.0,0.0,0.0,0.0,0.0,0.0,0.0,0.0,0.0,0.0,0.0,0.0,0.0,0.0,0.0,0.0,0.7509,0.0,0.0,0.0,0.0,0.0,0.0,0.0,0.0,0.0,0.0,0.0,0.0,0.0,0.0,0.0,0.0,0.0,0.0,0.0,0.0,0.0,0.0,0.0,0.0,0.0,0.0,0.0,0.0,0.0,0.0,0.0,0.0,0.0,0.0,0.0,0.0,0.0,0.0,0.0,0.0,0.8223,0.948,1.0463,1.1126,1.1917,1.2332,1.222,1.1965,1.1511,1.0725,0.9578,0.0,0.0,0.0,0.0,0.0,0.0,0.0,0.0,0.0,0.0,0.0,0.0,0.0,0.0,0.0,0.0,0.0,0.0,0.0,0.0,0.0,0.0,0.0,0.0,0.0,0.0,0.0,0.0,0.0,0.0,0.0,0.0,0.0,0.0,0.0,0.0,0.0,0.0,0.0,0.0,0.0,0.0,0.0,0.0,0.0,0.0,0.0,0.0,0.0,0.0,0.0,0.0,0.0,1.0045,1.0252,1.0414,1.0502,1.0638,1.0715,0.9621,0.9111,0.9049,0.8893,0.0,0.0,0.0,0.0,0.0,0.0,0.0,0.0,0.0,0.0,0.0,0.0,0.0,0.0,0.0,0.0,0.0,0.0,0.0,0.0,0.0,0.0,0.0,0.0,0.343,0.3461,0.0,0.0,0.0,0.0,0.0,0.0,0.0,0.0,0.0,0.0,0.0,0.0,0.7526,0.866,0.9634,1.05,1.1522,1.2056,1.1918,1.1774,1.1437,1.076,0.9896,0.9149,0.0,0.0,0.0,0.0,0.0,0.0,0.0,0.0,0.0,0.0,0.0,0.0,0.0,0.0,0.0,0.0,0.0,0.0,0.0,0.0,0.0,0.0,0.0,0.0,0.0,0.0,0.0,0.0,0.0,0.0,0.0,0.0,0.3999,0.4118,0.0,0.0,0.0,0.0,0.0,0.0,0.0,0.0,0.0,0.0,0.0,0.0,0.0,0.7832,0.8332,0.8807,0.9159,0.9361,0.9602,0.9779,0.996,1.0016,1.013,1.0284,1.0161,0.0,1.0446,1.029,0.0,0.0,0.0,0.0,0.0,0.0,0.0,0.0,0.0,0.0,0.0,0.0,0.0,0.0,0.0,0.0,0.0,0.0,0.0,0.0,0.0,0.0,0.2539,0.2547,0.2618,0.2657,0.0,0.3155,0.359,0.3356,0.3142,0.0,0.0,0.0,0.0,0.0,0.0,0.0,0.6346,0.7272,0.8106,0.9017,0.9944,1.0442,1.0319,1.019,1.0056,0.9935,0.9657,0.9405,0.9168,0.8554,0.0,0.0,0.0,0.0,0.0,0.0,0.0,0.0,0.0,0.0,0.0,0.0,0.0,0.0,0.0,0.0,0.0,0.0,0.0,0.0,0.0,0.0,0.0,0.0,0.0,0.0,0.0,0.0,0.0,0.3187,0.3111,0.316,0.3274,0.3296,0.0,0.0,0.0,0.0,0.0,0.0,0.0,0.0,0.0,0.5344,0.6114,0.6743,0.7245,0.8029,0.8521,0.8722,0.859,0.8618,0.8844,0.8485,0.8445,0.8624,0.866,0.8686,0.8748,0.965,0.966,0.8974,0.0,0.0,0.0,0.0,0.5373,0.4803,0.4513,0.4346,0.0,0.4093,0.0,0.0,0.0,0.0,0.0,0.0,0.0,0.0,0.0,0.0,0.0,0.2521,0.252,0.2542,0.2515,0.2797,0.2996,0.0,0.2579,0.2514,0.2633,0.0,0.0,0.0,0.0,0.3985,0.5053,0.5716,0.6455,0.7338,0.8212,0.87,0.8658,0.856,0.865,0.9052,0.9275,0.9452,0.9644,0.9461,0.9048,0.0,0.0,0.0,0.0,0.0,0.0,0.0,0.0,0.0,0.0,0.0,0.0,0.0,0.0,0.0,0.0,0.0,0.0,0.0,0.0,0.0,0.0,0.0,0.0,0.0,0.0,0.0,0.0,0.2471,0.2288,0.228,0.2381,0.2403,0.0,0.0,0.0,0.0,0.0,0.0,0.2715,0.3057,0.3445,0.3849,0.4897,0.5586,0.5979,0.6952,0.7464,0.7516,0.7206,0.708,0.7132,0.6669,0.6548,0.6677,0.6694,0.6617,0.6604,0.8293,0.865,0.8037,0.742,0.6542,0.5546,0.5064,0.4459,0.3834,0.3655,0.3543,0.3429,0.3315,0.0,0.2951,0.2731,0.0,0.0,0.0,0.0,0.2355,0.2369,0.2425,0.2483,0.2475,0.2573,0.2657,0.2633,0.2611,0.257,0.0,0.2217,0.2218,0.2324,0.0,0.0,0.0,0.0,0.3206,0.3964,0.4437,0.5016,0.5832,0.6576,0.6977,0.6973,0.6917,0.7189,0.7851,0.8459,0.8977,0.9413,0.9628,0.9386,0.8717,0.0,0.0,0.0,0.0,0.0,0.0,0.0,0.0,0.0,0.0,0.0,0.0,0.0,0.0,0.0,0.0,0.0,0.0,0.0,0.0,0.0,0.0,0.0,0.0,0.0,0.0,0.0,0.0,0.0,0.1717,0.1736,0.0,0.0,0.0,0.0,0.173,0.2154,0.2458,0.2512,0.2888,0.3232,0.3512,0.4247,0.4727,0.4878,0.5636,0.5773,0.5353,0.5354,0.5136,0.4749,0.4743,0.4741,0.4753,0.4796,0.479,0.4828,0.6389,0.6612,0.5888,0.5428,0.4815,0.4066,0.3125,0.2609,0.2296,0.1697,0.1436,0.142,0.1361,0.1196,0.1025,0.0951,0.093,0.0,0.0,0.1041,0.1101,0.1265,0.1716,0.2138,0.2119,0.253,0.2838,0.2709,0.2689,0.2634,0.0,0.2444,0.2413,0.249,0.0,0.2639,0.2777,0.277,0.2894,0.3389,0.3729,0.4101,0.455,0.5046,0.5278,0.524,0.5229,0.5488,0.6169,0.6957,0.7629,0.8173,0.8698,0.8683,0.8161,0.7348,0.0,0.0,0.0,0.0,0.0,0.0,0.0,0.0,0.0,0.0,0.0,0.0,0.0,0.0,0.0,0.0,0.0,0.0,0.0,0.0,0.0,0.0,0.0,0.0,0.0,0.0,0.0,0.0,0.0615,0.0599,0.0,0.06,0.0593,0.0562,0.0588,0.0772,0.0883,0.0869,0.1022,0.1134,0.1251,0.1839,0.2154,0.2232,0.2767,0.2995,0.2861,0.2552,0.2314,0.2138,0.1787,0.1633,0.1629,0.1685,0.1684,0.1675,0.2225,0.3372,0.4749,0.4453,0.3814,0.3026,0.2685,0.2163,0.164,0.1412,0.1365,0.134,0.1307,0.1173,0.1084,0.1024,0.1009,0.1004,0.1068,0.1098,0.113,0.1255,0.1691,0.2175,0.2167,0.2519,0.2855,0.2782,0.2736,0.2684,0.26,0.2551,0.2516,0.2446,0.2418,0.2432,0.2478,0.2495,0.2577,0.2779,0.2955,0.3132,0.3323,0.3438,0.3503,0.3474,0.3507,0.3823,0.4576,0.5357,0.6164,0.6915,0.7497,0.7598,0.7202,0.6576,0.6161,0.0,0.0,0.0,0.0,0.0,0.0,0.0,0.0,0.0,0.0,0.0,0.0,0.0,0.0,0.0,0.0,0.0,0.0,0.0,0.0,0.0,0.0,0.0,0.0,0.0,0.0212,0.0,0.0,0.0,0.0,0.0,0.0,0.0,0.0,0.0,0.0,0.0,0.0,0.0,0.0,0.054,0.0794,0.0804,0.1303,0.1465,0.1338,0.0974,0.072,0.0519,0.0156,0.0,0.0,0.0,0.0,0.0,0.0,0.1099,0.2749,0.2621,0.2211,0.1649,0.1649,0.1335,0.0882,0.09,0.0946,0.0932,0.0864,0.0849,0.0794,0.0742,0.0736,0.0734,0.0785,0.0793,0.0803,0.0863,0.1287,0.1712,0.1707,0.2063,0.24,0.2343,0.2291,0.2244,0.2211,0.2424,0.2574,0.2485,0.2428,0.2356,0.2356,0.2412,0.2454,0.2533,0.2563,0.2617,0.269,0.2675,0.2617,0.2606,0.2602,0.2891,0.3558,0.4208,0.4878,0.5642,0.6183,0.6308,0.5954,0.5554,0.5342,0.5339,0.0,0.0,0.0,0.0,0.0,0.0,0.0,0.0,0.0,0.0,0.0,0.0,0.0,0.0,0.0,0.0,0.0,0.0,0.0,0.0,0.0,0.0,0.0,0.0337,0.0151,0.0,0.0,0.0,0.0,0.0,0.0,0.0,0.0,0.0,0.0,0.0,0.0,0.0,0.0,0.0495,0.0753,0.0768,0.1291,0.1297,0.0779,0.0786,0.0524,0.0,0.0,0.0,0.0,0.0,0.0,0.0,0.0,0.0,0.0,0.0,0.0,0.0,0.0,0.0,0.0,0.0,0.0,0.0,0.0,0.0,0.0,0.0,0.0,0.0,0.0,0.0,0.0,0.0,0.0378,0.0761,0.0706,0.1127,0.1491,0.1401,0.1413,0.1383,0.1395,0.2025,0.2555,0.2568,0.2501,0.2443,0.2443,0.2443,0.0,0.2559,0.255,0.2579,0.265,0.2653,0.2641,0.257,0.2581,0.2752,0.3158,0.3476,0.3876,0.4312,0.4727,0.4777,0.4432,0.4297,0.4285,0.4351,0.0,0.0,0.0,0.0,0.0,0.0,0.0,0.0,0.0,0.0,0.0,0.0,0.0,0.0,0.0,0.0,0.0,0.0,0.0,0.0,0.0,0.0,0.0037,0.0111,0.0041,0.0,0.0,0.0,0.0,0.0,0.0,0.0,0.0,0.0,0.0,0.0,0.0,0.0,0.0,0.0147,0.0198,0.0203,0.036,0.0365,0.021,0.021,0.0158,0.0,0.0,0.0,0.0,0.0,0.0,0.0,0.0,0.0,0.0,0.0,0.0,0.0,0.0,0.0,0.0,0.0,0.0,0.0,0.0,0.0,0.0,0.0,0.0,0.0,0.0,0.0,0.0,0.0,0.0417,0.0793,0.0698,0.1122,0.1491,0.1401,0.1368,0.1342,0.1324,0.1515,0.1665,0.166,0.1636,0.165,0.165,0.165,0.0,0.1664,0.167,0.1675,0.168,0.2026,0.2231,0.2163,0.2415,0.2654,0.2762,0.2814,0.2847,0.2945,0.305,0.301,0.2823,0.3035,0.3233,0.0,0.0,0.0,0.0,0.0,0.0,0.0,0.0,0.0,0.0,0.0,0.0,0.0,0.0,0.0,0.0,0.0,0.0,0.0,0.0,0.0,0.0,0.0,0.0,0.0,0.0,0.0,0.0,0.0,0.0,0.0,0.0,0.0,0.0,0.0,0.0,0.0,0.0,0.0,0.0,0.0,0.0,0.0,0.0,0.0,0.0,0.0,0.0,0.0,0.0,0.0,0.0,0.0,0.0,0.0,0.0,0.0,0.0,0.0,0.0,0.0,0.0,0.0,0.0,0.0,0.0,0.0,0.0,0.0,0.0,0.0,0.0,0.0,0.0,0.0,0.0,0.0,0.0228,0.0463,0.0417,0.0657,0.0849,0.0824,0.0805,0.0747,0.0738,0.0773,0.0,0.0772,0.1037,0.1304,0.1304,0.1304,0.1304,0.1304,0.1304,0.1304,0.1304,0.1783,0.2078,0.2011,0.2399,0.0,0.0,0.0,0.248,0.2462,0.2399,0.0,0.0,0.0,0.0,0.0,0.0,0.0,0.0,0.4886,0.4601,0.0,0.0,0.0,0.0,0.0,0.0,0.0,0.0,0.0,0.0,0.0,0.0,0.0,0.0,0.0,0.0,0.0,0.0,0.0,0.0,0.0,0.0,0.0,0.0,0.0,0.0,0.0,0.0,0.0,0.0,0.0,0.0,0.0,0.0,0.0,0.0,0.0,0.0,0.0,0.0,0.0,0.0,0.0,0.0,0.0,0.0,0.0,0.0,0.0,0.0,0.0,0.0,0.0,0.0,0.0,0.0,0.0,0.0,0.0,0.0,0.0,0.0,0.0,0.0,0.0,0.0,0.0,0.0,0.0,0.0,0.0,0.0,0.0,0.0,0.0,0.0,0.0,0.0,0.0,0.0,0.0,0.0,0.0,0.0659,0.1134,0.1134,0.1134,0.1134,0.1134,0.1134,0.1134,0.1134,0.0,0.0,0.1848,0.2295,0.2509,0.2451,0.2396,0.2367,0.2367,0.228,0.2255,0.2257,0.2449,0.264,0.289,0.3107,0.3474,0.3967,0.41,0.3913,0.0,0.0,0.0,0.0,0.0,0.0,0.0,0.0,0.0,0.0,0.0,0.0,0.0,0.0,0.0,0.0,0.0,0.0,0.0,0.0,0.0,0.0,0.0,0.0,0.0,0.0,0.0,0.0,0.0,0.0,0.0,0.0,0.0,0.0,0.0,0.0,0.0,0.0,0.0,0.0,0.0,0.0,0.0,0.0,0.0,0.0,0.0,0.0,0.0,0.0,0.0,0.0,0.0,0.0,0.0,0.0,0.0,0.0,0.0,0.0,0.0,0.0,0.0,0.0,0.0,0.0,0.0,0.0,0.0,0.0,0.0,0.0,0.0,0.0,0.0,0.0,0.0,0.0,0.0,0.0,0.0,0.0,0.0,0.0135,0.0268,0.0268,0.0268,0.0268,0.0268,0.0268,0.0268,0.0268,0.0669,0.0977,0.0967,0.1348,0.1584,0.1548,0.1473,0.1455,0.1455,0.1449,0.1452,0.1425,0.148,0.1505,0.1584,0.1636,0.1905,0.2446,0.3479,0.3798,0.0,0.0,0.0,0.0,0.0,0.0,0.0,0.0,0.0,0.0,0.0,0.0,0.0,0.0,0.0,0.0,0.0,0.0,0.0,0.0,0.0,0.0,0.0,0.0,0.0,0.0,0.0,0.0,0.0,0.0,0.0,0.0,0.0,0.0,0.0,0.0,0.0,0.0,0.0,0.0,0.0,0.0,0.0,0.0,0.0,0.0,0.0,0.0,0.0,0.0,0.0,0.0,0.0,0.0,0.0,0.0,0.0,0.0,0.0,0.0,0.0,0.0,0.0,0.0,0.0,0.0,0.0,0.0,0.0,0.0,0.0,0.0,0.0,0.0,0.0,0.0,0.0,0.0,0.0,0.0,0.0,0.0,0.0,0.0,0.0,0.0,0.0,0.0,0.0,0.0,0.0,0.0,0.0404,0.0715,0.0707,0.1088,0.1287,0.1316,0.1253,0.1244,0.1251,0.1245,0.1248,0.1262,0.1249,0.1245,0.1252,0.1266,0.1545,0.2102,0.2755,0.3114,0.0,0.0,0.0,0.0,0.0,0.0,0.0,-0.0568,-0.0522,-0.0442,-0.0368,-0.0275,-0.0162,-0.0084,0.0,0.0,0.0,0.0,0.0,0.0,0.0,0.0,0.0,0.0,0.0,0.0,0.0,0.0,0.0,0.0,0.0,0.0,0.0,0.0,0.0,0.0,0.0,0.0,0.0,0.0,0.0,0.0,0.0,0.0,0.0,0.0,0.0,0.0,0.0,0.0,0.0,0.0,0.0,0.0,0.0,0.0,0.0,0.0,0.0,0.0,0.0,0.0,0.0,0.0,0.0,0.0,0.0,0.0,0.0,0.0,0.0,0.0,0.0,0.0,0.0,0.0,0.0,0.0,0.0,0.0,0.0,0.0,0.0,0.0,0.0,0.0,0.0,0.0,0.0,0.0,0.0,0.0,0.0316,0.0585,0.058,0.0878,0.1042,0.1039,0.1033,0.1032,0.1039,0.1033,0.1033,0.1043,0.1034,0.1034,0.1043,0.1052,0.1335,0.1908,0.1925,0.2295,0.0,-0.0574,-0.125,-0.1597,-0.2034,-0.2421,0.0,-0.2547,-0.2471,-0.202,-0.1604,-0.1201,-0.0775,-0.0308,0.0,0.0,0.0,0.0,0.0,0.0,0.0,0.0,0.0,0.0,0.0,0.0,0.0,0.0,0.0,0.0,0.0,0.0,0.0,0.0,0.0,0.0,0.0,0.0,0.0,0.0,0.0,0.0,0.0,0.0,0.0,0.0,0.0,0.0,0.0,0.0,0.0,0.0,0.0,0.0,0.0,0.0,0.0,0.0,0.0,0.0,0.0,0.0,0.0,0.0,0.0,0.0,0.0,0.0,0.0,0.0,0.0,0.0,0.0,0.0,0.0,0.0,0.0,0.0,0.0,0.0,0.0,0.0,0.0,0.0,0.0,0.0,0.0,0.0,0.0,0.0,0.0,0.0,0.0046,0.0092,0.0092,0.0138,0.0137,0.0136,0.0137,0.0137,0.0136,0.0137,0.0138,0.0138,0.0138,0.0138,0.0138,0.0138,0.0418,0.0947,0.0948,0.1692,-0.0517,-0.1422,-0.2383,-0.3039,-0.3857,-0.4584,-0.468,-0.4752,-0.4554,-0.3821,-0.2988,-0.2156,-0.1423,-0.0552,0.0,0.0,0.0,0.0,0.0,0.0,0.0,0.0,0.0,0.0,0.0,0.0,0.0,0.0,0.0,0.0,0.0,0.0,0.0,0.0,0.0,0.0,0.0,0.0,0.0,0.0,0.0,0.0,0.0,0.0,0.0,0.0,0.0,0.0,0.0,0.0,0.0,0.0,0.0,0.0,0.0,0.0,0.0,0.0,0.0,0.0,0.0,0.0,0.0,0.0,0.0,0.0,0.0,0.0,0.0,0.0,0.0,0.0,0.0,0.0,0.0,0.0,0.0,0.0,0.0,0.0,0.0,0.0,0.0,0.0,0.0,0.0,0.0,0.0,0.0,0.0,0.0,0.0,0.0,0.0,0.0,0.0,0.0,0.0,0.0,0.0,0.0,0.0,0.0,0.0,0.0,0.0,0.0,0.0,0.0282,0.0811,0.0815,0.1297,-0.1529,-0.2672,-0.3821,-0.4647,-0.5819,-0.6792,-0.6865,-0.6955,-0.669,-0.574,-0.464,-0.3569,-0.2621,-0.1561,-0.0853,-0.0874,-0.0885,-0.0899,-0.0925,-0.0941,-0.0943,-0.0873,-0.0851,-0.0795,-0.061,-0.0256,0.0,0.0,0.0,0.0,0.0,0.0,0.0,0.0,0.0,0.0,0.0,0.0,0.0,0.0,0.0,0.0,0.0,0.0,0.0,0.0,0.0,0.0,0.0,0.0,0.0,0.0,0.0,0.0,0.0,0.0,0.0,0.0,0.0,0.0,0.0,0.0,0.0,0.0,0.0,0.0,0.0,0.0,0.0,0.0,0.0,0.0,0.0,0.0,0.0,0.0,0.0,0.0,0.0,0.0,0.0,0.0,0.0,0.0,0.0,0.0,0.0,0.0,0.0,0.0,0.0,0.0,0.0,0.0,0.0,0.0,0.0,0.0,0.0,0.0,0.0,0.0,0.0,0.0,0.0,0.0,0.0,0.0,0.0191,0.0579,0.0583,0.0784,-0.3064,-0.4351,-0.5637,-0.651,-0.7824,-0.8923,-0.8915,-0.908,-0.8877,-0.7839,-0.6752,-0.5713,-0.4718,-0.3641,-0.295,-0.3064,-0.3158,-0.3207,-0.3296,-0.3282,-0.3269,-0.3132,-0.307,-0.2768,-0.2186,-0.0838,0.0,0.0,0.0,0.0,0.0,0.0,0.0,0.0,0.0,0.0,0.0,0.0,0.0,0.0,0.0,0.0,0.0,0.0,0.0,0.0,0.0,0.0,0.0,0.0,0.0,0.0,0.0,0.0,0.0,0.0,0.0,0.0,0.0,0.0,0.0,0.0,0.0,0.0,0.0,0.0,0.0,0.0,0.0,0.0,0.0,0.0,0.0,0.0,0.0,0.0,0.0,0.0,0.0,0.0,0.0,0.0,0.0,0.0,0.0,0.0,0.0,0.0,0.0,0.0,0.0,0.0,0.0,0.0,0.0,0.0,0.0,0.0,0.0,0.0,0.0,0.0,0.0,0.0,0.0,0.0,0.0,0.0,0.0,0.0,0.0,0.005,-0.5841,-0.7141,-0.8402,-0.9385,-1.0376,-1.1153,-1.1292,-1.1392,-1.1066,-0.9875,-0.8567,-0.7355,-0.6386,-0.5231,-0.4572,-0.4934,-0.5213,-0.5377,-0.5493,-0.5577,-0.5648,-0.5582,-0.5467,-0.5045,-0.4025,-0.2084,-0.0792,-0.0511,-0.0158,0.0,0.0,0.0,0.0,0.0,0.0,0.0,0.0,0.0,0.0,0.0,0.0,0.0,0.0,0.0,0.0,0.0,0.0,0.0,0.0,0.0,0.0,0.0,0.0,0.0,0.0,0.0,0.0,0.0,0.0,0.0,0.0,0.0,0.0,0.0,0.0,0.0,0.0,0.0,0.0,0.0,0.0,0.0,0.0,0.0,0.0,0.0,0.0,0.0,0.0,0.0,0.0,0.0,0.0,0.0,0.0,0.0,0.0,0.0,0.0,0.0,0.0,0.0,0.0,0.0,0.0,0.0,0.0,0.0,0.0,0.0,0.0,0.0,0.0,0.0,0.0,0.0,0.0,0.0,0.0,0.0,0.0,0.0,-0.8059,-0.9202,-1.0297,-1.1172,-1.1878,-1.2395,-1.2461,-1.252,-1.225,-1.1035,-0.9726,-0.8603,-0.7802,-0.685,-0.6392,-0.6914,-0.7336,-0.7655,-0.7797,-0.794,-0.801,-0.7969,-0.7864,-0.7244,-0.583,-0.3813,-0.2145,-0.1043,-0.036,0.0,0.0,0.0,0.0,0.0,0.0,0.0,0.0,0.0,0.0,0.0,0.0,0.0,0.0,0.0,0.0,0.0,0.0,0.0,0.0,0.0,0.0,0.0,0.0,0.0,0.0,0.0,0.0,0.0,0.0,0.0,0.0,0.0,0.0,0.0,0.0,0.0,0.0,0.0,0.0,0.0,0.0,0.0,0.0,0.0,0.0,0.0,0.0,0.0,0.0,0.0,0.0,0.0,0.0,0.0,0.0,0.0,0.0,0.0,0.0,0.0,0.0,0.0,0.0,0.0,0.0,0.0,0.0,0.0,0.0,0.0,0.0,0.0,0.0,0.0,0.0,0.0,0.0,0.0,0.0,0.0,0.0,0.0,-0.9768,-1.0644,-1.1407,-1.1929,-1.2424,-1.2727,-1.2569,-1.2623,-1.2374,-1.13,-1.0317,-0.9451,-0.895,-0.842,-0.8315,-0.8999,-0.9592,-1.001,-1.0149,-1.0309,-1.0353,-1.0182,-1.0133,-0.9365,-0.7587,-0.5886,-0.3966,-0.1647,-0.0552,0.0,0.0,0.0,0.0,0.0,0.0,0.0,0.0,0.0,0.0,0.0,0.0,0.0,0.0,0.0,0.0,0.0,0.0,0.0,0.0,0.0,0.0,0.0,0.0,0.0,0.0,0.0,0.0,0.0,0.0,0.0,0.0,0.0,0.0,0.0,0.0,0.0,0.0,0.0,0.0,0.0,0.0,0.0,0.0,0.0,0.0,0.0,0.0,0.0,0.0,0.0,0.0,0.0,0.0,0.0,0.0,0.0,0.0,0.0,0.0,0.0,0.0,0.0,0.0,0.0,0.0,0.0,0.0,0.0,0.0,0.0,0.0,0.0,0.0,0.0,0.0,0.0,0.0,0.0,0.0,0.0,0.0,0.0,-1.2727,-1.3274,-1.3694,-1.4178,-1.3768,-1.3291,-1.3262,-1.2912,-1.2282,-1.1282,-1.0371,-0.9696,-0.9559,-0.9399,-0.9622,-1.0698,-1.1475,-1.2054,-1.2364,-1.2577,-1.2731,-1.2675,-1.2568,-1.1629,-0.9474,-0.7373,-0.5189,-0.2864,-0.1017,0.0,0.0,0.0,0.0,0.0,0.0,0.0,0.0,0.0,0.0,0.0,0.0,0.0,0.0,0.0,0.0,0.0,0.0,0.0,0.0,0.0,0.0,0.0,0.0,0.0,0.0,0.0,0.0,0.0,0.0,0.0,0.0,0.0,0.0,0.0,0.0,0.0,0.0,0.0,0.0,0.0,0.0,0.0,0.0,0.0,0.0,0.0,0.0,0.0,0.0,0.0,0.0,0.0,0.0,0.0,0.0,0.0,0.0,0.0,0.0,0.0,0.0,0.0,0.0,0.0,0.0,0.0,0.0,0.0,0.0,0.0,0.0,0.0,0.0,0.0,0.0,0.0,0.0,0.0,0.0,0.0,0.0,0.0,-1.415,-1.454,-1.477,-1.5015,-1.4287,-1.3436,-1.3259,-1.26,-1.1775,-1.0759,-0.9921,-0.9358,-0.9401,-0.9481,-0.9883,-1.1036,-1.2015,-1.2738,-1.3042,-1.3292,-1.3444,-1.3444,-1.3385,-1.2513,-1.0492,-0.8557,-0.6601,-0.4534,-0.1644,0.0,0.0,0.0,0.0,0.0,0.0,0.0,0.0,0.0,0.0,0.0,0.0,0.0,0.0,0.0,0.0,0.0,0.0,0.0,0.0,0.0,0.0,0.0,0.0,0.0,0.0,0.0,0.0,0.0,0.0,0.0,0.0,0.0,0.0,0.0,0.0,0.0,0.0,0.0,0.0,0.0,0.0,0.0,0.0,0.0,0.0,0.0,0.0,0.0,0.0,0.0,0.0,0.0,0.0,0.0,0.0,0.0,0.0,0.0,0.0,0.0,0.0,0.0,0.0,0.0,0.0,0.0,0.0,0.0,0.0,0.0,0.0,0.0,0.0,0.0,0.0,0.0,0.0,0.0,0.0,0.0,0.0,0.0,-1.4687,-1.5031,-1.5247,-1.5227,-1.4434,-1.3593,-1.3022,-1.2158,-1.1159,-0.9982,-0.9174,-0.8671,-0.8773,-0.9006,-0.9568,-1.0672,-1.1713,-1.2553,-1.2803,-1.3031,-1.3121,-1.3138,-1.3143,-1.2539,-1.1021,-0.9605,-0.8091,-0.6478,-0.3021,-0.0836,-0.0481,-0.0496,-0.0505,-0.0505,-0.0393,-0.0337,-0.0224,-0.0168,-0.0056,0.0,0.0,0.0,0.0,0.0,0.0,0.0,0.0,0.0,0.0,0.0,0.0,0.0,0.0,0.0,0.0,0.0,0.0,0.0,0.0,0.0,0.0,0.0,0.0,0.0,0.0,0.0,0.0,0.0,0.0,0.0,0.0,0.0,0.0,0.0,0.0,0.0,0.0,0.0,0.0,0.0,0.0,0.0,0.0,0.0,0.0,0.0,0.0,0.0,0.0,0.0,0.0,0.0,0.0,0.0,0.0,0.0,0.0,0.0,0.0,0.0,0.0,0.0,0.0,0.0,0.0,0.0,0.0,0.0,0.0,0.0,0.0,0.0,-1.5282,-1.566,-1.5916,-1.5788,-1.527,-1.4593,-1.3589,-1.2318,-1.1011,-0.9794,-0.865,-0.7954,-0.8203,-0.8519,-0.9101,-1.0286,-1.1378,-1.2205,-1.2499,-1.271,-1.2835,-1.2939,-1.295,-1.252,-1.147,-1.0608,-0.9576,-0.8312,-0.6827,-0.5068,-0.3102,-0.2997,-0.2973,-0.2973,-0.2467,-0.2019,-0.1514,-0.101,-0.0505,0.0,0.0,0.0,0.0,0.0,0.0,0.0,0.0,0.0,0.0,0.0,0.0,0.0,0.0,0.0,0.0,0.0,0.0,0.0,0.0,0.0,0.0,0.0,0.0,0.0,0.0,0.0,0.0,0.0,0.0,0.0,0.0,0.0,0.0,0.0,0.0,0.0,0.0,0.0,0.0,0.0,0.0,0.0,0.0,0.0,0.0,0.0,0.0,0.0,0.0,0.0,0.0,0.0,0.0,0.0,0.0,0.0,0.0,0.0,0.0,0.0,0.0,0.0,0.0,0.0,0.0,0.0,0.0,0.0,0.0,0.0,0.0,0.0,-1.5492,-1.5913,-1.613,-1.5818,-1.5182,-1.4351,-1.3275,-1.165,-1.0071,-0.9019,-0.792,-0.723,-0.7559,-0.7913,-0.8519,-0.972,-1.0824,-1.1656,-1.1968,-1.2275,-1.2471,-1.2596,-1.2661,-1.2465,-1.1895,-1.1425,-1.0845,-1.0134,-0.9342,-0.791,-0.5608,-0.5451,-0.5489,-0.5489,-0.4597,-0.3643,-0.2745,-0.185,-0.0898,0.0,0.0,0.0,0.0,0.0,0.0,0.0,0.0,0.0,0.0,0.0,0.0,0.0,0.0,0.0,0.0,0.0,0.0,0.0,0.0,0.0,0.0,0.0,0.0,0.0,0.0,0.0,0.0,0.0,0.0,0.0,0.0,0.0,0.0,0.0,0.0,0.0,0.0,0.0,0.0,0.0,0.0,0.0,0.0,0.0,0.0,0.0,0.0,0.0,0.0,0.0,0.0,0.0,0.0,0.0,0.0,0.0,0.0,0.0,0.0,0.0,0.0,0.0,0.0,0.0,0.0,0.0,0.0,0.0,0.0,0.0,0.0,0.0,-1.5642,-1.6015,-1.6225,-1.5627,-1.4872,-1.3932,-1.2697,-1.0853,-0.9177,-0.8272,-0.724,-0.6605,-0.6964,-0.7351,-0.7954,-0.9073,-1.0166,-1.1003,-1.1345,-1.1754,-1.2088,-1.2269,-1.2362,-1.2406,-1.2337,-1.2308,-1.218,-1.1876,-1.155,-1.034,-0.8082,-0.7971,-0.7946,-0.7946,-0.6775,-0.5601,-0.4368,-0.3193,-0.1963,-0.0786,-0.0786,-0.0786,-0.0786,-0.0617,-0.0505,-0.0393,-0.0224,0.0,0.0,0.0,0.0,0.0,0.0,0.0,0.0,0.0,0.0,0.0,0.0,0.0,0.0,0.0,0.0,0.0,0.0,0.0,0.0,0.0,0.0,0.0,0.0,0.0,0.0,0.0,0.0,0.0,0.0,0.0,0.0,0.0,0.0,0.0,0.0,0.0,0.0,0.0,0.0,0.0,0.0,0.0,0.0,0.0,0.0,0.0,0.0,0.0,0.0,0.0,0.0,0.0,0.0,0.0,0.0,0.0,0.0,0.0,0.0,0.0,0.0,0.0,0.0,0.0,-1.584,-1.6157,-1.6293,-1.5438,-1.4843,-1.4008,-1.2276,-1.0435,-0.8876,-0.7941,-0.6888,-0.6208,-0.6433,-0.6888,-0.752,-0.8372,-0.9421,-1.024,-1.0712,-1.1128,-1.1482,-1.183,-1.2069,-1.239,-1.2807,-1.3324,-1.3659,-1.3728,-1.3887,-1.2895,-1.0516,-1.0356,-1.0356,-1.0356,-0.924,-0.8116,-0.6887,-0.5659,-0.4485,-0.3253,-0.3253,-0.3253,-0.3253,-0.2692,-0.2131,-0.1626,-0.1066,0.0,0.0,0.0,0.0,0.0,0.0,0.0,0.0,0.0,0.0,0.0,0.0,0.0,0.0,0.0,0.0,0.0,0.0,0.0,0.0,0.0,0.0,0.0,0.0,0.0,0.0,0.0,0.0,0.0,0.0,0.0,0.0,0.0,0.0,0.0,0.0,0.0,0.0,0.0,0.0,0.0,0.0,0.0,0.0,0.0,0.0,0.0,0.0,0.0,0.0,0.0,0.0,0.0,0.0,0.0,0.0,0.0,0.0,0.0,0.0,0.0,0.0,0.0,0.0,0.0,-1.5364,-1.5845,-1.6042,-1.514,-1.4373,-1.3417,-1.1796,-0.9894,-0.8251,-0.7594,-0.6618,-0.5924,-0.6181,-0.6502,-0.7008,-0.785,-0.8735,-0.9531,-1.0078,-1.0628,-1.1058,-1.1351,-1.1661,-1.2036,-1.2569,-1.3047,-1.3578,-1.3982,-1.4178,-1.387,-1.2934,-1.2873,-1.2873,-1.2873,-1.1699,-1.0516,-0.9345,-0.8172,-0.6943,-0.5771,-0.5771,-0.5771,-0.5715,-0.4759,-0.3811,-0.2857,-0.185,0.0,0.0,0.0,0.0,0.0,0.0,0.0,0.0,0.0,0.0,0.0,0.0,0.0,0.0,0.0,0.0,0.0,0.0,0.0,0.0,0.0,0.0,0.0,0.0,0.0,0.0,0.0,0.0,0.0,0.0,0.0,0.0,0.0,0.0,0.0,0.0,0.0,0.0,0.0,0.0,0.0,0.0,0.0,0.0,0.0,0.0,0.0,0.0,0.0,0.0,0.0,0.0,0.0,0.0,0.0,0.0,0.0,0.0,0.0,0.0,0.0,0.0,0.0,0.0,0.0,-1.4848,-1.552,-1.5845,-1.4855,-1.3933,-1.2868,-1.1349,-0.9426,-0.7844,-0.7378,-0.6532,-0.5929,-0.6118,-0.6279,-0.6601,-0.7323,-0.8047,-0.8767,-0.9396,-1.0029,-1.0549,-1.0905,-1.1259,-1.1667,-1.215,-1.2792,-1.339,-1.3971,-1.4178,-1.432,-1.432,-1.432,-1.432,-1.432,-1.3314,-1.2256,-1.124,-1.0233,-0.9233,-0.8228,-0.8228,-0.8228,-0.8172,-0.6831,-0.5433,-0.4032,-0.2689,0.0,0.0,0.0,0.0,0.0,0.0,0.0,0.0,0.0,0.0,0.0,0.0,0.0,0.0,0.0,0.0,0.0,0.0,0.0,0.0,0.0,0.0,0.0,0.0,0.0,0.0,0.0,0.0,0.0,0.0,0.0,0.0,0.0,0.0,0.0,0.0,0.0,0.0,0.0,0.0,0.0,0.0,0.0,0.0,0.0,0.0,0.0,0.0,0.0,0.0,0.0,0.0,0.0,0.0,0.0,0.0,0.0,0.0,0.0,0.0,0.0,0.0,0.0,0.0,0.0,-1.436,-1.5282,-1.5798,-1.4604,-1.3627,-1.2574,-1.0873,-0.9167,-0.7755,-0.7305,-0.6711,-0.6299,-0.6299,-0.63,-0.6413,-0.6752,-0.7317,-0.7964,-0.8716,-0.9394,-1.0025,-1.0544,-1.0884,-1.1297,-1.1781,-1.2792,-1.3569,-1.3982,-1.4178,0.0,-1.432,-1.432,-1.432,-1.432,-1.3713,-1.3091,-1.2479,-1.1871,-1.1249,-1.0639,-1.0639,-1.0639,-1.0584,-0.8846,-0.711,0.0,0.0,0.0,0.0,0.0,0.0,0.0,0.0,0.0,0.0,0.0,0.0,0.0,0.0,0.0,0.0,0.0,0.0,0.0,0.0,0.0,0.0,0.0,0.0,0.0,0.0,0.0,0.0,0.0,0.0,0.0,0.0,0.0,0.0,0.0,0.0,0.0,0.0,0.0,0.0,0.0,0.0,0.0,0.0,0.0,0.0,0.0,0.0,0.0,0.0,0.0,0.0,0.0,0.0,0.0,0.0,0.0,0.0,0.0,0.0,0.0,0.0,0.0,0.0,0.0,0.0,0.0,-1.3064,-1.3905,-1.4312,-1.3315,-1.2474,-1.1538,-1.0195,-0.8721,-0.7498,-0.7076,-0.6618,-0.6253,-0.6064,-0.6176,-0.6385,-0.6632,-0.7083,-0.7674,-0.8426,-0.9249,-0.9948,-1.0394,-1.1188,-1.1895,-1.2379,-1.3107,-1.3694,-1.4053,-1.4238,-1.432,-1.432,-1.432,-1.4276,-1.4195,-1.3969,-1.3772,-1.3523,-1.3359,-1.3136,-1.2967,-1.2967,-1.2967,-1.2872,-1.0727,-0.8581,0.0,0.0,0.0,0.0,0.0,0.0,0.0,0.0,0.0,0.0,0.0,0.0,0.0,0.0,0.0,0.0,0.0,0.0,0.0,0.0,0.0,0.0,0.0,0.0,0.0,0.0,0.0,0.0,0.0,0.0,0.0,0.0,0.0,0.0,0.0,0.0,0.0,0.0,0.0,0.0,0.0,0.0,0.0,0.0,0.0,0.0,0.0,0.0,0.0,0.0,0.0,0.0,0.0,0.0,0.0,0.0,0.0,0.0,0.0,0.0,0.0,0.0,0.0,0.0,0.0,0.0,0.0,-1.1671,-1.2476,-1.2855,-1.207,-1.1443,-1.069,-0.9575,-0.8375,-0.74,-0.7018,-0.6624,-0.6299,-0.6108,-0.6218,-0.6377,-0.6498,-0.685,-0.7376,-0.8171,-0.9144,-1.0079,-1.0895,-1.1661,-1.2297,-1.2732,-1.3276,-1.3754,-1.4053,-1.4194,-1.4309,-1.4249,-1.4194,-1.4123,-1.401,-1.4042,-1.408,-1.4009,-1.4009,-1.4009,-1.4009,-1.4009,-1.4009,-1.3901,-1.1564,-0.9219,0.0,0.0,0.0,0.0,0.0,0.0,0.0,0.0,0.0,0.0,0.0,0.0,0.0,0.0,0.0,0.0,0.0,0.0,0.0,0.0,0.0,0.0,0.0,0.0,0.0,0.0,0.0,0.0,0.0,0.0,0.0,0.0,0.0,0.0,0.0,0.0,0.0,0.0,0.0,0.0,0.0,0.0,0.0,0.0,0.0,0.0,0.0,0.0,0.0,0.0,0.0,0.0,0.0,0.0,0.0,0.0,0.0,0.0,0.0,0.0,0.0,0.0,0.0,0.0,0.0,0.0,0.0,0.0,-1.107,-1.1543,-1.0955,-1.0527,-0.9985,-0.904,-0.8117,0.0,-0.702,-0.6653,-0.6384,-0.6384,-0.6395,-0.6417,-0.6433,-0.6639,-0.7127,-0.8017,-0.9114,-1.0397,-1.1873,-1.2307,-1.2596,-1.2906,-1.3357,-1.3776,-1.4069,-1.4249,-1.4265,-1.4085,-1.4085,-1.4031,-1.3792,-1.3999,-1.4053,-1.3988,-1.3988,-1.3988,-1.3988,-1.3988,-1.3988,-1.388,-1.1546,-0.9201,0.0,0.0,0.0,0.0,0.0,0.0,0.0,0.0,0.0,0.0,0.0,0.0,0.0,0.0,0.0,0.0,0.0,0.0,0.0,0.0,0.0,0.0,0.0,0.0,0.0,0.0,0.0,0.0,0.0,0.0,0.0,0.0,0.0,0.0,0.0,0.0,0.0,0.0,0.0,0.0,0.0,0.0,0.0,0.0,0.0,0.0,0.0,0.0,0.0,0.0,0.0,0.0,0.0,0.0,0.0,0.0,0.0,0.0,0.0,0.0,0.0,0.0,0.0,0.0,0.0,0.0,0.0,-0.835,0.0,-1.05,-0.9897,-0.9673,-0.9359,0.0,-0.7695,-0.712,-0.6587,-0.6421,-0.6361,-0.6201,-0.6303,-0.6471,-0.6687,-0.6942,-0.746,-0.8492,-1.0047,-1.1488,-1.2547,-1.2808,-1.3093,-1.3401,-1.37,-1.3988,-1.4249,-1.4309,-1.4265,-1.4085,-1.4085,-1.4031,-1.3792,-1.3841,-1.3809,-1.3689,-1.3689,-1.3689,-1.3689,-1.3689,-1.3689,-1.363,-1.1339,-0.9039,0.0,0.0,0.0,0.0,0.0,0.0,0.0,0.0,0.0,0.0,0.0,0.0,0.0,0.0,0.0,0.0,0.0,0.0,0.0,0.0,0.0,0.0,0.0,0.0,0.0,0.0,0.0,0.0,0.0,0.0,0.0,0.0,0.0,0.0,0.0,0.0,0.0,0.0,0.0,0.0,0.0,0.0,0.0,0.0,0.0,0.0,0.0,0.0,0.0,0.0,0.0,0.0,0.0,0.0,0.0,0.0,0.0,0.0,0.0,0.0,0.0,0.0,0.0,0.0,0.0,0.0,0.0,-0.7651,-0.8465,-0.9171,-0.8845,-0.8736,-0.8514,-0.7742,-0.7207,-0.6753,-0.6292,-0.6241,-0.6225,-0.6107,-0.6323,-0.6574,-0.6844,-0.7248,-0.8083,-0.9725,-1.1084,-1.229,-1.3311,-1.3491,-1.3575,-1.3825,-1.3966,-1.4069,-1.4151,-1.4151,-1.4097,-1.3983,-1.3977,-1.389,-1.3711,-1.3705,-1.3673,-1.3602,-1.3602,-1.3602,-1.3602,-1.3602,-1.3602,-1.3496,-1.1214,-0.8982,0.0,0.0,0.0,0.0,0.0,0.0,0.0,0.0,0.0,0.0,0.0,0.0,0.0,0.0,0.0,0.0,0.0,0.0,0.0,0.0,0.0,0.0,0.0,0.0,0.0,0.0,0.0,0.0,0.0,0.0,0.0,0.0,0.0,0.0,0.0,0.0,0.0,0.0,0.0,0.0,0.0,0.0,0.0,0.0,0.0,0.0,0.0,0.0,0.0,0.0,0.0,0.0,0.0,0.0,0.0,0.0,0.0,0.0,0.0,0.0,0.0,0.0,0.0,0.0,0.0,0.0,0.0,-0.755,-0.781,-0.8054,-0.8074,-0.8031,-0.7872,-0.7411,-0.6948,-0.6531,-0.623,-0.6153,-0.6149,-0.6187,-0.6469,-0.6806,-0.7122,-0.7826,-0.9038,-1.1106,-1.2012,-1.2842,-1.3884,-1.4009,-1.4004,-1.4069,-1.4085,-1.408,-1.402,-1.4009,-1.396,-1.3792,-1.3787,-1.3732,-1.3607,-1.3602,-1.3602,-1.3602,-1.3602,-1.3602,-1.3602,-1.3602,-1.3602,-1.3496,-1.1214,-0.8982,-0.6647,0.0,0.0,0.0,0.0,0.0,0.0,0.0,0.0,0.0,0.0,0.0,0.0,0.0,0.0,0.0,0.0,0.0,0.0,0.0,0.0,0.0,0.0,0.0,0.0,0.0,0.0,0.0,0.0,0.0,0.0,0.0,0.0,0.0,0.0,0.0,0.0,0.0,0.0,0.0,0.0,0.0,0.0,0.0,0.0,0.0,0.0,0.0,0.0,0.0,0.0,0.0,0.0,0.0,0.0,0.0,0.0,0.0,0.0,0.0,0.0,0.0,0.0,0.0,0.0,0.0,0.0,-0.7522,-0.7909,-0.8287,-0.8384,-0.8381,-0.8227,-0.7883,-0.7439,-0.6984,-0.6614,-0.6426,-0.6423,-0.6654,-0.6926,-0.7313,-0.7906,-0.9226,-1.0555,-1.1585,-1.2265,-1.2977,-1.3906,-1.4009,-1.4004,-1.4069,-1.4085,-1.408,-1.402,-1.4009,-1.396,-1.3792,-1.3787,-1.3732,-1.3607,-1.3602,-1.3602,-1.3602,-1.3602,-1.3602,-1.3602,-1.3602,-1.3602,-1.3496,-1.1214,-0.8982,-0.6698,0.0,-0.2081,0.0,0.0,0.0,0.0,0.0,0.0,0.0,0.0,0.0,0.0,0.0,0.0,0.0,0.0,0.0,0.0,0.0,0.0,0.0,0.0,0.0,0.0,0.0,0.0,0.0,0.0,0.0,0.0,0.0,0.0,0.0,0.0,0.0,0.0,0.0,0.0,0.0,0.0,0.0,0.0,0.0,0.0,0.0,0.0,0.0,0.0,0.0,0.0,0.0,0.0,0.0,0.0,0.0,0.0,0.0,0.0,0.0,0.0,0.0,0.0,0.0,0.0,0.0,0.0,-0.7536,-0.7868,-0.8241,-0.8628,-0.8785,-0.8765,-0.8539,-0.8126,-0.7707,-0.7374,-0.7044,-0.6899,-0.7143,-0.7491,-0.8144,-0.9347,-1.0405,-1.1379,-1.2178,-1.2645,-1.3167,-1.3928,-1.4009,-1.4031,-1.4037,-1.4042,-1.3966,-1.3781,-1.3765,-1.3743,-1.3689,-1.3689,-1.3662,-1.3607,-1.3602,-1.3602,-1.3602,-1.3602,-1.3602,-1.3602,-1.3602,-1.3602,-1.3496,-1.1214,-0.8982,-0.6698,0.0,-0.213,0.0,0.0,0.0,0.0,0.0,0.0,0.0,0.0,0.0,0.0,0.0,0.0,0.0,0.0,0.0,0.0,0.0,0.0,0.0,0.0,0.0,0.0,0.0,0.0,0.0,0.0,0.0,0.0,0.0,0.0,0.0,0.0,0.0,0.0,0.0,0.0,0.0,0.0,0.0,0.0,0.0,0.0,0.0,0.0,0.0,0.0,0.0,0.0,0.0,0.0,0.0,0.0,0.0,0.0,0.0,0.0,0.0,0.0,0.0,0.0,0.0,0.0,0.0,0.0,-0.7556,-0.7742,-0.8041,-0.8568,-0.8933,-0.9152,-0.9057,-0.8769,-0.8404,-0.8111,-0.7769,-0.7553,-0.7769,-0.8242,-0.9092,-1.0544,-1.1226,-1.187,-1.2634,-1.2933,-1.3333,-1.3906,-1.3971,-1.3971,-1.3971,-1.3971,-1.383,-1.3618,-1.3602,-1.3602,-1.3602,-1.3602,-1.3602,-1.3602,-1.3602,-1.3602,-1.3602,-1.3602,-1.3602,-1.3602,-1.3602,-1.3602,-1.3496,-1.1214,-0.8982,-0.6698,-0.4364,-0.213,0.0,0.0,0.0,0.0,0.0,0.0,0.0,0.0,0.0,0.0,0.0,0.0,0.0,0.0,0.0,0.0,0.0,0.0,0.0,0.0,0.0,0.0,0.0,0.0,0.0,0.0,0.0,0.0,0.0,0.0,0.0,0.0,0.0,0.0,0.0,0.0,0.0,0.0,0.0,0.0,0.0,0.0,0.0,0.0,0.0,0.0,0.0,0.0,0.0,0.0,0.0,0.0,0.0,0.0,0.0,0.0,0.0,0.0,0.0,0.0,0.0,0.0,0.0,0.0,-0.7556,-0.7621,-0.7717,-0.8073,-0.8641,-0.9129,-0.9168,-0.9101,-0.8943,-0.8635,-0.8437,-0.8399,-0.8672,-0.9345,-1.011,-1.0949,-1.1482,-1.2047,-1.277,-1.2988,-1.3305,-1.3743,-1.3798,-1.3798,-1.3798,-1.3798,-1.3743,-1.3613,-1.3602,-1.3602,-1.3602,-1.3602,-1.3602,-1.3602,-1.3602,-1.3602,-1.3602,-1.3602,-1.3602,-1.3602,-1.3602,-1.3602,-1.3496,-1.1214,-0.8982,-0.6698,-0.4364,-0.213,0.0,0.0,0.0,0.0,0.0,0.0,0.0,0.0,0.0,0.0,0.0,0.0,0.0,0.0,0.0,0.0,0.0,0.0,0.0,0.0,0.0,0.0,0.0,0.0,0.0,0.0,0.0,0.0,0.0,0.0,0.0,0.0,0.0,0.0,0.0,0.0,0.0,0.0,0.0,0.0,0.0,0.0,0.0,0.0,0.0,0.0,0.0,0.0,0.0,0.0,0.0,0.0,0.0,0.0,0.0,0.0,0.0,0.0,0.0,0.0,0.0,0.0,0.0,0.0,-0.7719,-0.7662,-0.7705,-0.8187,-0.8622,-0.9057,-0.9424,-0.9632,-0.9745,-0.9835,-0.9687,-0.9631,-0.9981,-1.0493,-1.112,-1.1782,-1.2191,-1.2572,-1.3004,-1.3145,-1.3325,-1.3738,-1.3787,-1.3787,-1.3787,-1.3787,-1.3738,-1.3613,-1.3602,-1.3602,-1.3602,-1.3602,-1.3602,-1.3602,-1.3602,-1.3602,-1.3602,-1.3602,-1.3602,-1.3602,-1.3602,-1.3602,-1.3496,-1.1214,-0.8982,-0.6698,-0.4364,-0.213,0.0,0.0,0.0,0.0,0.0,0.0,0.0,0.0,0.0,0.0,0.0,0.0,0.0,0.0,0.0,0.0,0.0,0.0,0.0,0.0,0.0,0.0,0.0,0.0,0.0,0.0,0.0,0.0,0.0,0.0,0.0,0.0,0.0,0.0,0.0,0.0,0.0,0.0,0.0,0.0,0.0,0.0,0.0,0.0,0.0,0.0,0.0,0.0,0.0,0.0,0.0,0.0,0.0,0.0,0.0,0.0,0.0,0.0,0.0,0.0,0.0,0.0,0.0,0.0,-0.7814,-0.7669,-0.7654,-0.8167,-0.8583,-0.9051,-0.9808,-1.0144,-1.0334,-1.0555,-1.0519,-1.0537,-1.0901,-1.1204,-1.1581,-1.2312,-1.2561,-1.2804,-1.3145,-1.3186,-1.3311,-1.3689,-1.3727,-1.3727,-1.3727,-1.3727,-1.3694,-1.3607,-1.3602,-1.3602,-1.3602,-1.3602,-1.3602,-1.3602,-1.3602,-1.3602,-1.3602,-1.3602,-1.3602,-1.3602,-1.3602,-1.3602,-1.3496,-1.1214,-0.8982,-0.6698,-0.4364,-0.213,0.0,0.0,0.0,0.0,0.0,0.0,0.0,0.0,0.0,0.0,0.0,0.0,0.0,0.0,0.0,0.0,0.0,0.0,0.0,0.0,0.0,0.0,0.0,0.0,0.0,0.0,0.0,0.0,0.0,0.0,0.0,0.0,0.0,0.0,0.0,0.0,0.0,0.0,0.0,0.0,0.0,0.0,0.0,0.0,0.0,0.0,0.0,0.0,0.0,0.0,0.0,0.0,0.0,0.0,0.0,0.0,0.0,0.0,0.0,0.0,0.0,0.0,0.0,0.0,-0.7814,-0.7603,-0.7512,-0.7995,-0.8473,-0.9131,-1.0333,-1.0646,-1.0713,-1.0647,-1.0806,-1.1021,-1.1354,-1.1378,-1.1572,-1.2358,-1.2453,-1.2612,-1.3105,-1.3186,-1.3278,-1.3575,-1.3602,-1.3602,-1.3602,-1.3602,-1.3602,-1.3602,-1.3602,-1.3602,-1.3602,-1.3602,-1.3602,-1.3602,-1.3602,-1.3602,-1.3602,-1.3602,-1.3602,-1.3602,-1.3602,-1.3602,-1.3496,-1.1214,-0.8982,-0.6698,-0.4364,-0.213,0.0,0.0,0.0,0.0,0.0,0.0,0.0,0.0,0.0,0.0,0.0,0.0,0.0,0.0,0.0,0.0,0.0,0.0,0.0,0.0,0.0,0.0,0.0,0.0,0.0,0.0,0.0,0.0,0.0,0.0,0.0,0.0,0.0,0.0,0.0,0.0,0.0,0.0,0.0,0.0,0.0,0.0,0.0,0.0,0.0,0.0,0.0,0.0,0.0,0.0,0.0,0.0,0.0,0.0,0.0,0.0,0.0,0.0,0.0,0.0,0.0,0.0,0.0,0.0,-0.8079,-0.803,-0.8052,-0.8781,-0.9311,-0.9924,-1.1064,-1.1543,-1.2017,-1.2893,-1.3018,-1.2875,-1.2687,-1.2702,-1.2699,-1.2673,-1.2816,-1.3028,-1.3333,-1.3316,-1.3428,-1.3586,-1.3602,-1.3602,-1.3602,-1.3602,-1.3602,-1.3602,-1.3602,-1.3602,-1.3602,-1.3602,-1.3602,-1.3602,-1.3602,-1.3602,-1.3602,-1.3602,-1.3602,-1.3602,-1.3602,-1.3602,-1.3496,-1.1214,-0.8982,-0.6698,-0.4364,-0.213,0.0,0.0,0.0,0.0,0.0,0.0,0.0,0.0,0.0,0.0,0.0,0.0,0.0,0.0,0.0,0.0,0.0,0.0,0.0,0.0,0.0,0.0,0.0,0.0,0.0,0.0,0.0,0.0,0.0,0.0,0.0,0.0,0.0,0.0,0.0,0.0,0.0,0.0,0.0,0.0,0.0,0.0,0.0,0.0,0.0,0.0,0.0,0.0,0.0,0.0,0.0,0.0,0.0,0.0,0.0,0.0,0.0,0.0,0.0,0.0,0.0,0.0,0.0,0.0,-0.8267,-0.8467,-0.8772,-0.9709,-1.0442,-1.1276,-1.2701,-1.2884,-1.2995,-1.3925,-1.377,-1.3511,-1.3381,-1.3109,-1.2917,-1.2832,-1.2921,-1.3067,-1.3276,-1.3295,-1.3412,-1.3586,-1.3602,-1.3602,-1.3602,-1.3602,-1.3602,-1.3602,-1.3602,-1.3602,-1.3602,-1.3602,-1.3602,-1.3602,-1.3602,-1.3602,-1.3602,-1.3602,-1.3602,-1.3602,-1.3391,-1.318,-1.2863,-1.1055,-0.8982,-0.6645,-0.3407,-0.1278,0.0,0.0,0.0,0.0,0.0,0.0,0.0,0.0,0.0,0.0,0.0,0.0,0.0,0.0,0.0,0.0,0.0,0.0,0.0,0.0,0.0,0.0,0.0,0.0,0.0,0.0,0.0,0.0,0.0,0.0,0.0,0.0,0.0,0.0,0.0,0.0,0.0,0.0,0.0,0.0,0.0,0.0,0.0,0.0,0.0,0.0,0.0,0.0,0.0,0.0,0.0,0.0,0.0,0.0,0.0,0.0,0.0,0.0,0.0,0.0,0.0,0.0,0.0,0.0,-0.8362,-0.8879,-0.9533,-1.0677,-1.1755,-1.2969,-1.4787,-1.4418,-1.3751,-1.4139,-1.3734,-1.3375,-1.359,-1.2999,-1.2647,-1.2947,-1.2841,-1.2857,-1.3154,-1.3203,-1.3289,-1.3575,-1.3602,-1.3602,-1.3602,-1.3602,-1.3602,-1.3602,-1.3602,-1.3602,-1.3602,-1.3602,-1.3602,-1.3602,-1.3602,-1.3602,-1.3602,-1.3602,-1.3602,-1.3602,-1.3021,-1.2387,-1.1694,-1.0579,-0.8717,-0.6167,-0.1863,0.0,0.0,0.0,0.0,0.0,0.0,0.0,0.0,0.0,0.0,0.0,0.0,0.0,0.0,0.0,0.0,0.0,0.0,0.0,0.0,0.0,0.0,0.0,0.0,0.0,0.0,0.0,0.0,0.0,0.0,0.0,0.0,0.0,0.0,0.0,0.0,0.0,0.0,0.0,0.0,0.0,0.0,0.0,0.0,0.0,0.0,0.0,0.0,0.0,0.0,0.0,0.0,0.0,0.0,0.0,0.0,0.0,0.0,0.0,0.0,0.0,0.0,0.0,0.0,0.0,-0.8438,-0.9157,-0.9964,-1.1137,-1.2766,-1.4265,-1.516,-1.5039,-1.4805,-1.4996,-1.4917,-1.4589,-1.3824,-1.3551,-1.3355,-1.3101,-1.3061,-1.3086,-1.3346,-1.3385,-1.3439,-1.3586,-1.3602,-1.3602,-1.3602,-1.3602,-1.3602,-1.3602,-1.3602,-1.3602,-1.3602,-1.3602,-1.3602,-1.3602,-1.3602,-1.3602,-1.3602,-1.3602,-1.3602,0.0,-1.2598,-1.1589,-1.0517,-0.9409,-0.6916,-0.3356,-0.1012,0.0,0.0,0.0,0.0,0.0,0.0,0.0,0.0,0.0,0.0,0.0,0.0,0.0,0.0,0.0,0.0,0.0,0.0,0.0,0.0,0.0,0.0,0.0,0.0,0.0,0.0,0.0,0.0,0.0,0.0,0.0,0.0,0.0,0.0,0.0,0.0,0.0,0.0,0.0,0.0,0.0,0.0,0.0,0.0,0.0,0.0,0.0,0.0,0.0,0.0,0.0,0.0,0.0,0.0,0.0,0.0,0.0,0.0,0.0,0.0,0.0,0.0,0.0,0.0,0.0,-0.8375,-0.9428,-1.0644,-1.2461,-1.3933,-1.4952,-1.5097,-1.5165,-1.5047,-1.462,-1.4532,-1.4339,-1.379,-1.349,-1.3262,-1.3022,-1.2982,-1.3047,-1.3227,-1.3254,-1.3298,-1.3417,-1.3428,-1.345,-1.351,-1.3515,-1.3542,-1.3602,-1.3602,-1.3602,-1.3602,-1.3602,-1.3602,-1.3602,-1.3548,-1.3515,-1.3515,-1.3199,-1.2933,-1.2675,-1.1252,-0.9477,-0.7337,-0.6435,-0.463,-0.2079,-0.0639,0.0,0.0,0.0,0.0,0.0,0.0,0.0,0.0,0.0,0.0,0.0,0.0,0.0,0.0,0.0,0.0,0.0,0.0,0.0,0.0,0.0,0.0,0.0,0.0,0.0,0.0,0.0,0.0,0.0,0.0,0.0,0.0,0.0,0.0,0.0,0.0,0.0,0.0,0.0,0.0,0.0,0.0,0.0,0.0,0.0,0.0,0.0,0.0,0.0,0.0,0.0,0.0,0.0,0.0,0.0,0.0,0.0,0.0,0.0,0.0,0.0,0.0,0.0,0.0,0.0,-0.8249,-0.9773,-1.1556,-1.379,-1.4862,-1.5275,-1.487,-1.4962,-1.4856,-1.3884,-1.369,-1.369,-1.359,-1.319,-1.2879,-1.2857,-1.2873,-1.2922,-1.3076,-1.3109,-1.3113,-1.3176,-1.3186,-1.3235,-1.3412,-1.3423,-1.3471,-1.3597,-1.3602,-1.3602,-1.3602,-1.3602,-1.3602,-1.3602,-1.3482,-1.3423,-1.3423,-1.2626,-1.1954,-1.1384,-0.9248,-0.6655,-0.3835,-0.3141,-0.2342,-0.1492,-0.048,0.0,0.0,0.0,0.0,0.0,0.0,0.0,0.0,0.0,0.0,0.0,0.0,0.0,0.0,0.0,0.0,0.0,0.0,0.0,0.0,0.0,0.0,0.0,0.0,0.0,0.0,0.0,0.0,0.0,0.0,0.0,0.0,0.0,0.0,0.0,0.0,0.0,0.0,0.0,0.0,0.0,0.0,0.0,0.0,0.0,0.0,0.0,0.0,0.0,0.0,0.0,0.0,0.0,0.0,0.0,0.0,0.0,0.0,0.0,0.0,0.0,0.0,0.0,0.0,0.0,-0.8092,-1.0391,-1.2747,-1.4143,-1.4848,-1.5147,-1.4893,-1.4592,-1.4299,-1.3816,-1.369,-1.354,-1.309,-1.294,-1.2852,-1.2748,-1.2819,-1.2895,-1.2912,-1.3054,-1.3113,-1.3176,-1.3186,-1.3235,-1.3412,-1.3423,-1.3471,-1.3597,-1.3602,-1.3602,-1.3602,-1.3602,-1.3602,-1.3602,-1.3482,-1.3423,-1.3423,-1.2265,-1.1226,-1.0174,-0.6132,-0.3403,-0.2025,-0.0959,-0.0639,-0.0959,-0.032,0.0,0.0,0.0,0.0,0.0,0.0,0.0,0.0,0.0,0.0,0.0,0.0,0.0,0.0,0.0,0.0,0.0,0.0,0.0,0.0,0.0,0.0,0.0,0.0,0.0,0.0,0.0,0.0,0.0,0.0,0.0,0.0,0.0,0.0,0.0,0.0,0.0,0.0,0.0,0.0,0.0,0.0,0.0,0.0,0.0,0.0,0.0,0.0,0.0,0.0,0.0,0.0,0.0,0.0,0.0,0.0,0.0,0.0,0.0,0.0,0.0,0.0,0.0,0.0,0.0,-0.9078,-1.1116,-1.2929,-1.4255,-1.4916,-1.51,-1.4789,-1.4718,-1.4551,-1.3766,-1.3638,-1.354,-1.299,-1.289,-1.2868,-1.2814,-1.2852,-1.289,-1.289,-1.2933,-1.2988,-1.3037,-1.3042,-1.3091,-1.3211,-1.3227,-1.3276,-1.339,-1.3401,-1.3401,-1.3401,-1.3401,-1.3401,-1.3401,-1.3287,-1.3227,-1.3227,-1.1728,-0.9679,-0.7086,-0.3968,-0.2047,-0.1208,-0.0368,-0.0158,-0.0373,-0.0107,0.0,0.0,0.0,0.0,0.0,0.0,0.0,0.0,0.0,0.0,0.0,0.0,0.0,0.0,0.0,0.0,0.0,0.0,0.0,0.0,0.0,0.0,0.0,0.0,0.0,0.0,0.0,0.0,0.0,0.0,0.0,0.0,0.0,0.0,0.0,0.0,0.0,0.0,0.0,0.0,0.0,0.0,0.0,0.0,0.0,0.0,0.0,0.0,0.0,0.0,0.0,0.0,0.0,0.0,0.0,0.0,0.0,0.0,0.0,0.0,0.0,0.0,0.0,0.0,0.0,-0.964,-1.1253,-1.2494,-1.3842,-1.4509,-1.4717,-1.4418,-1.4654,-1.4602,-1.3675,-1.3621,-1.3641,-1.3095,-1.3046,-1.3129,-1.3245,-1.3267,-1.3223,-1.3096,-1.3068,-1.304,-1.294,-1.289,-1.2933,-1.3109,-1.312,-1.3118,-1.3181,-1.3186,-1.3186,-1.3186,-1.3186,-1.3186,-1.3186,-1.3129,-1.312,-1.312,-1.0702,-0.7765,-0.4451,-0.2273,-0.1038,-0.0675,-0.0208,0.0,0.0,0.0,0.0,0.0,0.0,0.0,0.0,0.0,0.0,0.0,0.0,0.0,0.0,0.0,0.0,0.0,0.0,0.0,0.0,0.0,0.0,0.0,0.0,0.0,0.0,0.0,0.0,0.0,0.0,0.0,0.0,0.0,0.0,0.0,0.0,0.0,0.0,0.0,0.0,0.0,0.0,0.0,0.0,0.0,0.0,0.0,0.0,0.0,0.0,0.0,0.0,0.0,0.0,0.0,0.0,0.0,0.0,0.0,0.0,0.0,0.0,0.0,0.0,0.0,0.0,0.0,0.0,-0.9059,-1.0356,-1.1526,-1.2569,-1.3233,-1.3686,-1.372,-1.4022,-1.4055,-1.3433,-1.3654,-1.3855,-1.3369,-1.3473,-1.3799,-1.4169,-1.4347,-1.4185,-1.3572,-1.3559,-1.349,-1.294,-1.289,-1.2933,-1.3109,-1.312,-1.3118,-1.3181,-1.3186,-1.3186,-1.3186,-1.3186,-1.3186,-1.3186,-1.3129,-1.312,-1.312,-0.8771,-0.5512,-0.3276,-0.1137,-0.0052,-0.0052,0.0,0.0,0.0,0.0,0.0,0.0,0.0,0.0,0.0,0.0,0.0,0.0,0.0,0.0,0.0,0.0,0.0,0.0,0.0,0.0,0.0,0.0,0.0,0.0,0.0,0.0,0.0,0.0,0.0,0.0,0.0,0.0,0.0,0.0,0.0,0.0,0.0,0.0,0.0,0.0,0.0,0.0,0.0,0.0,0.0,0.0,0.0,0.0,0.0,0.0,0.0,0.0,0.0,0.0,0.0,0.0,0.0,0.0,0.0,0.0,0.0,0.0,0.0,0.0,0.0,0.0,0.0,0.0,0.0,-0.8327,-0.9362,-1.0301,-1.1286,-1.2108,-1.2767,-1.329,-1.392,-1.4297,-1.4074,-1.4299,-1.4467,-1.4273,-1.4183,-1.4144,-1.4293,-1.4397,-1.4315,-1.3726,-1.3661,-1.349,-1.294,-1.289,-1.2906,-1.295,-1.2955,-1.2971,-1.3009,-1.3015,-1.3015,-1.3015,-1.3015,-1.3015,-1.3015,-1.2977,-1.2502,-1.144,-0.8806,-0.6379,-0.4209,-0.2036,-0.0867,-0.051,-0.0153,0.0,0.0,0.0,0.0,0.0,0.0,0.0,0.0,0.0,0.0,0.0,0.0,0.0,0.0,0.0,0.0,0.0,0.0,0.0,0.0,0.0,0.0,0.0,0.0,0.0,0.0,0.0,0.0,0.0,0.0,0.0,0.0,0.0,0.0,0.0,0.0,0.0,0.0,0.0,0.0,0.0,0.0,0.0,0.0,0.0,0.0,0.0,0.0,0.0,0.0,0.0,0.0,0.0,0.0,0.0,0.0,0.0,0.0,0.0,0.0,0.0,0.0,0.0,0.0,0.0,0.0,0.0,0.0,-0.7715,-0.8464,-0.9157,-1.0107,-1.0907,-1.171,-1.2467,-1.3349,-1.4032,-1.4081,-1.4471,-1.4746,-1.4693,-1.469,-1.4714,-1.4809,-1.4898,-1.4775,-1.4327,-1.4239,-1.3989,-1.324,-1.319,-1.309,-1.294,-1.289,-1.289,-1.289,-1.289,0.0,-1.289,-1.289,-1.289,-1.289,-1.289,-1.2189,-1.0781,-0.9368,-0.7556,-0.5347,-0.3178,-0.1766,-0.106,-0.0303,0.0,0.0,0.0,0.0,0.0,0.0,0.0,0.0,0.0,0.0,0.0,0.0,0.0,0.0,0.0,0.0,0.0,0.0,0.0,0.0,0.0,0.0,0.0,0.0,0.0,0.0,0.0,0.0,0.0,0.0,0.0,0.0,0.0,0.0,0.0,0.0,0.0,0.0,0.0,0.0,0.0,0.0,0.0,0.0,0.0,0.0,0.0,0.0,0.0,0.0,0.0,0.0,0.0,0.0,0.0,0.0,0.0,0.0,0.0,0.0,0.0,0.0,0.0,0.0,0.0,0.0,0.0,0.0,0.0,0.0,0.0,-0.8941,-0.9696,-1.046,-1.1348,-1.2264,-1.3051,-1.3415,-1.4143,-1.4638,-1.4458,-1.4965,-1.5499,-1.584,-1.5894,-1.5752,-1.5347,-1.5267,-1.4869,-1.3828,-1.3678,-1.3478,-1.2934,-1.2884,-1.2884,-1.289,-1.289,-1.289,-1.289,-1.289,-1.289,-1.289,-1.289,-1.2384,-1.1333,-1.0266,-0.8657,-0.6506,-0.4285,-0.2672,-0.1564,-0.0505,0.0,0.0,0.0,0.0,0.0,0.0,0.0,0.0,0.0,0.0,0.0,0.0,0.0,0.0,0.0,0.0,0.0,0.0,0.0,0.0,0.0,0.0,0.0,0.0,0.0,0.0,0.0,0.0,0.0,0.0,0.0,0.0,0.0,0.0,0.0,0.0,0.0,0.0,0.0,0.0,0.0,0.0,0.0,0.0,0.0,0.0,0.0,0.0,0.0,0.0,0.0,0.0,0.0,0.0,0.0,0.0,0.0,0.0,0.0,0.0,0.0,0.0,0.0,0.0,0.0,0.0,0.0,0.0,-0.6667,0.0,0.0,0.0,0.0,0.0,-0.9842,-1.1029,-1.2206,-1.2983,-1.3826,-1.4498,-1.4765,-1.5053,-1.5309,-1.5499,-1.5628,-1.5515,-1.5019,-1.4629,-1.4189,-1.3505,-1.307,-1.2814,-1.2748,-1.2754,-1.2792,0.0,-1.289,-1.289,-1.289,-1.289,-1.289,-1.289,-1.289,-1.2584,-1.1884,-1.1182,-0.9773,-0.7613,-0.5393,-0.358,-0.212,-0.0656,0.0,0.0,0.0,0.0,0.0,0.0,0.0,0.0,0.0,0.0,0.0,0.0,0.0,0.0,0.0,0.0,0.0,0.0,0.0,0.0,0.0,0.0,0.0,0.0,0.0,0.0,0.0,0.0,0.0,0.0,0.0,0.0,0.0,0.0,0.0,0.0,0.0,0.0,0.0,0.0,0.0,0.0,0.0,0.0,0.0,0.0,0.0,0.0,0.0,0.0,0.0,0.0,0.0,0.0,0.0,0.0,0.0,0.0,0.0,0.0,0.0,0.0,0.0,0.0,0.0,0.0,0.0,0.0,-0.6694,-0.6926,-0.7149,-0.7276,0.0,0.0,-0.8981,-1.0035,-1.1205,-1.2203,-1.301,-1.3709,-1.4224,-1.438,-1.4468,-1.4557,-1.4753,-1.4832,-1.4838,-1.4618,-1.4128,-1.34,-1.3011,-1.2818,-1.2694,-1.2705,-1.2754,-1.2879,-1.289,-1.289,-1.289,-1.289,-1.289,-1.289,-1.289,-1.274,-1.2439,-1.2185,-1.0973,-0.8719,-0.6572,-0.4552,-0.2675,-0.0858,0.0,0.0,0.0,0.0,0.0,0.0,0.0,0.0,0.0,0.0,0.0,0.0,0.0,0.0,0.0,0.0,0.0,0.0,0.0,0.0,0.0,0.0,0.0,0.0,0.0,0.0,0.0,0.0,0.0,0.0,0.0,0.0,0.0,0.0,0.0,0.0,0.0,0.0,0.0,0.0,0.0,0.0,0.0,0.0,0.0,0.0,0.0,0.0,0.0,0.0,0.0,0.0,0.0,0.0,0.0,0.0,0.0,0.0,0.0,0.0,0.0,0.0,0.0,0.0,0.0,0.0,0.0,0.0,-0.7134,-0.7305,0.0,-0.759,-0.7783,0.0,-0.8492,-0.9237,-1.015,-1.113,-1.187,-1.2481,-1.3071,-1.3193,-1.32,-1.32,-1.3478,-1.3891,-1.4653,-1.4745,-1.4343,-1.3353,-1.3214,-1.3017,-1.2705,-1.2667,-1.2716,-1.2841,-1.2863,-1.2868,-1.2868,-1.2879,-1.289,-1.289,-1.289,-1.289,-1.289,-1.3009,-1.1943,-0.9669,-0.7569,-0.5388,-0.3129,-0.0959,0.0,0.0,0.0,0.0,0.0,0.0,0.0,0.0,0.0,0.0,0.0,0.0,0.0,0.0,0.0,0.0,0.0,0.0,0.0,0.0,0.0,0.0,0.0,0.0,0.0,0.0,0.0,0.0,0.0,0.0,0.0,0.0,0.0,0.0,0.0,0.0,0.0,0.0,0.0,0.0,0.0,0.0,0.0,0.0,0.0,0.0,0.0,0.0,0.0,0.0,0.0,0.0,0.0,0.0,0.0,0.0,0.0,0.0,0.0,0.0,0.0,0.0,0.0,0.0,0.0,0.0,0.0,0.0,-0.7502,-0.7617,-0.7733,-0.776,0.0,0.0,-0.7794,-0.8418,-0.913,-0.97,-1.0487,-1.1212,-1.1694,-1.1884,-1.1965,-1.1965,-1.2413,-1.2976,-1.3674,-1.3617,-1.3371,-1.3021,-1.2623,-1.2429,-1.246,-1.247,-1.2471,-1.2547,-1.2689,-1.2738,-1.2738,-1.2835,-1.289,-1.289,-1.289,-1.289,-1.289,-1.3009,-1.1943,-0.9669,-0.7569,-0.5388,-0.3129,-0.0959,0.0,0.0,0.0,0.0,0.0,0.0,0.0,0.0,0.0,0.0,0.0,0.0,0.0,0.0,0.0,0.0,0.0,0.0,0.0,0.0,0.0,0.0,0.0,0.0,0.0,0.0,0.0,0.0,0.0,0.0,0.0,0.0,0.0,0.0,0.0,0.0,0.0,0.0,0.0,0.0,0.0,0.0,0.0,0.0,0.0,0.0,0.0,0.0,0.0,0.0,0.0,0.0,0.0,0.0,0.0,0.0,0.0,0.0,0.0,0.0,0.0,0.0,0.0,0.0,0.0,0.0,0.0,0.0,-0.8038,-0.8147,-0.8221,-0.8079,0.0,0.0,0.0,-0.8004,-0.848,-0.8954,-0.9585,-1.0168,-1.0541,-1.067,-1.0691,-1.0691,-1.1226,-1.1666,-1.188,-1.2527,-1.2881,-1.2509,-1.222,-1.2129,-1.2301,-1.2312,-1.2341,-1.2472,-1.264,-1.2705,-1.2705,-1.2819,-1.289,-1.289,-1.289,-1.289,-1.289,-1.3064,-1.1993,-0.9673,-0.7658,-0.5464,-0.313,-0.0964,0.0,0.0,0.0,0.0,0.0,0.0,0.0,0.0,0.0,0.0,0.0,0.0,0.0,0.0,0.0,0.0,0.0,0.0,0.0,0.0,0.0,0.0,0.0,0.0,0.0,0.0,0.0,0.0,0.0,0.0,0.0,0.0,0.0,0.0,0.0,0.0,0.0,0.0,0.0,0.0,0.0,0.0,0.0,0.0,0.0,0.0,0.0,0.0,0.0,0.0,0.0,0.0,0.0,0.0,0.0,0.0,0.0,0.0,0.0,0.0,0.0,0.0,0.0,0.0,0.0,0.0,0.0,0.0,0.0,0.0,0.0,0.0,0.0,-0.7797,0.0,0.0,0.0,-0.8459,-0.8852,-0.9198,-0.9406,-0.9447,-0.9447,-0.9447,-1.0005,-1.0333,-1.0154,-1.1388,-1.22,-1.1819,-1.1786,-1.1862,-1.2034,-1.2067,-1.2123,-1.2298,-1.2466,-1.2553,-1.2602,-1.2759,-1.2852,-1.2852,-1.2873,-1.289,-1.289,-1.3118,-1.2043,-0.9824,-0.8,-0.5847,-0.3433,-0.1275,-0.0256,-0.0154,-0.0052,0.0,0.0,0.0,0.0,0.0,0.0,0.0,0.0,0.0,0.0,0.0,0.0,0.0,0.0,0.0,0.0,0.0,0.0,0.0,0.0,0.0,0.0,0.0,0.0,0.0,0.0,0.0,0.0,0.0,0.0,0.0,0.0,0.0,0.0,0.0,0.0,0.0,0.0,0.0,0.0,0.0,0.0,0.0,0.0,0.0,0.0,0.0,0.0,0.0,0.0,0.0,0.0,0.0,0.0,0.0,0.0,0.0,0.0,0.0,0.0,0.0,0.0,0.0,0.0,0.0,0.0,0.0,0.0,0.0,-0.8405,0.0,0.0,0.0,-0.7824,-0.7902,0.0,-0.8175,-0.8209,0.0,0.0,-0.8216,-0.8852,-0.939,-0.9419,-1.0153,-1.0722,-1.0831,-1.1069,-1.1248,-1.1406,-1.1515,-1.159,-1.1681,-1.1851,-1.2009,-1.2221,-1.2547,-1.2727,-1.2727,-1.283,-1.289,-1.289,-1.3118,-1.2252,-1.0384,-0.8924,-0.6974,-0.4541,-0.2394,-0.1182,-0.0674,-0.021,0.0,0.0,0.0,0.0,0.0,0.0,0.0,0.0,0.0,0.0,0.0,0.0,0.0,0.0,0.0,0.0,0.0,0.0,0.0,0.0,0.0,0.0,0.0,0.0,0.0,0.0,0.0,0.0,0.0,0.0,0.0,0.0,0.0,0.0,0.0,0.0,0.0,0.0,0.0,0.0,0.0,0.0,0.0,0.0,0.0,0.0,0.0,0.0,0.0,0.0,0.0,0.0,0.0,0.0,0.0,0.0,0.0,0.0,0.0,0.0,0.0,0.0,0.0,0.0,0.0,0.0,0.0,0.0,0.0,0.0,0.0,0.0,0.0,-0.781,0.0,0.0,0.0,0.0,0.0,0.0,0.0,-0.8532,-0.8803,-0.8768,-0.9183,-0.9691,-1.0294,-1.0759,0.0,-1.1266,-1.1479,-1.1576,-1.1632,-1.181,-1.2028,-1.2279,-1.2583,-1.2705,-1.2705,-1.2825,-1.289,-1.289,-1.3118,-1.2487,-1.107,-0.9974,-0.8183,-0.584,-0.362,-0.2187,-0.1256,-0.037,0.0,0.0,0.0,0.0,0.0,0.0,0.0,0.0,0.0,0.0,0.0,0.0,0.0,0.0,0.0,0.0,0.0,0.0,0.0,0.0,0.0,0.0,0.0,0.0,0.0,0.0,0.0,0.0,0.0,0.0,0.0,0.0,0.0,0.0,0.0,0.0,0.0,0.0,0.0,0.0,0.0,0.0,0.0,0.0,0.0,0.0,0.0,0.0,0.0,0.0,0.0,0.0,0.0,0.0,0.0,0.0,0.0,0.0,0.0,0.0,0.0,0.0,0.0,0.0,0.0,-1.1158,0.0,0.0,0.0,0.0,0.0,0.0,0.0,0.0,0.0,0.0,0.0,0.0,0.0,0.0,0.0,0.0,-0.8441,-0.8297,-0.8442,-0.8843,-0.9637,-1.0231,-1.0649,0.0,-1.1129,-1.1288,-1.1272,-1.1555,-1.1823,-1.2012,-1.2325,-1.2526,-1.2558,-1.2738,-1.2835,-1.2835,-1.3075,-1.267,-1.1645,-1.0927,-0.9361,-0.702,-0.4856,-0.3152,-0.1842,-0.0584,0.0,0.0,0.0,0.0,0.0,0.0,0.0,0.0,0.0,0.0,0.0,0.0,0.0,0.0,0.0,0.0,0.0,0.0,0.0,0.0,0.0,0.0,0.0,0.0,0.0,0.0,0.0,0.0,0.0,0.0,0.0,0.0,0.0,0.0,0.0,0.0,0.0,0.0,0.0,0.0,0.0,0.0,0.0,0.0,0.0,0.0,0.0,0.0,0.0,0.0,0.0,0.0,0.0,0.0,0.0,0.0,0.0,0.0,0.0,0.0,0.0,0.0,0.0,0.0,0.0,0.0,0.0,0.0,-1.0365,0.0,0.0,0.0,0.0,-0.8321,0.0,0.0,0.0,0.0,0.0,0.0,0.0,0.0,0.0,0.0,-0.793,-0.8124,-0.8666,-0.922,-0.959,0.0,-1.0161,-1.0374,0.0,-1.0667,-1.0994,-1.1144,-1.1688,-1.2063,-1.223,-1.2526,-1.271,-1.271,-1.2955,-1.2762,-1.2094,-1.1701,-1.036,-0.8086,-0.5939,-0.4046,-0.2368,-0.0743,0.0,0.0,0.0,0.0,0.0,0.0,0.0,0.0,0.0,0.0,0.0,0.0,0.0,0.0,0.0,0.0,0.0,0.0,0.0,0.0,0.0,0.0,0.0,0.0,0.0,0.0,0.0,0.0,0.0,0.0,0.0,0.0,0.0,0.0,0.0,0.0,0.0,0.0,0.0,0.0,0.0,0.0,0.0,0.0,0.0,0.0,0.0,0.0,0.0,0.0,0.0,0.0,0.0,0.0,0.0,0.0,0.0,0.0,0.0,0.0,0.0,0.0,0.0,0.0,0.0,0.0,0.0,-1.1843,-1.1301,0.0,0.0,0.0,0.0,0.0,0.0,0.0,0.0,0.0,0.0,0.0,0.0,0.0,0.0,0.0,-0.747,-0.7408,-0.7566,-0.8244,-0.8836,-0.9217,0.0,-0.983,-0.9849,-1.0048,-1.0412,-1.1001,-1.1445,-1.181,-1.2042,-1.2477,-1.2705,-1.2705,-1.295,-1.2997,-1.2757,-1.2786,-1.1626,-0.9317,-0.7162,-0.5084,-0.297,-0.0904,0.0,0.0,0.0,0.0,0.0,0.0,0.0,0.0,0.0,0.0,0.0,0.0,0.0,0.0,0.0,0.0,0.0,0.0,0.0,0.0,0.0,0.0,0.0,0.0,0.0,0.0,0.0,0.0,0.0,0.0,0.0,0.0,0.0,0.0,0.0,0.0,0.0,0.0,0.0,0.0,0.0,0.0,0.0,0.0,0.0,0.0,0.0,0.0,0.0,0.0,0.0,0.0,0.0,0.0,0.0,0.0,0.0,0.0,0.0,0.0,0.0,0.0,0.0,0.0,0.0,-1.4,-1.3519,0.0,-1.2454,-1.1687,0.0,-1.0297,0.0,0.0,0.0,0.0,0.0,0.0,0.0,0.0,0.0,0.0,0.0,0.0,-0.6949,-0.6736,-0.6751,-0.7539,-0.8206,-0.8511,-0.8934,-0.9187,-0.9177,-0.9411,-0.9816,-1.0419,-1.0953,-1.1384,-1.1832,-1.2352,-1.2645,-1.2645,-1.2884,-1.3004,-1.3009,-1.3243,-1.2263,-1.0188,-0.8249,-0.6169,-0.3887,-0.1598,-0.048,-0.032,-0.0107,0.0,0.0,0.0,0.0,0.0,0.0,0.0,0.0,0.0,0.0,0.0,0.0,0.0,0.0,0.0,0.0,0.0,0.0,0.0,0.0,0.0,0.0,0.0,0.0,0.0,0.0,0.0,0.0,0.0,0.0,0.0,0.0,0.0,0.0,0.0,0.0,0.0,0.0,0.0,0.0,0.0,0.0,0.0,0.0,0.0,0.0,0.0,0.0,0.0,0.0,0.0,0.0,0.0,0.0,0.0,0.0,0.0,0.0,0.0,0.0,0.0,0.0]},{"header":{"parameterUnit":"m.s-1","parameterCategory":1,"la1":30.6,"la2":29.2853,"lo1":-89.7004,"lo2":-87.6739,"dy":0.0162,"dx":0.0183,"nx":112,"ny":82,"refTime":"2026-04-05T00:00:00:Z","depth":0,"parameterNumber":3,"parameterNumberName":"V-component_of_WINDS"},"data":[0.0,0.0,0.0,0.0,0.0,0.0,0.0,0.0,0.0,0.0,0.0,0.0,0.0,0.0,0.0,0.0,0.0,0.0,0.0,0.0,0.0,0.0,0.0,0.0,0.0,0.0,0.0,0.0,0.0,0.0,0.0,0.0,0.0,0.0,0.0,0.0,0.0,0.0,0.0,0.0,0.0,0.0,0.0,0.0,0.0,0.0,0.0,0.0,0.0,0.0,0.0,0.0,0.0,0.0,0.0,0.0,0.0,0.0,0.0,0.0,0.0,0.0,0.0,0.0,0.0,0.0,0.0,0.0,0.0,0.0,0.0,0.0,0.0,0.0,0.0,0.0,0.0,0.0,0.0,0.0,0.0,0.0,0.0,0.0,0.0,0.0,0.0,0.0,0.0,0.0,0.0,4.686,5.5862,6.0935,5.9819,5.8286,5.4554,4.7889,0.0,0.0,0.0,0.0,0.0,0.0,0.0,0.0,0.0,0.0,0.0,0.0,0.0,0.0,0.0,0.0,0.0,0.0,0.0,0.0,0.0,0.0,0.0,0.0,0.0,0.0,0.0,0.0,0.0,0.0,0.0,0.0,0.0,0.0,0.0,0.0,0.0,0.0,0.0,0.0,0.0,0.0,0.0,0.0,0.0,0.0,0.0,0.0,0.0,0.0,0.0,0.0,0.0,0.0,0.0,0.0,0.0,0.0,0.0,0.0,0.0,0.0,0.0,0.0,0.0,0.0,0.0,0.0,0.0,0.0,0.0,0.0,0.0,0.0,0.0,0.0,0.0,0.0,0.0,0.0,0.0,0.0,0.0,0.0,0.0,0.0,0.0,0.0,0.0,0.0,0.0,0.0,0.0,0.0,0.0,0.0,0.0,0.0,0.0,0.0,0.0,0.0,0.0,0.0,4.5778,5.5357,6.0973,6.3089,6.0781,5.9704,5.6549,5.0515,0.0,0.0,0.0,0.0,0.0,0.0,0.0,0.0,0.0,0.0,0.0,0.0,0.0,0.0,0.0,0.0,0.0,0.0,0.0,0.0,0.0,0.0,0.0,0.0,0.0,0.0,0.0,0.0,0.0,0.0,0.0,0.0,0.0,0.0,0.0,0.0,0.0,0.0,0.0,0.0,0.0,0.0,0.0,0.0,0.0,0.0,0.0,0.0,0.0,0.0,0.0,0.0,0.0,0.0,0.0,0.0,0.0,0.0,0.0,0.0,0.0,0.0,0.0,0.0,0.0,0.0,0.0,0.0,0.0,0.0,0.0,0.0,0.0,0.0,0.0,0.0,0.0,0.0,0.0,0.0,0.0,0.0,0.0,0.0,0.0,0.0,0.0,0.0,0.0,0.0,0.0,0.0,0.0,0.0,0.0,0.0,0.0,0.0,0.0,0.0,0.0,0.0,0.0,4.5475,5.2433,5.8973,6.2627,6.3743,6.1672,5.9858,5.6126,4.9702,4.22,0.0,0.0,0.0,0.0,0.0,0.0,0.0,0.0,0.0,0.0,0.0,0.0,0.0,0.0,0.0,0.0,0.0,0.0,0.0,0.0,0.0,0.0,0.0,0.0,0.0,0.0,0.0,0.0,0.0,0.0,0.0,0.0,0.0,0.0,0.0,0.0,0.0,0.0,0.0,0.0,0.0,0.0,0.0,0.0,0.0,0.0,0.0,0.0,0.0,0.0,0.0,0.0,0.0,0.0,0.0,0.0,0.0,0.0,0.0,0.0,0.0,0.0,0.0,0.0,0.0,0.0,0.0,0.0,0.0,0.0,0.0,0.0,0.0,0.0,0.0,0.0,0.0,0.0,0.0,0.0,0.0,0.0,0.0,0.0,0.0,0.0,0.0,0.0,0.0,0.0,0.0,0.0,0.0,0.0,0.0,0.0,0.0,0.0,0.0,0.0,0.0,0.0,5.2554,5.7824,6.105,6.3512,6.3974,6.1672,5.8973,5.4587,4.7932,4.0969,0.0,0.0,0.0,0.0,0.0,0.0,0.0,0.0,0.0,0.0,0.0,0.0,0.0,0.0,0.0,0.0,0.0,0.0,0.0,0.0,0.0,0.0,0.0,0.0,0.0,0.0,0.0,0.0,0.0,0.0,0.0,0.0,0.0,0.0,0.0,0.0,0.0,0.0,0.0,0.0,0.0,0.0,0.0,0.0,0.0,0.0,0.0,0.0,0.0,0.0,0.0,0.0,0.0,0.0,0.0,0.0,0.0,0.0,0.0,0.0,0.0,0.0,0.0,0.0,0.0,0.0,0.0,0.0,0.0,0.0,0.0,0.0,0.0,0.0,0.0,0.0,0.0,0.0,0.0,0.0,0.0,0.0,0.0,0.0,0.0,0.0,0.0,0.0,0.0,0.0,0.0,0.0,0.0,0.0,0.0,0.0,0.0,0.0,0.0,0.0,0.0,0.0,5.5549,6.0242,6.2852,6.4743,6.4166,6.0012,5.6665,5.2207,4.6167,3.8665,0.0,0.0,0.0,0.0,0.0,0.0,0.0,0.0,0.0,0.0,0.0,0.0,0.0,0.0,0.0,0.0,0.0,0.0,0.0,0.0,0.0,0.0,0.0,0.0,0.0,0.0,0.0,0.0,0.0,0.0,0.0,0.0,0.0,0.0,0.0,0.0,0.0,0.0,0.0,0.0,0.0,0.0,0.0,0.0,0.0,0.0,0.0,0.0,0.0,0.0,0.0,0.0,0.0,0.0,0.0,0.0,0.0,0.0,0.0,0.0,0.0,0.0,0.0,0.0,0.0,0.0,0.0,0.0,0.0,0.0,0.0,0.0,0.0,0.0,0.0,0.0,0.0,0.0,0.0,0.0,0.0,0.0,0.0,0.0,0.0,0.0,0.0,0.0,0.0,0.0,0.0,0.0,0.0,0.0,0.0,0.0,0.0,0.0,0.0,0.0,0.0,0.0,5.6324,6.1089,0.0,6.4859,6.4397,6.0627,5.7203,5.2477,4.6018,0.0,0.0,0.0,0.0,0.0,0.0,0.0,0.0,0.0,0.0,0.0,0.0,0.0,0.0,0.0,0.0,0.0,0.0,0.0,0.0,0.0,0.0,0.0,0.0,0.0,0.0,0.0,0.0,0.0,0.0,0.0,0.0,0.0,0.0,0.0,0.0,0.0,0.0,0.0,0.0,0.0,0.0,0.0,0.0,0.0,0.0,0.0,0.0,0.0,0.0,0.0,0.0,0.0,0.0,0.0,0.0,0.0,0.0,0.0,0.0,0.0,0.0,0.0,0.0,0.0,0.0,0.0,0.0,0.0,0.0,0.0,0.0,0.0,0.0,0.0,0.0,0.0,0.0,0.0,0.0,0.0,0.0,0.0,0.0,0.0,0.0,0.0,0.0,0.0,0.0,0.0,0.0,0.0,0.0,0.0,0.0,0.0,0.0,0.0,0.0,0.0,0.0,5.0202,5.7242,6.2127,0.0,6.5243,6.4673,6.0704,5.7286,5.2438,4.5629,0.0,0.0,0.0,0.0,0.0,0.0,0.0,0.0,0.0,0.0,0.0,0.0,0.0,0.0,0.0,0.0,0.0,0.0,0.0,0.0,0.0,0.0,0.0,0.0,0.0,0.0,0.0,0.0,0.0,0.0,0.0,0.0,0.0,0.0,0.0,0.0,0.0,0.0,0.0,0.0,0.0,0.0,0.0,0.0,0.0,0.0,0.0,0.0,0.0,0.0,0.0,0.0,0.0,0.0,0.0,0.0,0.0,0.0,0.0,0.0,0.0,0.0,0.0,0.0,0.0,0.0,0.0,0.0,0.0,0.0,0.0,0.0,0.0,0.0,0.0,0.0,0.0,0.0,0.0,0.0,0.0,0.0,0.0,0.0,0.0,0.0,0.0,0.0,0.0,0.0,0.0,0.0,0.0,0.0,0.0,0.0,0.0,0.0,0.0,0.0,0.0,0.0,5.1038,5.8583,6.3622,6.4512,6.609,6.5057,5.9973,5.6472,5.1625,0.0,0.0,0.0,0.0,0.0,0.0,0.0,0.0,0.0,0.0,0.0,0.0,0.0,0.0,0.0,0.0,0.0,0.0,0.0,0.0,0.0,0.0,0.0,0.0,0.0,0.0,0.0,0.0,0.0,0.0,0.0,0.0,0.0,0.0,0.0,0.0,0.0,0.0,0.0,0.0,0.0,0.0,0.0,0.0,0.0,0.0,0.0,0.0,0.0,0.0,0.0,0.0,0.0,0.0,0.0,0.0,0.0,0.0,0.0,0.0,0.0,0.0,0.0,0.0,0.0,0.0,0.0,0.0,0.0,0.0,0.0,0.0,0.0,0.0,0.0,0.0,0.0,0.0,0.0,0.0,0.0,0.0,0.0,0.0,0.0,0.0,0.0,0.0,0.0,0.0,0.0,0.0,0.0,0.0,0.0,0.0,0.0,0.0,0.0,0.0,0.0,0.0,0.0,5.1038,5.8583,6.3622,6.4512,6.609,6.5743,6.2468,5.9627,5.5395,4.9207,0.0,0.0,0.0,0.0,0.0,0.0,0.0,0.0,0.0,0.0,0.0,0.0,0.0,0.0,0.0,0.0,0.0,0.0,0.0,0.0,0.0,0.0,0.0,0.0,0.0,0.0,0.0,0.0,0.0,0.0,0.0,0.0,0.0,0.0,0.0,0.0,0.0,0.0,0.0,0.0,0.0,0.0,0.0,0.0,0.0,0.0,0.0,0.0,0.0,0.0,0.0,0.0,0.0,0.0,0.0,0.0,0.0,0.0,0.0,0.0,0.0,0.0,0.0,0.0,0.0,0.0,0.0,0.0,0.0,0.0,0.0,0.0,0.0,0.0,0.0,0.0,0.0,0.0,0.0,0.0,0.0,0.0,0.0,0.0,0.0,0.0,0.0,0.0,0.0,0.0,0.0,0.0,0.0,0.0,0.0,0.0,0.0,0.0,0.0,0.0,0.0,0.0,5.2043,5.989,6.5013,6.5551,6.7128,6.7128,6.4551,6.232,5.8357,5.2087,0.0,0.0,0.0,0.0,0.0,0.0,0.0,0.0,0.0,0.0,0.0,0.0,0.0,0.0,0.0,0.0,0.0,0.0,0.0,0.0,0.0,0.0,0.0,0.0,0.0,0.0,0.0,0.0,0.0,0.0,0.0,0.0,0.0,0.0,0.0,0.0,0.0,0.0,0.0,0.0,0.0,0.0,0.0,0.0,0.0,0.0,0.0,0.0,0.0,0.0,0.0,0.0,0.0,0.0,0.0,0.0,0.0,0.0,0.0,0.0,0.0,0.0,0.0,0.0,0.0,0.0,0.0,0.0,0.0,0.0,0.0,0.0,0.0,0.0,0.0,0.0,0.0,0.0,0.0,0.0,0.0,0.0,0.0,0.0,0.0,0.0,0.0,0.0,0.0,0.0,0.0,0.0,0.0,0.0,0.0,0.0,0.0,0.0,0.0,0.0,0.0,0.0,5.3723,6.1953,6.7148,6.7218,6.8712,6.8744,6.632,6.4551,6.0737,5.4198,0.0,0.0,0.0,0.0,0.0,0.0,0.0,0.0,0.0,0.0,0.0,0.0,0.0,0.0,0.0,0.0,0.0,0.0,0.0,0.0,0.0,0.0,0.0,0.0,0.0,0.0,0.0,0.0,0.0,0.0,0.0,0.0,0.0,0.0,0.0,0.0,0.0,0.0,0.0,0.0,0.0,0.0,0.0,0.0,0.0,0.0,0.0,0.0,0.0,0.0,0.0,0.0,0.0,0.0,0.0,0.0,0.0,0.0,0.0,0.0,3.8042,0.0,0.0,0.0,0.0,0.0,0.0,0.0,0.0,0.0,0.0,0.0,0.0,0.0,0.0,0.0,0.0,0.0,0.0,0.0,0.0,0.0,0.0,0.0,0.0,0.0,0.0,0.0,0.0,0.0,0.0,0.0,0.0,0.0,0.0,0.0,0.0,0.0,0.0,0.0,0.0,0.0,5.4646,6.2425,6.7497,6.8147,6.9091,6.9206,6.7968,6.632,6.3281,5.8473,5.0966,0.0,0.0,0.0,0.0,0.0,0.0,0.0,0.0,0.0,0.0,0.0,0.0,0.0,0.0,0.0,0.0,0.0,0.0,0.0,0.0,0.0,0.0,0.0,0.0,0.0,0.0,0.0,0.0,0.0,0.0,0.0,0.0,0.0,0.0,0.0,0.0,0.0,0.0,0.0,0.0,0.0,0.0,0.0,0.0,0.0,0.0,0.0,0.0,0.0,0.0,0.0,0.0,0.0,0.0,0.0,0.0,0.0,0.0,0.0,0.0,4.2585,0.0,0.0,0.0,0.0,0.0,0.0,0.0,0.0,0.0,0.0,0.0,0.0,0.0,0.0,0.0,0.0,0.0,0.0,0.0,0.0,0.0,0.0,0.0,0.0,0.0,0.0,0.0,0.0,0.0,0.0,0.0,0.0,0.0,0.0,0.0,0.0,0.0,0.0,0.0,0.0,5.5646,6.3199,6.8226,6.9031,6.981,6.9937,6.9084,6.7859,6.5282,6.1018,5.4318,0.0,0.0,0.0,0.0,0.0,0.0,0.0,0.0,0.0,0.0,0.0,0.0,0.0,0.0,0.0,0.0,0.0,0.0,0.0,0.0,0.0,0.0,0.0,0.0,0.0,0.0,0.0,0.0,0.0,0.0,0.0,0.0,0.0,0.0,0.0,0.0,0.0,0.0,0.0,0.0,0.0,0.0,0.0,0.0,0.0,0.0,0.0,0.0,0.0,0.0,0.0,0.0,0.0,5.9826,6.1059,6.2022,6.276,6.3569,6.4031,5.7878,5.3725,5.1318,5.0433,0.0,0.0,0.0,0.0,0.0,0.0,0.0,0.0,0.0,0.0,0.0,0.0,0.0,0.0,0.0,0.0,0.0,0.0,0.0,0.0,0.0,0.0,0.0,0.0,6.041,5.9235,0.0,0.0,0.0,0.0,0.0,0.0,0.0,0.0,0.0,0.0,0.0,0.0,5.6926,6.442,6.9373,6.9998,7.0747,7.0856,7.0048,6.9201,6.6999,6.3033,5.7593,5.2728,0.0,0.0,0.0,0.0,0.0,0.0,0.0,0.0,0.0,0.0,0.0,0.0,0.0,0.0,0.0,0.0,0.0,0.0,0.0,0.0,0.0,0.0,0.0,0.0,0.0,0.0,0.0,0.0,0.0,0.0,0.0,0.0,3.8661,3.9591,0.0,0.0,0.0,0.0,0.0,0.0,0.0,0.0,0.0,0.0,0.0,0.0,0.0,5.7082,6.0483,6.3927,6.6481,6.8228,6.9141,7.0418,7.201,7.212,7.2656,7.3463,7.3165,0.0,5.9242,5.8357,0.0,0.0,0.0,0.0,0.0,0.0,0.0,0.0,0.0,0.0,0.0,0.0,0.0,0.0,0.0,0.0,0.0,0.0,0.0,0.0,0.0,0.0,6.6475,6.667,6.8544,6.9558,0.0,6.1481,5.6174,5.298,4.9588,0.0,0.0,0.0,0.0,0.0,0.0,0.0,5.8838,6.64,7.1141,7.1189,7.1893,7.202,7.117,7.0281,6.8563,6.5738,6.2066,5.8348,5.4785,4.9461,0.0,0.0,0.0,0.0,0.0,0.0,0.0,0.0,0.0,0.0,0.0,0.0,0.0,0.0,0.0,0.0,0.0,0.0,0.0,0.0,0.0,0.0,0.0,0.0,0.0,0.0,0.0,0.0,0.0,4.05,4.4148,4.4497,4.5742,4.6054,0.0,0.0,0.0,0.0,0.0,0.0,0.0,0.0,0.0,5.9957,6.3495,6.6966,7.0409,7.3311,7.589,7.8069,7.8437,7.9495,8.116,8.1159,8.1634,8.248,8.283,8.0116,7.496,6.9213,6.4159,5.9601,0.0,0.0,0.0,0.0,5.6777,5.9376,6.2102,6.2153,0.0,5.8999,0.0,0.0,0.0,0.0,0.0,0.0,0.0,0.0,0.0,0.0,0.0,7.2182,7.3316,7.3941,7.316,7.0218,6.6143,0.0,5.6934,5.2948,4.774,0.0,0.0,0.0,0.0,5.4425,6.0806,6.7453,7.1977,7.2874,7.278,7.2487,7.2138,7.1324,7.0132,6.8467,6.5992,6.3243,6.0249,5.5607,5.1476,0.0,0.0,0.0,0.0,0.0,0.0,0.0,0.0,0.0,0.0,0.0,0.0,0.0,0.0,0.0,0.0,0.0,0.0,0.0,0.0,0.0,0.0,0.0,0.0,0.0,0.0,0.0,0.0,4.6184,4.9908,5.0339,5.1938,5.2406,0.0,0.0,0.0,0.0,0.0,0.0,5.9938,6.2229,6.5065,6.8446,7.2295,7.5732,7.8718,8.0991,8.322,8.5373,8.5595,8.6351,8.7561,8.7794,8.8116,8.8537,8.8771,8.8385,8.6937,7.8901,7.3083,6.8868,6.4811,6.2903,6.2606,6.3901,6.5826,6.8173,7.1234,7.1318,6.9798,6.824,0.0,6.0749,5.7513,0.0,0.0,0.0,0.0,6.441,6.8904,7.285,7.5858,7.6874,7.7301,7.7298,7.6595,7.5971,7.3588,0.0,6.3477,5.9763,5.4599,0.0,0.0,0.0,0.0,5.7567,6.3118,6.8841,7.2874,7.4107,7.377,7.3301,7.2831,7.2248,7.1397,7.0266,6.8897,6.7058,6.467,6.1003,5.7045,5.2801,0.0,0.0,0.0,0.0,0.0,0.0,0.0,0.0,0.0,0.0,0.0,0.0,0.0,0.0,0.0,0.0,0.0,0.0,0.0,0.0,0.0,0.0,0.0,0.0,0.0,0.0,0.0,0.0,0.0,5.8295,6.0053,0.0,0.0,0.0,0.0,6.2163,6.473,6.7221,6.9759,7.1504,7.4031,7.7537,8.02,8.2443,8.4273,8.5987,8.7348,8.8314,8.9136,8.9579,8.9679,9.0501,9.0462,8.9757,9.0576,9.0459,8.9323,8.5347,8.1176,7.6962,7.3589,7.2261,7.2307,7.2472,7.472,7.7935,7.9786,7.9792,7.8893,7.7996,7.3115,6.714,6.4563,6.3118,0.0,0.0,6.8156,7.2062,7.4794,7.8653,8.1652,8.091,8.1367,8.1278,7.882,7.8235,7.6634,0.0,6.8902,6.601,6.0847,0.0,5.4937,5.5908,5.8333,6.1651,6.6046,7.1152,7.4379,7.4392,7.5104,7.4892,7.3211,7.3055,7.2253,7.0512,7.0242,6.9308,6.7475,6.5519,6.2525,5.8299,5.3127,0.0,0.0,0.0,0.0,0.0,0.0,0.0,0.0,0.0,0.0,0.0,0.0,0.0,0.0,0.0,0.0,0.0,0.0,0.0,0.0,0.0,0.0,0.0,0.0,0.0,0.0,0.0,0.0,6.6364,6.8591,0.0,6.8786,6.7927,6.8708,7.1911,7.4488,7.7065,7.9644,8.1439,8.3156,8.4952,8.6426,8.7747,8.8956,8.898,8.9989,9.1987,9.1722,9.2197,9.3296,9.3616,9.3579,9.3306,9.3617,9.3578,9.3071,9.0637,8.7044,8.2833,7.9954,7.8501,7.8105,7.8118,7.9306,8.1233,8.3503,8.3387,8.1864,7.9872,7.6827,7.3625,7.2219,7.1165,7.0813,7.2531,7.4523,7.671,7.9326,8.1584,8.3057,8.2745,8.2461,8.1747,7.9678,7.835,7.6867,7.4447,7.3041,7.0932,6.6908,6.4212,6.2765,6.3076,6.4405,6.6512,6.9749,7.3182,7.5521,7.6099,7.5899,7.5505,7.488,7.3862,7.2947,7.2238,7.1557,7.0904,7.0207,6.8458,6.5734,6.2005,5.7437,5.2295,0.0,0.0,0.0,0.0,0.0,0.0,0.0,0.0,0.0,0.0,0.0,0.0,0.0,0.0,0.0,0.0,0.0,0.0,0.0,0.0,0.0,0.0,0.0,0.0,0.0,6.4921,7.0976,7.2695,7.543,7.6875,7.5976,7.5625,7.668,7.957,8.164,8.3633,8.5664,8.6875,8.8008,8.9101,8.9998,9.1012,9.2184,9.1866,9.2605,9.4326,9.4018,9.4333,9.5194,9.5507,9.5469,9.5195,9.5195,9.5195,9.5117,9.3945,9.1595,8.8395,8.578,8.4424,8.3968,8.3968,8.4364,8.5151,8.6831,8.6674,8.5424,8.3394,8.1949,8.0855,8.0075,7.941,7.9137,7.9957,8.0816,8.1793,8.3238,8.4248,8.4826,8.4553,8.4037,8.3012,8.1021,7.9225,7.7624,7.6452,7.5312,7.3705,7.1167,6.9528,6.8553,6.8553,6.9059,7.027,7.2534,7.4565,7.6127,7.7023,7.6594,7.6127,7.5814,7.4525,7.3576,7.3234,7.2025,7.1435,7.1692,7.0236,6.7832,6.4413,5.8683,5.3052,4.7553,0.0,0.0,0.0,0.0,0.0,0.0,0.0,0.0,0.0,0.0,0.0,0.0,0.0,0.0,0.0,0.0,0.0,0.0,0.0,0.0,0.0,0.0,0.0,6.1757,6.9414,7.5547,7.7265,8.0469,8.2226,8.1367,8.2031,8.3242,8.5,8.5937,8.6758,8.7617,8.7578,8.8281,8.9961,9.078,9.2067,9.3825,9.4678,9.5147,9.5231,9.6012,9.6014,9.5312,9.6133,9.6094,9.5273,9.5273,9.5273,9.5273,9.5234,9.4726,9.3711,9.1094,9.0078,9.0039,9.0,9.0039,9.0039,9.0,9.0039,8.9883,8.9023,8.875,8.8594,8.7773,8.75,8.7265,8.6406,8.6719,8.7148,8.6328,8.6718,8.7145,8.6325,8.6125,8.5416,8.284,8.0925,7.9207,7.7487,7.5754,7.4331,7.3549,7.2769,7.2224,7.2224,7.2224,0.0,7.4448,7.5386,7.6245,7.7103,7.7181,7.6829,7.5972,7.5073,7.4168,7.3252,7.1556,7.0988,7.1785,7.0936,6.8858,6.5436,5.6987,5.0561,4.6241,0.0,0.0,0.0,0.0,0.0,0.0,0.0,0.0,0.0,0.0,0.0,0.0,0.0,0.0,0.0,0.0,0.0,0.0,0.0,0.0,0.0,6.1289,6.6992,6.8086,7.5664,8.1758,8.3515,8.6172,8.7773,8.7539,8.7734,8.8594,9.0351,9.0703,9.0937,9.1172,8.9414,8.8867,8.9961,8.9609,9.0546,9.2929,9.4413,9.5507,9.6132,9.6367,9.664,9.7031,9.7265,9.7226,9.6992,9.6992,9.6992,9.6953,9.6367,9.6015,9.5547,9.289,9.1484,9.0859,9.0234,9.039,9.0859,9.0234,9.039,9.0781,8.9922,8.9648,8.9492,8.8633,8.7539,8.6367,8.5508,8.4531,8.3828,8.4219,8.496,8.5543,8.5309,8.5696,8.5416,8.284,8.0926,7.9363,7.827,7.7133,7.631,7.6075,7.6896,7.756,7.756,7.756,0.0,7.8224,7.8498,7.8732,7.8966,7.8997,7.864,7.7743,7.6329,7.4836,7.3346,7.1624,7.0489,7.0094,6.9855,6.8097,6.4665,5.9141,5.4826,0.0,0.0,0.0,0.0,0.0,0.0,0.0,0.0,0.0,0.0,0.0,0.0,0.0,0.0,0.0,0.0,0.0,0.0,0.0,0.0,0.0,0.0,6.8281,7.4101,7.6797,8.1836,8.5859,8.7578,8.9726,9.1211,9.1601,9.1953,9.2617,9.3594,9.3672,9.3359,9.2656,9.0469,8.9648,9.0508,9.0039,9.1054,9.3672,9.539,9.6484,9.6992,9.6992,9.7265,9.7695,9.7695,9.7695,0.0,9.7695,9.7695,9.7656,9.7187,9.6797,0.0,0.0,0.0,0.0,0.0,9.25,9.2851,9.2344,9.2265,9.2304,9.1797,9.1406,9.0859,8.9609,8.8086,8.6406,8.4804,8.3086,8.1875,8.2383,8.371,8.4881,8.4882,8.6052,8.648,8.3941,8.2027,8.0543,7.9645,7.8785,0.0,7.8668,7.9251,7.9716,7.9716,7.9716,7.9716,7.9716,7.9716,7.9716,7.9716,7.9706,7.9348,7.8451,7.715,0.0,0.0,0.0,7.1011,7.0504,6.9802,0.0,0.0,0.0,0.0,0.0,0.0,0.0,0.0,5.2233,5.3945,0.0,0.0,0.0,0.0,0.0,0.0,0.0,0.0,0.0,0.0,0.0,0.0,0.0,0.0,0.0,0.0,7.5039,8.0742,8.5781,8.7578,8.8867,9.0273,9.1875,9.3203,9.3984,9.4765,9.5234,9.5351,9.5351,9.4687,9.3125,0.0,0.0,0.0,0.0,9.2851,9.5469,9.7148,9.8008,9.8008,9.8008,9.8008,9.8008,9.8008,9.8008,9.8008,9.8008,9.8008,9.8008,9.8008,9.7578,9.6797,9.5664,9.5195,9.5195,9.5195,9.5195,9.5195,9.5195,0.0,0.0,9.3945,9.3398,9.2383,9.0547,8.875,8.6836,8.4297,8.2265,8.0898,8.1094,8.3008,8.4922,8.5039,8.6914,8.8047,8.5586,8.375,8.2344,8.1445,8.0664,8.039,8.1172,8.0583,7.9992,7.9992,7.9992,7.9992,7.9992,7.9992,7.9992,7.9992,0.0,0.0,7.8767,7.7896,7.6638,7.4882,7.3203,7.2305,7.2305,7.0823,7.0042,7.012,6.6986,6.5376,6.5366,6.4691,6.5611,6.7892,6.2561,6.2299,0.0,0.0,0.0,0.0,0.0,0.0,0.0,0.0,0.0,0.0,0.0,0.0,0.0,0.0,0.0,7.2812,7.8672,8.3906,8.7695,9.1406,9.3554,9.3203,9.4062,9.4765,9.4922,9.5117,9.5508,9.6211,9.625,9.6094,9.5742,9.3437,9.2812,9.4414,9.375,9.4648,9.7187,9.8945,9.9804,9.9804,0.0,0.0,9.9804,9.9804,9.9804,9.9804,9.9804,9.9804,9.9804,9.9804,9.9726,9.9258,9.6328,9.5195,9.5195,9.5195,9.5195,9.5195,9.5195,9.5078,9.4844,9.414,9.3789,9.3203,9.0742,8.8359,0.0,8.414,8.1836,8.0273,8.1679,8.3476,8.5078,8.5781,8.7344,8.8203,8.6367,8.5117,8.414,8.3281,8.2969,8.289,8.3086,8.2383,8.1796,8.1796,8.1796,8.1796,8.1796,8.1796,8.1796,8.1796,8.1794,8.1439,8.058,7.9715,7.846,7.6703,7.5024,7.4087,7.4087,7.3775,7.3931,7.4635,7.3305,7.2601,7.26,7.3146,7.4311,7.5976,7.0031,6.888,0.0,0.0,0.0,0.0,0.0,0.0,0.0,0.0,0.0,0.0,0.0,6.3789,6.6367,0.0,7.4609,7.8476,8.2734,8.6758,9.0156,9.3633,9.5703,9.5234,9.5586,9.6015,9.6406,9.6445,9.6797,9.7695,9.7734,9.7734,9.7734,9.6094,9.5547,9.6406,9.6015,9.6601,9.832,9.9648,10.0312,10.0312,10.0312,10.0312,10.0312,10.0312,10.0312,10.0312,10.0312,10.0312,10.0312,10.0312,10.0312,10.0117,9.7929,9.7109,9.7031,9.6601,9.6445,9.6445,9.6445,9.6172,9.5781,9.5351,9.4609,9.3476,9.1328,8.8867,8.6484,8.4726,8.2695,8.1289,8.2617,8.457,8.6328,8.6758,8.8476,8.9648,8.8398,8.7773,8.7187,8.6328,8.582,8.539,8.4961,8.4179,8.3437,8.3008,8.2969,8.2773,8.2344,8.2304,8.2304,8.2304,8.2304,8.195,8.1051,7.9797,7.8661,7.7801,7.6552,7.6044,7.6474,7.6083,7.6279,7.7138,7.6318,7.6083,7.6513,7.7372,7.8696,8.0285,7.7685,7.7124,0.0,0.0,0.0,0.0,0.0,0.0,0.0,5.7849,5.9802,6.2342,6.7421,7.2031,7.4179,7.7109,8.0312,8.3554,8.6133,8.8945,9.2383,9.5078,9.6679,9.6523,9.664,9.6992,9.7656,9.7695,9.8047,9.8945,9.8984,9.914,9.9492,9.8828,9.8554,9.8711,9.8711,9.9062,9.9765,10.0508,10.0781,10.0781,10.0781,10.0781,10.0781,10.0781,10.0781,10.0781,10.0781,10.0781,10.0781,10.0781,10.0781,10.0703,9.9648,9.9258,9.914,9.8086,9.7695,9.7695,9.7695,9.7265,9.6719,9.6562,9.5429,9.3828,9.207,8.9883,8.7656,8.6094,8.4492,8.3515,8.4375,8.6289,8.8008,8.8008,8.9687,9.1054,9.0195,9.0,8.9726,8.8867,8.8164,8.7461,8.6601,8.5859,8.5039,8.4023,8.3867,8.3594,8.289,8.2812,8.2812,8.2812,8.2812,8.2537,8.1834,8.0464,7.9602,7.9407,7.8899,7.886,7.9407,7.8899,7.8938,7.9641,7.8977,7.8977,7.9641,8.0384,8.159,8.3298,8.4001,8.4148,4.3594,4.7809,5.4556,5.74,6.1099,6.429,0.0,6.667,6.8627,7.1221,7.5373,7.8623,7.8941,8.0585,8.2773,8.5469,8.7383,8.9765,9.3281,9.5937,9.7304,9.6562,9.7148,9.7617,9.7695,9.7695,9.8047,9.8945,9.8984,9.9687,10.1211,10.1211,10.1484,10.2304,10.2304,10.2383,10.25,10.2617,10.2617,10.2617,10.2617,10.2617,10.2617,10.2617,10.2617,10.2617,10.2617,10.2617,10.2617,10.2617,10.2617,10.2383,10.0781,10.0195,9.9961,9.832,9.7695,9.7695,9.7695,9.7656,9.7461,9.6719,9.5859,9.4726,9.2969,9.1172,8.9531,8.8554,8.7617,8.7109,8.7929,8.8906,8.9726,8.9726,9.0547,9.1054,9.0195,9.0,8.9726,8.8867,8.8633,8.832,8.75,8.7265,8.664,8.5,8.4765,8.4726,8.4609,8.4609,8.4609,8.4609,8.4609,8.457,8.4453,8.4297,8.3828,8.3086,8.3633,8.3711,8.3047,8.3672,8.4062,8.4179,8.4062,8.4062,8.4179,8.4258,8.5194,8.6831,8.6948,8.6155,4.9841,5.4317,6.0656,6.4733,6.9268,7.2981,7.3875,7.5006,7.6505,7.8657,8.1742,8.4074,8.4167,8.4373,8.5234,8.7304,8.8672,9.0508,9.3476,9.5703,9.6484,9.5156,9.3945,9.4023,9.6054,9.625,9.6992,9.8867,9.9453,10.0508,10.2304,10.2383,10.25,10.289,10.289,10.289,10.289,10.289,10.289,10.289,10.289,10.289,10.289,10.289,10.289,10.289,10.289,10.2617,10.2109,10.2109,10.1797,10.1289,10.0,9.9531,9.9375,9.8164,9.7695,9.7695,9.7695,9.7695,9.7656,9.7304,9.664,9.582,9.5078,9.4023,9.2969,9.2578,9.2226,9.1953,9.1758,9.1992,9.2148,9.164,9.1797,9.1953,9.1601,9.1523,9.125,9.039,9.0195,8.9961,8.9101,8.8945,8.8711,8.7969,8.6601,8.5469,8.4961,8.4883,8.4883,8.4883,8.4883,8.4883,8.4883,8.4883,8.4726,8.4375,8.4687,8.4726,8.4375,8.4726,8.4883,8.4883,8.4883,8.4883,8.4883,8.539,8.6249,8.7418,8.7926,8.8037,5.494,5.9706,6.5396,7.0315,7.5518,7.9633,8.0489,8.154,8.2698,8.4062,8.5851,8.7192,8.7343,8.6705,8.6871,8.9058,9.0113,9.1597,9.4214,9.5855,9.6089,9.4097,9.1793,9.1129,9.3201,9.3828,9.5273,9.8086,9.9531,10.1015,10.25,10.2812,10.289,10.289,10.289,10.289,10.289,10.289,10.289,10.289,10.289,10.289,10.289,10.289,10.289,10.289,10.2617,10.2187,10.1601,10.1289,10.0898,10.0195,9.9336,9.8984,9.8906,9.8008,9.7695,9.7695,9.7695,9.7695,9.7695,9.7695,9.7148,9.6484,9.6484,9.5898,9.5195,9.5195,9.5195,9.5039,9.4414,9.4062,9.375,9.3125,9.2773,9.2617,9.2617,9.2617,9.2344,9.1484,9.1289,9.1015,9.0156,9.0,9.0,9.0,8.8437,8.7031,8.6406,8.6094,8.5937,8.5937,8.5742,8.5703,8.5937,8.5937,8.6054,8.6289,8.6328,8.6328,8.6328,8.6328,8.6328,8.6328,8.6328,8.6328,8.6328,8.6953,8.7656,8.8474,8.9139,8.9879,5.7262,6.321,6.8753,7.3031,7.8556,8.3155,8.3942,8.5496,8.6734,8.6873,8.7004,8.7157,8.7294,8.6642,8.7216,9.0573,9.186,9.3304,9.5881,9.7015,9.6624,9.4088,9.2253,9.0583,8.9035,9.0426,9.2851,9.6328,9.8906,10.0703,10.1601,10.2383,10.289,10.289,10.289,10.289,10.289,10.289,10.289,10.289,10.289,10.289,10.289,10.289,10.289,10.289,10.1992,10.1601,10.1484,10.0703,10.0312,10.0195,9.9336,9.8984,9.8906,9.8008,9.7695,9.7695,9.7695,9.7695,9.7695,9.7695,9.7148,9.6484,9.6484,9.5898,9.5195,9.5195,9.5195,9.5195,9.5156,9.4531,9.3906,9.3867,9.3203,9.2617,9.2617,9.2617,9.2344,9.1484,9.1289,9.1015,9.0156,9.0,9.0,9.0,8.9922,8.9883,8.9844,8.9101,8.8594,8.8594,8.789,8.7734,8.8515,8.8594,8.8945,8.9804,8.9844,8.9844,8.9844,8.9844,8.9844,8.9844,8.9844,8.9844,8.9844,8.9883,9.0312,9.1172,9.1211,9.1679,6.0657,6.6885,7.3034,7.7835,8.2278,8.5801,8.7241,8.8016,8.8136,8.7098,8.5548,8.4603,8.5308,8.476,8.5464,8.9473,9.1805,9.3791,9.5819,9.6362,9.5771,9.3779,9.1008,8.8841,8.7798,8.8843,9.0778,9.367,9.6797,9.9219,10.0703,10.2109,10.289,10.289,10.289,10.289,10.289,10.289,10.289,10.289,10.289,10.289,10.289,10.289,10.289,10.289,10.2617,10.1797,10.0703,10.039,9.9609,9.8554,9.8242,9.8125,9.8086,9.7812,9.7695,9.7695,9.7695,9.7695,9.7695,9.7695,9.7539,9.7304,9.7304,9.7109,9.6875,9.6875,9.6875,9.6758,9.6211,9.5429,9.4609,9.4023,9.3242,9.2617,9.2617,9.2617,9.25,9.2226,9.2148,9.207,9.1797,9.1719,9.1719,9.1719,9.0742,9.0,9.0,8.9258,8.8711,8.8711,8.7969,8.7812,8.8633,8.8711,8.9062,8.9922,9.0,9.0,9.0,9.0,9.0,9.0,9.0,9.0,9.0,9.0,9.0469,9.1289,9.1289,9.1758,6.5049,7.1401,7.7561,8.1424,8.5191,8.8196,8.9015,8.944,8.8926,8.6368,8.334,8.1422,8.2444,8.1901,8.2957,8.7853,9.1307,9.3985,9.5737,9.6196,9.5759,9.4038,9.1616,8.9551,8.8206,8.8433,8.9349,9.1088,9.4413,9.7226,9.9258,10.1601,10.289,10.289,10.289,10.289,10.289,10.289,10.289,10.289,10.289,10.289,10.289,10.289,10.289,10.289,10.2617,10.1797,10.0703,10.039,9.9648,9.8633,9.8633,9.8437,9.8164,9.8164,9.7969,9.7695,9.7695,9.7695,9.7695,9.7695,9.7695,9.7695,9.7695,9.7695,9.7695,9.7695,9.7695,9.7578,9.707,9.6289,9.5508,9.4961,9.414,9.3515,9.3515,9.3281,9.3047,9.3047,9.2812,9.2617,9.2617,9.2617,9.2617,9.2617,9.164,9.0937,9.0937,9.0156,8.9648,8.9648,8.8906,8.8711,8.957,8.9648,9.0117,9.1328,9.1094,9.1054,9.1367,9.1094,9.0937,9.0937,9.0937,9.0937,9.0937,9.0937,9.1367,9.2226,9.2226,9.2695,7.034,7.6647,8.2141,8.3882,8.7363,9.02,8.9433,8.982,8.9106,8.4758,8.0395,7.7669,7.8554,7.8063,7.9527,8.5622,9.0312,9.3764,9.5556,9.656,9.6477,9.4885,9.3947,9.2496,9.0111,8.9063,8.8622,8.8813,9.2029,9.5078,9.7578,10.1015,10.289,10.289,10.289,10.289,10.289,10.289,10.289,10.289,10.289,10.289,10.289,10.289,10.289,10.289,10.1992,10.1601,10.1484,10.0703,10.0312,10.0312,10.0312,9.9804,9.9062,9.9062,9.8554,9.7812,9.7812,9.7773,9.7695,9.7695,9.7695,9.7695,9.7695,9.7695,9.7695,9.7695,9.7695,9.7695,9.7695,9.7109,9.6484,9.6484,9.582,9.5195,9.5195,9.4531,9.3906,9.3906,9.3203,9.2617,9.2617,9.2617,9.2617,9.2617,9.2617,9.2617,9.2617,9.1836,9.1289,9.1289,9.0508,9.0351,9.1211,9.1289,9.2031,9.3711,9.3047,9.2969,9.3789,9.3047,9.2617,9.2656,9.2656,9.2695,9.2734,9.2734,9.3164,9.3984,9.3984,9.4414,7.6052,8.1227,8.5551,8.7966,8.9454,9.0277,9.0083,8.974,8.7738,8.1567,7.5896,7.2125,7.23,7.1691,7.371,8.1606,8.7532,9.1947,9.431,9.5937,9.6704,9.6278,9.5465,9.4285,9.2563,9.052,8.9654,9.0501,9.3236,9.5703,9.7617,10.1015,10.289,10.289,10.289,10.289,10.289,10.289,10.289,10.289,10.289,10.289,10.289,10.289,10.289,10.289,10.2695,10.2187,10.1601,10.1406,10.0898,10.0312,10.0312,10.0195,9.9961,9.9961,9.9844,9.9648,9.9648,9.8789,9.7695,9.7695,9.7695,9.7695,9.7695,9.7695,9.7695,9.7695,9.7695,9.7695,9.7695,9.7109,9.6484,9.6484,9.582,9.5195,9.5195,9.4531,9.3906,9.3906,9.3203,9.2617,9.2617,9.2617,9.2617,9.2617,9.2617,9.2617,9.2617,9.1836,9.1289,9.1289,9.0508,9.0351,9.1211,9.1289,9.1758,9.2851,9.2734,9.2695,9.2929,9.2734,9.289,9.3554,9.3554,9.3906,9.4531,9.4531,9.4648,9.4883,9.4883,9.5,8.0246,8.4619,8.8265,8.9729,9.0204,8.99,8.8386,8.6904,8.3786,7.6552,7.0595,6.6848,6.7158,6.7462,7.0324,7.8525,8.5488,9.0633,9.2799,9.4578,9.5661,9.5661,9.5236,9.4645,9.3908,9.2574,9.2225,9.3327,9.4165,9.5547,9.7578,10.1015,10.289,10.289,10.289,10.289,10.289,10.289,10.289,10.289,10.289,10.289,10.289,10.289,10.289,10.289,0.0,10.2617,10.2187,10.2187,10.1914,10.1406,10.1406,10.1211,10.0898,10.0898,10.0586,10.0312,10.0312,9.9648,9.8828,9.8828,9.8594,9.8281,9.8281,9.8008,9.7695,9.7695,9.7695,9.7695,9.7695,9.7383,9.7031,9.7031,9.664,9.6289,9.6289,9.5625,9.4922,9.4531,9.4062,9.375,9.375,9.375,9.375,9.375,9.375,9.3594,9.3203,9.2422,9.1875,9.1875,9.1445,9.1328,9.1836,9.1875,9.2226,9.3125,9.2812,9.2773,9.3164,9.3554,9.3984,9.4453,9.4844,9.5273,9.5781,9.539,9.539,9.5781,9.5781,9.6172,8.3563,8.719,9.0205,9.0089,9.018,8.9284,8.5538,8.2586,7.8468,7.0744,6.502,6.1698,6.267,6.4334,6.8081,7.5933,8.3676,8.9317,9.1097,9.2721,9.3734,9.385,9.3889,9.405,9.4437,9.4866,9.5478,9.6423,9.546,9.5777,9.7928,10.1092,10.2889,10.2889,10.289,10.289,10.289,10.289,10.289,10.289,10.289,10.289,10.289,10.289,10.289,10.289,10.289,0.0,10.289,10.289,10.289,10.289,10.289,10.2383,10.1797,10.1797,10.1289,10.0586,10.0586,10.0586,10.0586,10.039,9.9726,9.8984,9.8984,9.8398,9.7695,9.7695,9.7695,9.7695,9.7695,9.7695,9.7695,9.7695,9.7695,9.7695,9.7695,9.707,9.625,9.5351,9.5195,9.5195,9.5195,9.5195,9.5195,9.5195,9.5195,9.4883,9.4023,9.3242,9.2734,9.2617,9.2695,9.2773,9.2773,9.289,9.3281,9.4023,9.3359,9.3281,9.4023,9.4804,9.5234,9.5351,9.6094,9.6562,9.664,9.6015,9.6094,9.6836,9.6953,9.7773,8.6948,8.9381,9.0843,9.0112,9.0042,8.869,8.3155,7.8888,7.395,6.6272,6.0123,5.6592,5.8135,6.0378,6.4754,7.3187,8.0962,8.6842,8.9285,9.0439,9.1329,9.2064,9.2141,9.2752,9.4265,9.6371,9.7774,9.8086,9.9179,9.9832,9.9756,10.1713,10.2808,10.2808,10.2783,10.2792,10.2801,10.2885,10.2889,10.289,10.289,10.289,10.289,10.289,10.289,10.289,10.289,0.0,10.289,10.289,10.289,10.289,10.289,10.2812,10.2695,10.2695,10.2617,10.2383,10.2383,10.2383,10.2187,10.0781,9.9726,9.8984,9.8984,9.8398,9.7695,9.7695,9.7695,9.7695,9.7695,9.7695,9.7695,9.7695,9.7695,9.7695,9.7695,9.707,9.625,9.5351,9.5195,9.5195,9.5195,9.5195,9.5195,9.5195,9.5195,9.4883,9.4023,9.3789,9.3398,9.2695,9.3242,9.3672,9.3672,9.4336,9.4804,9.4961,9.4844,9.4804,9.4961,9.5117,9.5547,9.625,9.6406,9.6836,9.75,9.8047,9.8437,9.8594,9.9297,9.9804,8.8141,9.0248,9.1479,8.971,8.8353,8.576,7.9326,7.3298,6.7139,6.0345,5.4624,5.1447,5.3571,5.6085,6.0615,6.9164,7.7016,8.2935,8.5494,8.7345,8.8737,8.9627,9.0091,9.1222,9.3504,9.6081,9.8035,9.9014,9.9876,10.0509,10.0703,10.1885,10.2587,10.2587,10.2709,10.2709,10.2697,10.2796,10.2886,10.289,10.289,10.289,10.289,10.289,10.289,10.289,10.289,0.0,10.289,10.289,10.289,10.289,10.289,10.289,10.289,10.289,10.289,10.289,10.289,10.289,10.2812,10.1914,10.1094,10.039,10.039,9.9726,9.9062,9.9062,9.9062,9.9062,9.9062,9.9062,9.9062,9.9062,9.8711,9.8398,9.8398,9.7734,9.6992,9.6562,9.6484,9.6484,9.6484,9.6484,9.6484,9.6484,9.6484,9.6211,9.5351,9.5234,9.457,9.2773,9.3398,9.3906,9.3906,9.4687,9.5195,9.5195,9.5195,9.5195,9.5195,9.6054,9.6719,9.7109,9.7578,9.8008,9.8398,9.9258,9.9453,9.9023,10.039,10.1015,8.8709,9.0825,9.2018,8.891,8.6266,8.2424,7.4868,6.7334,6.0282,5.4532,4.9552,4.6999,4.9355,5.2101,5.6592,6.4561,7.2336,7.8293,8.1046,8.3631,8.5675,8.6951,8.7963,8.9693,9.254,9.5499,9.7878,9.941,9.992,10.0485,10.1279,10.1993,10.2387,10.2387,10.251,10.2581,10.2602,10.2684,10.2794,10.2887,10.2887,10.2887,10.2887,10.2889,10.2889,10.289,10.289,0.0,0.0,10.289,10.289,10.289,10.289,10.289,10.289,10.289,10.289,10.289,10.289,10.289,10.289,10.289,10.2304,10.1601,10.1601,10.1015,10.0312,10.0312,10.0312,10.0312,10.0312,10.0312,10.0312,10.0312,9.9765,9.9219,9.9023,9.8476,9.7929,9.7734,9.7695,9.7695,9.7695,9.7695,9.7695,9.7695,9.7695,9.7422,9.6601,9.6484,9.5625,9.3398,9.3945,9.4453,9.4453,9.5234,9.5742,9.5742,9.5898,9.6015,9.6015,9.7461,9.8242,9.8242,9.8945,9.9297,9.9297,10.0195,10.0195,9.9609,10.1289,10.2187,8.9547,9.1633,9.2402,8.7555,8.4447,7.9954,7.0065,6.194,5.507,4.9959,4.609,4.4175,4.5958,4.901,5.33,5.9571,6.7036,7.3154,7.6519,7.9183,8.1697,8.4173,8.5875,8.8157,9.1491,9.556,9.8353,9.925,10.0806,10.1804,10.2195,10.2289,10.2289,10.2289,10.2396,10.2413,10.2503,10.2617,10.2714,10.28,10.28,10.28,10.28,10.2816,10.279,10.2799,10.2885,0.0,0.0,10.289,10.289,10.289,10.289,10.289,10.289,10.289,10.289,10.289,10.289,10.289,10.289,10.289,10.2304,10.1601,10.1601,10.1015,10.0312,10.0312,10.0312,10.0312,10.0312,10.0312,10.0312,10.0312,10.0195,9.9961,9.9179,9.8945,9.8633,9.7851,9.7695,9.7695,9.7695,9.7695,9.7695,9.7695,9.7695,9.7422,9.6601,9.6484,9.6094,9.5078,9.5742,9.625,9.625,9.6992,9.7461,9.7461,9.8203,9.8633,9.8633,9.957,10.0117,10.0117,10.0117,10.0195,10.0195,10.1094,10.1406,10.1406,10.3086,10.3984,8.7132,8.9863,9.0979,8.5863,8.1516,7.6092,6.6898,5.8149,5.1017,4.7443,4.4116,4.2322,4.3982,4.6264,4.9861,5.5857,6.2399,6.8086,7.1993,7.5624,7.868,8.0769,8.2973,8.5643,8.9078,9.2837,9.6234,9.9096,10.0883,10.1912,10.2114,10.2082,10.2082,10.2082,10.2184,10.2195,10.2308,10.2409,10.2499,10.2611,10.2611,10.2611,10.2614,10.2585,10.2703,10.2694,10.2796,0.0,0.0,10.289,10.289,10.289,10.289,10.289,10.289,10.289,10.289,10.289,10.289,10.289,10.289,10.289,10.2695,10.2383,10.2383,10.2109,10.1914,10.1914,10.1914,10.1914,10.1914,10.1914,10.1914,10.1914,10.1484,10.1015,10.0586,10.0195,9.9687,9.9336,9.9258,9.9258,9.9258,9.9258,9.9258,9.9258,9.9258,9.914,9.8828,9.8789,9.8633,9.832,9.7226,9.6484,9.6484,9.7226,9.7695,9.7695,9.8515,9.8984,9.8984,9.9844,10.0312,10.0312,10.0312,10.0312,10.0312,10.1719,10.2109,10.1719,10.3906,10.4687,8.4209,8.8017,8.9863,8.4247,7.9015,7.2976,6.416,5.5217,4.7996,4.546,4.2904,4.1532,4.2689,4.4323,4.7157,5.2105,5.7486,6.2631,6.7119,7.1645,7.5359,7.7597,8.0111,8.3012,8.6455,9.1019,9.5274,9.9019,10.0883,10.1889,10.1889,10.1889,10.1889,10.1889,10.1986,10.2118,10.2117,10.2184,10.2318,10.2404,10.2404,10.2404,10.2409,10.2507,10.259,10.2616,10.2699,0.0,0.0,10.289,10.289,10.289,10.289,10.289,10.289,10.289,10.289,10.289,10.289,10.289,10.289,10.289,10.289,10.289,10.289,10.289,10.289,10.289,10.289,10.289,10.289,10.289,10.289,10.289,10.2383,10.1914,10.1719,10.1094,10.0586,10.039,10.0312,10.0312,10.0312,10.0312,10.0312,10.0312,10.0312,10.0312,10.0312,10.0312,10.0312,10.0312,9.8672,9.7617,9.7617,9.8125,9.8476,9.8476,9.9297,9.9765,9.9765,10.0586,10.1094,10.1094,10.1289,10.1484,10.1484,10.289,10.3398,10.2812,10.4883,10.5703,8.1439,8.6671,8.9594,8.2824,7.7284,7.1084,6.1666,5.3002,4.6189,4.3651,4.252,4.1991,4.1991,4.3452,4.5448,4.8043,5.2066,5.667,6.1771,6.6843,7.133,7.4728,7.7442,8.0382,8.3824,9.1019,9.6551,9.9096,10.0883,0.0,10.1889,10.1889,10.1889,10.1889,10.2012,10.2015,10.2092,10.2203,10.2195,10.23,10.23,10.23,10.2305,10.2392,10.2488,0.0,0.0,0.0,0.0,10.289,10.289,10.289,10.289,10.289,10.289,10.289,10.289,10.289,10.289,10.289,10.289,10.289,10.289,10.289,10.289,10.289,10.289,10.289,10.289,10.289,10.289,10.289,10.289,10.289,10.289,10.2695,10.1797,10.1601,10.1289,10.0508,10.0312,10.0312,10.0312,10.0312,10.0312,10.0312,10.0312,10.0312,10.0312,10.0312,10.0312,10.0312,10.0312,10.0312,10.0312,10.0312,10.0312,10.0312,10.1094,10.1601,10.1601,10.2383,10.289,10.289,10.3711,10.4219,10.4219,10.5,10.5508,10.5508,10.6289,10.7109,7.4329,7.8861,8.117,7.5515,7.0744,6.5436,5.7819,5.0423,4.4807,4.3451,4.2535,4.1998,4.1986,4.343,4.5255,4.7192,5.06,5.4817,5.9957,6.6074,7.1065,7.396,7.9608,8.4637,8.8079,9.3263,9.7441,9.9994,10.1309,10.1889,10.1889,10.1889,10.158,10.0999,10.0991,10.0782,10.0185,10.0207,10.0197,10.018,10.018,10.018,10.031,10.0483,10.0611,0.0,0.0,0.0,0.0,10.2695,10.289,10.289,10.289,10.289,10.289,10.289,10.289,10.289,10.289,10.289,10.289,10.289,10.289,10.289,10.289,10.289,10.289,10.289,10.289,10.289,10.289,10.289,10.289,10.289,10.289,10.2812,10.25,10.25,10.2383,10.2109,10.2109,10.2109,10.2109,10.2109,10.2109,10.2109,10.2109,10.2109,10.2109,10.2109,10.2109,10.2109,10.2109,10.1601,10.039,10.0312,10.0312,10.0312,10.1094,10.1601,10.1601,10.2383,10.289,10.289,10.3789,10.4219,10.4219,10.5117,10.5781,10.6289,10.6601,10.7187,6.6404,7.0982,7.3137,6.8674,6.4897,6.0627,5.4477,4.858,4.4071,4.2946,4.2574,4.2465,4.2453,4.3898,4.5374,4.6422,4.8937,5.2689,5.8139,6.5064,7.1717,7.7519,8.2973,8.7499,9.0594,9.4462,9.7866,10.0388,10.1394,10.1812,10.1386,10.1394,10.0891,9.9684,10.0311,10.0187,9.929,9.929,9.929,9.929,9.929,9.929,9.9305,9.9565,9.9731,0.0,0.0,0.0,0.0,10.25,10.289,10.289,10.289,10.289,10.289,10.289,10.289,10.289,10.289,10.289,10.289,10.289,10.289,10.289,10.289,10.289,10.289,10.289,10.289,10.289,10.289,10.289,10.289,10.289,10.289,10.289,10.289,10.289,10.289,10.289,10.289,10.289,10.289,10.289,10.289,10.289,10.289,10.289,10.289,10.289,10.289,10.289,10.289,10.25,10.1406,10.1289,10.1406,10.1797,10.2304,10.2695,10.3086,10.3594,10.3906,10.3906,10.4687,10.5117,10.5117,10.6015,10.6719,10.7187,10.7187,10.75,0.0,6.298,6.5673,6.2326,5.9704,5.6626,5.1597,4.7237,0.0,4.2233,4.2609,4.3203,4.3203,4.4622,4.5842,4.5958,4.7428,5.0712,5.682,6.4594,7.3684,8.4482,8.7222,8.9272,9.1832,9.5042,9.8021,10.0504,10.1386,10.1502,10.062,10.062,9.9839,9.8137,9.9607,9.9994,9.9135,9.9135,9.9135,9.9135,9.9135,9.9135,9.915,9.941,9.9536,0.0,0.0,0.0,0.0,10.2383,10.2812,10.2812,10.289,10.289,10.289,10.289,10.289,10.289,10.289,10.289,10.289,10.289,10.289,10.289,10.289,10.289,10.289,10.289,10.289,10.289,10.289,10.289,10.289,10.289,10.289,10.289,10.289,10.289,10.289,10.289,10.3008,10.3008,10.3008,10.3008,10.3086,10.3086,10.3086,10.3086,10.3086,10.3086,10.3086,10.3086,10.3086,10.3086,10.3086,10.3008,10.3281,10.4101,10.4297,10.4687,10.5508,10.5508,10.5508,10.5508,10.6289,10.6719,10.6797,10.7617,10.8008,10.8008,10.8008,10.8008,4.7355,0.0,5.955,5.6126,5.4857,5.3246,0.0,4.5526,4.3127,4.2184,4.2644,4.3206,4.3269,4.4675,4.6229,4.7579,4.92,5.2875,6.0185,7.1209,8.142,8.9279,9.1135,9.2792,9.5352,9.7479,9.9529,10.1386,10.1812,10.1502,10.062,10.062,9.9839,9.8137,9.8485,9.8253,9.7402,9.7402,9.7402,9.7402,9.7402,9.7402,9.7371,9.7625,9.7786,0.0,0.0,0.0,9.9726,10.1289,10.1914,10.1992,10.2617,10.289,10.289,10.289,10.289,10.289,10.289,10.289,10.289,10.289,10.289,10.289,10.289,10.289,10.289,10.289,10.289,10.289,10.289,10.289,10.289,10.289,10.289,10.289,10.289,10.289,10.289,10.289,10.3398,10.3906,10.3906,10.4414,10.4883,10.4883,10.4883,10.4883,10.4883,10.4883,10.4883,10.4883,10.4883,10.4883,10.4883,10.4297,10.3984,10.4219,10.4804,10.5312,10.5508,10.5508,10.5508,10.5508,10.6289,10.6992,10.7695,10.789,10.8008,10.8008,10.8008,10.8008,4.3393,4.8009,5.201,5.0164,5.0024,4.9389,4.5954,4.4102,4.2791,4.1637,4.2394,4.3265,4.3282,4.4987,4.6964,4.8701,5.1366,5.7284,6.8926,7.8558,8.7106,9.4339,9.5615,9.659,9.8369,9.9375,10.011,10.069,10.069,10.0303,9.9491,9.9452,9.8833,9.7557,9.7518,9.7286,9.6783,9.6783,9.6783,9.6783,9.6783,9.6783,9.6798,9.701,9.7164,0.0,0.0,0.0,9.914,10.0898,10.1601,10.1719,10.2617,10.289,10.289,10.289,10.289,10.289,10.289,10.289,10.289,10.289,10.289,10.289,10.289,10.289,10.289,10.289,10.289,10.289,10.289,10.289,10.289,10.289,10.289,10.289,10.289,10.289,10.289,10.289,10.3594,10.4219,10.4219,10.4883,10.5508,10.5508,10.5508,10.5508,10.5508,10.5508,10.5508,10.5508,10.5508,10.5508,10.5508,10.539,10.5312,10.5312,10.5781,10.6211,10.6601,10.6601,10.6601,10.6601,10.7109,10.75,10.8008,10.8008,10.8008,10.8008,10.8008,10.8203,4.2816,4.4436,4.5821,4.5936,4.6737,4.6883,4.4583,4.4025,4.3536,4.2001,4.2763,4.375,4.402,4.6032,4.843,5.0674,5.5466,6.4053,7.8712,8.5133,9.1012,9.84,9.929,9.9645,10.0504,10.062,10.0187,9.9367,9.929,9.8942,9.8137,9.8098,9.7711,9.6822,9.6783,9.6783,9.6783,9.6783,9.6783,9.6783,9.6783,9.6783,9.6798,9.701,9.7164,9.7351,0.0,0.0,9.8945,10.0508,10.1211,10.1289,10.2304,10.2695,10.2695,10.289,10.289,10.289,10.289,10.289,10.289,10.289,10.289,10.289,10.289,10.289,10.289,10.289,10.289,10.289,10.289,10.289,10.289,10.289,10.3008,10.3086,10.3086,10.3203,10.3281,10.3281,10.3984,10.4609,10.4609,10.5312,10.5898,10.5898,10.5898,10.5898,10.5898,10.5898,10.5898,10.5898,10.5898,10.5898,10.5898,10.6484,10.6914,10.6914,10.6914,10.7187,10.8008,10.8008,10.8008,10.8008,10.8008,10.8008,10.8008,10.8008,10.8008,10.8008,10.8008,10.8515,4.2662,4.4855,4.6851,4.7548,4.8936,4.9833,4.8741,4.7981,4.726,4.6327,4.5722,4.5881,4.7347,4.9084,5.183,5.648,6.5644,7.4806,8.2432,8.7267,9.2335,9.8555,9.929,9.9645,10.0504,10.062,10.0187,9.9367,9.929,9.8942,9.8137,9.8098,9.7711,9.6822,9.6783,9.6783,9.6783,9.6783,9.6783,9.6783,9.6783,9.6783,9.6798,9.701,9.7164,9.7309,0.0,9.7829,9.7969,9.8984,9.9414,9.957,10.1211,10.1797,10.1914,10.2617,10.289,10.289,10.289,10.289,10.289,10.289,10.289,10.289,10.289,10.289,10.289,10.289,10.289,10.289,10.289,10.289,10.289,10.289,10.3515,10.3984,10.3984,10.4609,10.5117,10.5117,10.5781,10.6289,10.6289,10.6992,10.7617,10.7617,10.7617,10.7617,10.7617,10.7617,10.7617,10.7617,10.7617,10.7617,10.7617,10.7695,10.7812,10.7812,10.7812,10.789,10.8008,10.8008,10.8008,10.8008,10.8008,10.8008,10.8008,10.8008,10.8008,10.8008,10.8008,10.8515,4.2739,4.4624,4.674,4.8933,5.1126,5.2555,5.1722,5.167,5.1378,5.0085,4.9146,4.9088,5.0828,5.3304,5.7946,6.6771,7.4038,8.0646,8.6648,8.9975,9.3688,9.871,9.929,9.9444,9.9878,9.9916,9.9375,9.806,9.7943,9.7789,9.7402,9.7402,9.7209,9.6822,9.6783,9.6783,9.6783,9.6783,9.6783,9.6783,9.6783,9.6783,9.6798,9.701,9.7164,9.7309,0.0,9.7633,9.7773,9.8633,9.8984,9.9179,10.0898,10.1601,10.1719,10.2617,10.289,10.289,10.289,10.289,10.289,10.289,10.289,10.289,10.289,10.289,10.289,10.289,10.289,10.289,10.289,10.289,10.289,10.289,10.3594,10.4219,10.4219,10.4883,10.5508,10.5508,10.6093,10.6719,10.6719,10.7383,10.8008,10.8008,10.8008,10.8008,10.8008,10.8008,10.8008,10.8008,10.8008,10.8008,10.8008,10.8008,10.8008,10.8008,10.8008,10.8008,10.8008,10.8008,10.8008,10.8008,10.8008,10.8203,10.8711,10.8711,10.8906,10.9414,10.9414,10.9883,4.2854,4.4329,4.6339,4.9379,5.2329,5.451,5.4487,5.5364,5.5816,5.4477,5.358,5.3532,5.5277,5.8879,6.4952,7.532,7.9879,8.4127,8.9898,9.2025,9.4493,9.8555,9.9019,9.9019,9.9019,9.9019,9.8408,9.6899,9.6783,9.6783,9.6783,9.6783,9.6783,9.6783,9.6783,9.6783,9.6783,9.6783,9.6783,9.6783,9.6783,9.6783,9.6798,9.701,9.7164,9.7309,9.7519,9.7633,9.7734,9.8437,9.8711,9.8867,10.0586,10.1484,10.1992,10.2695,10.289,10.289,10.289,10.289,10.289,10.289,10.289,10.289,10.289,10.289,10.289,10.289,10.3008,10.3203,10.3203,10.3203,10.3281,10.3515,10.4219,10.4804,10.4804,10.5508,10.6093,10.6093,10.6601,10.6992,10.6992,10.7617,10.8008,10.8008,10.8008,10.8008,10.8008,10.8008,10.8008,10.8008,10.8008,10.8008,10.8008,10.8008,10.8008,10.8008,10.8008,10.8008,10.8008,10.8008,10.8008,10.8008,10.8008,10.8398,10.9297,10.9297,10.9687,11.0586,11.0586,11.1093,4.2854,4.435,4.6116,4.7918,5.1467,5.5108,5.7476,5.9345,6.0515,6.048,5.9798,5.9764,6.1461,6.6495,7.2225,7.7906,8.1697,8.572,9.0865,9.2412,9.43,9.7789,9.8176,9.8176,9.8176,9.8176,9.7789,9.686,9.6783,9.6783,9.6783,9.6783,9.6783,9.6783,9.6783,9.6783,9.6783,9.6783,9.6783,9.6783,9.6783,9.6783,9.6798,9.701,9.7164,9.7309,9.7519,9.7633,9.7695,9.7773,9.7773,9.7969,9.9726,10.1406,10.2812,10.289,10.289,10.289,10.289,10.289,10.289,10.289,10.289,10.289,10.289,10.289,10.289,10.289,10.3515,10.4101,10.4101,10.4101,10.4297,10.5117,10.5898,10.6484,10.6484,10.7187,10.7812,10.7812,10.789,10.789,10.789,10.8008,10.8008,10.8008,10.8008,10.8008,10.8008,10.8008,10.8008,10.8008,10.8008,10.8008,10.8008,10.8008,10.8008,10.8008,10.8008,10.8008,10.8008,10.8008,10.8008,10.8008,10.8008,10.8398,10.9297,10.9297,10.9687,11.0586,11.0586,11.1093,4.3778,4.4739,4.6356,4.9087,5.2579,5.6189,5.9295,6.2583,6.545,6.7056,6.759,6.7993,6.8574,7.1815,7.6106,8.1259,8.4082,8.7381,9.2528,9.3534,9.481,9.775,9.8098,9.8098,9.8098,9.8098,9.775,9.686,9.6783,9.6783,9.6783,9.6783,9.6783,9.6783,9.6783,9.6783,9.6783,9.6783,9.6783,9.6783,9.6783,9.6783,9.6798,9.701,9.7164,9.7309,9.7519,9.7633,9.7695,9.7695,9.7695,9.7851,9.9609,10.1406,10.289,10.289,10.289,10.289,10.289,10.289,10.289,10.289,10.289,10.289,10.289,10.289,10.289,10.289,10.3515,10.4219,10.4219,10.4609,10.5117,10.539,10.6093,10.6719,10.6719,10.7383,10.8008,10.8008,10.8008,10.8008,10.8008,10.8008,10.8008,10.8008,10.8008,10.8008,10.8008,10.8008,10.8008,10.8008,10.8008,10.8008,10.8008,10.8008,10.8008,10.8008,10.8008,10.8008,10.8008,10.8008,10.8008,10.8008,10.8008,10.8711,11.0117,11.0117,11.0781,11.2187,11.2187,11.2383,4.4316,4.4778,4.6048,4.913,5.2704,5.6744,6.1488,6.5903,6.9667,7.1964,7.3391,7.4098,7.3769,7.5817,7.896,8.3314,8.5646,8.865,9.3534,9.4199,9.5088,9.7402,9.7673,9.7673,9.7673,9.7673,9.7441,9.6822,9.6783,9.6783,9.6783,9.6783,9.6783,9.6783,9.6783,9.6783,9.6783,9.6783,9.6783,9.6783,9.6783,9.6783,9.6798,9.701,9.7164,9.7309,9.7519,9.7633,9.7695,9.7695,9.8008,9.8633,9.9844,10.1406,10.289,10.289,10.289,10.289,10.289,10.289,10.289,10.289,10.289,10.289,10.289,10.289,10.289,10.289,10.3711,10.4609,10.4609,10.5195,10.5898,10.6211,10.6719,10.7109,10.7109,10.7617,10.8008,10.8008,10.8008,10.8008,10.8008,10.8008,10.8008,10.8008,10.8008,10.8008,10.8008,10.8008,10.8008,10.8008,10.8008,10.8008,10.8008,10.8008,10.8008,10.8008,10.8008,10.8008,10.8008,10.8008,10.8008,10.8008,10.8008,10.8906,11.0586,11.0586,11.1484,11.3203,11.3203,11.3203,4.4316,4.4393,4.5042,4.7615,5.1495,5.6652,6.4332,6.9423,7.3047,7.4872,7.6585,7.7501,7.6545,7.8476,8.1053,8.3623,8.6215,8.9388,9.3618,9.4199,9.4856,9.659,9.6783,9.6783,9.6783,9.6783,9.6783,9.6783,9.6783,9.6783,9.6783,9.6783,9.6783,9.6783,9.6783,9.6783,9.6783,9.6783,9.6783,9.6783,9.6783,9.6783,9.6798,9.701,9.7164,9.7309,9.7519,9.7633,9.7695,9.7695,9.8711,10.0312,10.0312,10.1406,10.289,10.289,10.289,10.289,10.289,10.289,10.289,10.289,10.289,10.289,10.289,10.289,10.289,10.289,10.4101,10.5508,10.5508,10.6093,10.6914,10.7812,10.8008,10.8008,10.8008,10.8008,10.8008,10.8008,10.8008,10.8008,10.8008,10.8008,10.8008,10.8008,10.8008,10.8008,10.8008,10.8008,10.8008,10.8008,10.8008,10.8008,10.8008,10.8008,10.8008,10.8008,10.8008,10.8008,10.8008,10.8008,10.8008,10.8008,10.8008,10.8906,11.0586,11.0586,11.1484,11.3203,11.3203,11.3203,4.5817,4.6578,4.812,5.2473,5.6781,6.1786,6.8883,7.288,7.6958,8.3463,8.4274,8.3347,8.1835,8.2228,8.3414,8.5432,8.7385,9.0197,9.4493,9.5127,9.5545,9.6667,9.6783,9.6783,9.6783,9.6783,9.6783,9.6783,9.6783,9.6783,9.6783,9.6783,9.6783,9.6783,9.6783,9.6783,9.6783,9.6783,9.6783,9.6783,9.6783,9.6783,9.6798,9.701,9.7164,9.7309,9.7519,9.7633,9.7695,9.7695,9.8711,10.0312,10.0312,10.1406,10.289,10.289,10.289,10.289,10.289,10.289,10.289,10.289,10.289,10.289,10.289,10.289,10.289,10.289,10.3711,10.4687,10.5312,10.6093,10.6914,10.7812,10.8008,10.8008,10.8008,10.8008,10.8008,10.8008,10.8008,10.8008,10.8008,10.8008,10.8008,10.8008,10.8008,10.8008,10.8008,10.8008,10.8008,10.8008,10.8008,10.8008,10.8008,10.8008,10.8008,10.8008,10.8008,10.8008,10.8008,10.8008,10.8008,10.8008,10.8593,10.9492,11.0586,11.1211,11.2109,11.3203,11.3203,11.3203,4.6735,4.8485,5.1049,5.6872,6.178,6.7383,7.5898,7.8837,8.147,8.7611,8.7873,8.6529,8.5087,8.5169,8.5791,8.683,8.8436,9.0822,9.4462,9.4972,9.5429,9.6667,9.6783,9.6783,9.6783,9.6783,9.6783,9.6783,9.6783,9.6783,9.6783,9.6783,9.6783,9.6783,9.6783,9.6783,9.6783,9.6783,9.6783,9.6783,9.6812,9.6841,9.6884,9.7028,9.7164,9.7312,9.7558,9.7648,9.7695,9.7695,9.8515,9.9765,9.9765,10.0781,10.2383,10.2383,10.2617,10.289,10.289,10.289,10.289,10.289,10.289,10.289,10.289,10.289,10.289,10.289,10.3515,10.4297,10.4804,10.5781,10.6914,10.7812,10.8008,10.8008,10.8008,10.8008,10.8008,10.8008,10.8008,10.8008,10.8008,10.8008,10.8008,10.8008,10.8008,10.8008,10.8008,10.8008,10.8008,10.8008,10.8008,10.8008,10.8008,10.8008,10.8008,10.8008,10.8008,10.8008,10.8008,10.8008,10.8008,10.8008,10.8906,10.9687,11.0586,11.1484,11.2304,11.3203,11.3203,11.3203,4.7274,5.0197,5.389,6.0748,6.6667,7.3553,8.3862,8.5868,8.6215,8.8645,8.859,8.7855,8.7031,8.7635,8.8239,8.8274,8.9592,9.1484,9.3966,9.4315,9.4934,9.659,9.6783,9.6783,9.6783,9.6783,9.6783,9.6783,9.6783,9.6783,9.6783,9.6783,9.6783,9.6783,9.6783,9.6783,9.6783,9.6783,9.6783,9.6783,9.6863,9.6946,9.6993,9.7081,9.7188,9.7344,9.7599,9.7695,9.7695,9.7695,9.8203,9.8984,9.8984,10.0117,10.1601,10.1601,10.2187,10.289,10.289,10.289,10.289,10.289,10.289,10.289,10.289,10.289,10.289,10.289,10.3515,10.4101,10.4219,10.539,10.6797,10.7695,10.789,10.8008,10.8008,10.8008,10.8008,10.8008,10.8008,10.8008,10.8008,10.8008,10.8008,10.8008,10.8008,10.8008,10.8008,10.8008,10.8008,10.8008,10.8008,10.8008,10.8008,10.8008,10.8008,10.8008,10.8086,10.8086,10.8086,10.8008,10.8008,10.8086,10.8984,10.9804,11.0703,11.1601,11.2383,11.3203,11.3203,11.3203,4.7855,5.1933,5.6511,6.3364,7.2399,8.09,8.5978,8.81,8.9368,9.0524,9.0656,9.0511,9.0473,9.0672,9.1057,9.1765,9.2204,9.3108,9.4965,9.5236,9.5623,9.6667,9.6783,9.6783,9.6783,9.6783,9.6783,9.6783,9.6783,9.6783,9.6783,9.6783,9.6783,9.6783,9.6783,9.6783,9.6783,9.6783,9.6783,0.0,9.6919,9.7005,9.7009,9.7162,9.7372,9.7637,9.7651,9.7695,9.7695,9.7695,9.8203,9.8984,9.8984,10.0117,10.1601,10.1601,10.2187,10.289,10.289,10.289,10.289,10.289,10.289,10.289,10.289,10.289,10.289,10.289,10.3008,10.3281,10.3984,10.5,10.6015,10.6797,10.75,10.8008,10.8008,10.8008,10.8008,10.8008,10.8008,10.8008,10.8008,10.8008,10.8008,10.8008,10.8008,10.8008,10.8008,10.8008,10.8008,10.8008,10.8008,10.8008,10.8008,10.8008,10.8008,10.8008,10.8593,10.8984,10.8984,10.8398,10.8281,10.8984,10.9883,11.0703,11.1601,11.25,11.3008,11.3203,11.3203,11.3203,4.8422,5.3987,6.0556,7.0667,7.9015,8.5341,8.7575,8.9426,9.0832,9.1337,9.143,9.15,9.1585,9.1629,9.182,9.2289,9.2373,9.2837,9.4114,9.4307,9.4617,9.5468,9.5545,9.57,9.6125,9.6164,9.6358,9.6783,9.6783,9.6783,9.6783,9.6783,9.6783,9.6783,9.6396,9.6164,9.6164,9.5814,9.5811,9.6278,9.6416,9.6763,9.7302,9.7365,9.7507,9.7712,9.7693,9.7695,9.7695,9.7695,9.7969,9.8398,9.8398,9.9453,10.1015,10.1015,10.1797,10.289,10.289,10.289,10.289,10.289,10.289,10.289,10.289,10.289,10.289,10.289,10.289,10.3008,10.3515,10.4492,10.5586,10.6015,10.7109,10.8008,10.8008,10.8008,10.8008,10.8008,10.8008,10.8008,10.8008,10.8008,10.8008,10.8008,10.8008,10.8008,10.8008,10.8008,10.8008,10.8008,10.8008,10.8008,10.8008,10.8008,10.8203,10.8593,10.8984,10.9492,10.9883,10.9492,10.9492,10.9883,11.0781,11.1406,11.1914,11.2812,11.3203,11.3203,11.3203,11.3203,4.8641,5.6505,6.575,7.8207,8.4286,8.7465,8.8565,9.0015,9.122,9.1531,9.16,9.16,9.1615,9.1673,9.1638,9.1484,9.16,9.1948,9.2676,9.2908,9.3302,9.4121,9.4199,9.4547,9.5429,9.5506,9.5855,9.6744,9.6783,9.6783,9.6783,9.6783,9.6783,9.6783,9.5932,9.5506,9.5506,9.4709,9.4796,9.5732,9.604,9.6685,9.762,9.7566,9.7589,9.7684,9.7694,9.7695,9.7695,9.7695,9.7695,9.7695,9.7695,9.8789,10.0312,10.0312,10.1406,10.289,10.289,10.289,10.289,10.289,10.289,10.289,10.289,10.289,10.289,10.289,10.289,10.289,10.289,10.4219,10.5508,10.5508,10.6797,10.8008,10.8008,10.8008,10.8008,10.8008,10.8008,10.8008,10.8008,10.8008,10.8008,10.8008,10.8008,10.8008,10.8008,10.8008,10.8008,10.8008,10.8008,10.8008,10.8008,10.8086,10.8515,10.9297,10.9609,11.0117,11.0781,11.1015,11.1015,11.1015,11.1601,11.1992,11.2109,11.2812,11.3203,11.3203,11.3203,11.3203,4.7717,5.9886,7.2521,8.0208,8.4209,8.6734,8.8403,8.9601,9.0597,9.1423,9.16,9.1622,9.1687,9.1709,9.1445,9.071,9.1213,9.1754,9.187,9.2521,9.3302,9.4121,9.4199,9.4547,9.5429,9.5506,9.5855,9.6744,9.6783,9.6783,9.6783,9.6783,9.6783,9.6783,9.5932,9.5506,9.5506,9.4756,9.4846,9.5789,9.6798,9.744,9.7674,9.769,9.7693,9.769,9.7695,9.7695,9.7695,9.7695,9.7695,9.7695,9.7695,9.8789,10.0312,10.0312,10.1406,10.289,10.289,10.289,10.289,10.289,10.289,10.289,10.289,10.289,10.289,10.289,10.289,10.289,10.289,10.4219,10.5508,10.5508,10.6797,10.8008,10.8008,10.8008,10.8008,10.8008,10.8008,10.8008,10.8008,10.8008,10.8008,10.8008,10.8008,10.8008,10.8008,10.8008,10.8008,10.8008,10.8008,10.8008,10.8008,10.8711,10.9218,10.9297,11.0703,11.1601,11.1718,11.25,11.289,11.289,11.2187,11.2304,11.3008,11.3086,11.3203,11.3203,11.3203,11.3203,5.2661,6.3447,7.3322,8.11,8.4593,8.6465,8.7786,8.9145,9.028,9.0759,9.1252,9.1622,9.1702,9.1716,9.1561,9.1174,9.1445,9.1716,9.1716,9.2025,9.2412,9.276,9.2799,9.3147,9.3998,9.4114,9.4462,9.5274,9.5352,9.5352,9.5352,9.5352,9.5352,9.5352,9.4539,9.4114,9.4114,9.3407,9.3563,9.4657,9.566,9.6228,9.6281,9.6288,9.6797,9.7694,9.7695,9.7695,9.7695,9.7695,9.7695,9.7695,9.7695,9.8789,10.0312,10.0312,10.1406,10.289,10.289,10.289,10.289,10.289,10.289,10.289,10.289,10.289,10.289,10.289,10.289,10.289,10.289,10.4219,10.5508,10.5508,10.6797,10.8008,10.8008,10.8008,10.8008,10.8008,10.8008,10.8008,10.8008,10.8008,10.8008,10.8008,10.8008,10.8008,10.8008,10.8008,10.8008,10.8008,10.8008,10.8008,10.8008,10.8789,10.9492,11.0,11.1211,11.2109,11.2617,11.3008,11.3203,11.3203,11.2812,11.2812,11.3203,11.3203,11.3203,11.3203,11.3203,11.3203,5.5378,6.382,7.086,7.8754,8.2285,8.4271,8.5868,8.7571,8.9045,8.9824,9.0464,9.0935,9.1016,9.1378,9.1603,9.1349,9.1504,9.155,9.1371,9.1533,9.1694,9.1709,9.1716,9.2025,9.2908,9.2985,9.334,9.416,9.4199,9.4199,9.4199,9.4199,9.4199,9.4199,9.3418,9.2985,9.2985,9.2586,9.284,9.3722,9.4699,9.515,9.5193,9.5195,9.6015,9.7383,9.7383,9.75,9.7695,9.7695,9.7695,9.7695,9.7695,9.8789,10.0312,10.0312,10.1406,10.289,10.289,10.289,10.289,10.289,10.289,10.289,10.289,10.289,10.289,10.289,10.289,10.3008,10.3203,10.4414,10.5586,10.5781,10.6914,10.8008,10.8008,10.8008,10.8008,10.8008,10.8008,10.8008,10.8008,10.8008,10.8008,10.8008,10.8008,10.8008,10.8008,10.8008,10.8008,10.8008,10.8008,10.8008,10.8008,10.8984,10.9883,11.0586,11.1601,11.25,11.3203,11.3203,11.3203,11.3203,11.3203,11.3203,11.3203,11.3203,11.3203,11.3203,11.3203,11.3203,5.1871,5.8544,6.516,7.1283,7.5291,7.8622,8.1985,8.4073,8.6007,8.8557,8.9037,8.9046,8.912,9.0487,9.1307,9.042,9.0906,9.1168,9.0472,9.1066,9.1629,9.1709,9.1716,9.2025,9.2908,9.2985,9.334,9.416,9.4199,9.4199,9.4199,9.4199,9.4199,9.4199,9.3418,9.2985,9.2985,9.3221,9.347,9.381,9.4759,9.5195,9.5195,9.5195,9.5703,9.6562,9.6562,9.6992,9.7695,9.7695,9.7695,9.7695,9.7695,9.8789,10.0312,10.0312,10.1406,10.289,10.289,10.289,10.289,10.289,10.289,10.289,10.289,10.289,10.289,10.289,10.289,10.3086,10.3906,10.4804,10.5703,10.6484,10.7304,10.8008,10.8008,10.8008,10.8008,10.8008,10.8008,10.8008,10.8008,10.8008,10.8008,10.8008,10.8008,10.8008,10.8008,10.8008,10.8008,10.8008,10.8008,10.8008,10.8008,10.9609,11.0586,11.0586,11.2187,11.3203,11.3203,11.3203,11.3203,11.3203,11.3203,11.3203,11.3203,11.3203,11.3203,11.3203,11.3203,11.3203,4.7835,5.2928,5.8236,6.4211,6.8667,7.2636,7.659,8.0485,8.4027,8.6717,8.8105,8.8829,8.8861,8.9864,9.0582,9.0242,9.0898,9.1346,9.116,9.1406,9.1629,9.1709,9.1716,9.1832,9.2141,9.218,9.2296,9.2567,9.2605,9.2605,9.2605,9.2605,9.2605,9.2605,9.2335,9.2242,9.2341,9.2511,9.2671,9.2912,9.3298,9.3472,9.3514,9.3515,9.4297,9.5664,9.5664,9.6445,9.7695,9.7695,9.7695,9.7695,9.7695,9.8437,9.9453,9.9453,10.0586,10.2109,10.2109,10.2383,10.289,10.289,10.289,10.289,10.289,10.289,10.289,10.289,10.3281,10.3789,10.4101,10.5195,10.6484,10.7304,10.7812,10.8008,10.8008,10.8008,10.8008,10.8008,10.8008,10.8008,10.8008,10.8008,10.8008,10.8008,10.8008,10.8008,10.8008,10.8008,10.8008,10.8008,10.8008,10.8203,10.8789,10.9883,11.0781,11.1406,11.25,11.3203,11.3203,11.3203,11.3203,11.3203,11.3203,11.3203,11.3203,11.3203,11.3203,11.3203,11.3203,11.3203,4.4175,4.7851,5.1933,5.7319,6.1858,6.6199,7.0706,7.5707,8.0346,8.3865,8.5899,8.7239,8.7802,8.8674,8.9422,9.0001,9.054,9.1035,9.1423,9.1516,9.1554,9.1666,9.1673,9.1687,9.1709,9.1716,9.1716,9.1716,9.1716,0.0,9.1716,9.1716,9.1716,9.1716,9.1716,9.1811,9.1948,9.2024,9.2151,9.2384,9.2445,9.2483,9.2572,9.2577,9.3554,9.5195,9.5195,9.6133,9.7695,9.7695,9.7695,9.7695,9.7695,9.8242,9.8984,9.8984,10.0117,10.1601,10.1601,10.2187,10.289,10.289,10.289,10.289,10.289,10.289,10.3008,10.3281,10.3789,10.4297,10.4883,10.6093,10.7304,10.789,10.8008,10.8008,10.8008,10.8008,10.8008,10.8008,10.8008,10.8008,10.8008,10.8008,10.8008,10.8008,10.8008,10.8008,10.8008,10.8281,10.8398,10.8398,10.8711,10.9101,10.9687,11.0508,11.1289,11.1914,11.2695,11.3203,11.3203,11.3203,11.3203,11.3203,11.3203,11.3203,11.3203,11.3203,11.3203,11.3203,11.3203,11.3203,0.0,0.0,0.0,5.0543,5.4813,5.9319,6.4359,6.9552,7.4728,7.9897,8.2309,8.4087,8.5822,8.6805,8.7902,8.9547,8.9855,9.0197,9.1099,9.1231,9.1297,9.15,9.1522,9.1552,9.167,9.1677,9.1677,9.1716,9.1716,9.1716,9.1716,9.1716,9.1716,9.1716,9.1716,9.1746,9.1882,9.1889,9.2015,9.231,9.2361,9.2422,9.2487,9.2577,9.3554,9.5195,9.5195,9.6133,9.7695,9.7695,9.7695,9.7695,9.7695,9.8203,9.8945,9.8945,10.0117,10.1601,10.1601,10.2109,10.289,10.289,10.289,10.289,10.289,10.289,10.3086,10.3984,10.4219,10.4687,10.6289,10.7383,10.8008,10.8008,10.8008,10.8008,10.8008,10.8008,10.8008,10.8008,10.8008,10.8008,10.8008,10.8008,10.8008,10.8008,10.8008,10.8008,10.8008,10.8789,10.9297,10.9297,11.0117,11.0586,11.0586,11.1406,11.1914,11.1914,11.2695,11.3203,11.3203,11.3203,11.3203,11.3203,11.3203,11.3203,11.3203,11.3203,11.3203,11.3203,11.3203,11.3203,3.7934,0.0,0.0,0.0,0.0,0.0,5.5818,6.2551,6.9443,7.4581,7.8915,8.2485,8.4818,8.5918,8.6824,8.7902,8.8632,8.9128,8.9451,8.9515,8.9586,8.9692,8.9796,9.0109,9.071,9.0749,9.1019,0.0,9.1716,9.1716,9.1716,9.1716,9.1716,9.1716,9.1716,9.1719,9.1812,9.19,9.2021,9.2225,9.2303,9.2391,9.2515,9.2576,9.3554,9.5195,9.5195,9.6133,9.7695,9.7695,9.7695,9.7695,9.7695,9.7851,9.8047,9.8047,9.914,10.0703,10.0703,10.1601,10.289,10.289,10.289,10.289,10.289,10.3281,10.3906,10.4101,10.5117,10.6289,10.7383,10.7812,10.8008,10.8008,10.8008,10.8008,10.8008,10.8008,10.8008,10.8008,10.8008,10.8008,10.8008,10.8008,10.8008,10.8008,10.8008,10.8203,10.8906,10.9218,10.9492,11.0195,11.0508,11.0898,11.1484,11.1797,11.2187,11.2812,11.3086,11.3203,11.3203,11.3203,11.3203,11.3203,11.3203,11.3203,11.3203,11.3203,11.3203,11.3203,11.3203,11.3203,3.8207,3.9277,4.0546,4.1397,0.0,0.0,5.0933,5.7093,6.3749,6.9206,7.3783,7.7746,8.0669,8.1554,8.2054,8.2554,8.367,8.548,8.8372,8.8844,8.8884,8.8997,8.9054,8.9437,9.0323,9.04,9.0749,9.1638,9.1716,9.1716,9.1716,9.1716,9.1716,9.1716,9.1716,9.1737,9.1778,9.2167,9.2279,9.2127,9.254,9.2661,9.25,9.2574,9.3359,9.4687,9.5039,9.5976,9.7226,9.7578,9.7695,9.7695,9.7695,9.7929,9.8242,9.8242,9.9336,10.0781,10.0781,10.1719,10.289,10.289,10.289,10.289,10.289,10.3515,10.4297,10.4609,10.5898,10.7383,10.789,10.8008,10.8008,10.8008,10.8008,10.8008,10.8008,10.8008,10.8008,10.8008,10.8008,10.8008,10.8008,10.8008,10.8008,10.8008,10.8281,10.8711,10.9218,10.9883,11.0586,11.1093,11.1484,11.1914,11.2383,11.2383,11.2695,11.3203,11.3203,11.3203,11.3203,11.3203,11.3203,11.3203,11.3203,11.3203,11.3203,11.3203,11.3203,11.3203,11.3203,11.3203,4.0589,4.1431,0.0,4.3047,4.4282,0.0,4.8163,5.2554,5.7747,6.3326,6.7321,7.0783,7.413,7.4822,7.4861,7.4861,7.6438,8.0054,8.6977,8.8111,8.8375,8.8688,8.8748,8.9093,9.0045,9.013,9.0478,9.1367,9.1522,9.1561,9.1561,9.1638,9.1716,9.1716,9.1716,9.1716,9.1716,9.2567,9.2671,9.1993,9.2934,9.3086,9.2486,9.2573,9.3125,9.4101,9.4844,9.5742,9.6679,9.7422,9.7695,9.7695,9.7695,9.8242,9.8984,9.8984,10.0117,10.1601,10.1601,10.2187,10.289,10.289,10.289,10.289,10.289,10.3594,10.4492,10.5508,10.6914,10.8008,10.8008,10.8008,10.8008,10.8008,10.8008,10.8008,10.8008,10.8008,10.8008,10.8008,10.8008,10.8008,10.8008,10.8008,10.8008,10.8008,10.8711,10.9297,10.9414,11.0898,11.1914,11.1992,11.2695,11.3203,11.3203,11.3203,11.3203,11.3203,11.3203,11.3203,11.3203,11.3203,11.3203,11.3203,11.3203,11.3203,11.3203,11.3203,11.3203,11.3203,11.3203,11.3281,4.2547,4.3201,4.3855,4.4008,0.0,0.0,4.4201,4.774,5.1779,5.5011,5.9473,6.3589,6.632,6.7398,6.7859,6.7859,7.0398,7.4781,8.1715,8.3902,8.5326,8.6802,8.7058,8.7402,8.8305,8.8382,8.8737,8.9634,9.0284,9.0633,9.0633,9.1329,9.1716,9.1716,9.1716,9.1716,9.1716,9.2567,9.2671,9.1993,9.2934,9.3086,9.2486,9.2573,9.3476,9.4961,9.5117,9.6054,9.7461,9.7656,9.7695,9.7695,9.7695,9.8242,9.8984,9.8984,10.0117,10.1601,10.1601,10.2187,10.289,10.289,10.289,10.289,10.289,10.3984,10.5586,10.7109,10.7695,10.8008,10.8008,10.8008,10.8008,10.8008,10.8008,10.8008,10.8008,10.8008,10.8008,10.8008,10.8008,10.8008,10.8008,10.8008,10.8008,10.8008,10.8711,10.9609,11.0312,11.1289,11.2187,11.289,11.3086,11.3203,11.3203,11.3203,11.3203,11.3203,11.3203,11.3203,11.3203,11.3203,11.3203,11.3203,11.3203,11.3203,11.3203,11.3203,11.3203,11.3203,11.3203,11.3593,4.5586,4.6201,4.6624,4.5817,0.0,0.0,0.0,4.5393,4.8245,5.0779,5.4357,5.7665,5.9781,6.0512,6.0825,6.0825,6.3666,6.7673,7.2945,7.8815,8.3386,8.5614,8.5932,8.63,8.7183,8.726,8.7809,8.9092,8.9936,9.04,9.04,9.1213,9.1716,9.1716,9.1716,9.1716,9.1716,9.2953,9.3058,9.2032,9.3397,9.3512,9.2525,9.3003,9.3711,9.4609,9.5469,9.6328,9.7148,9.7539,9.7695,9.7695,9.7695,9.8515,9.9648,9.9648,10.0781,10.2187,10.2187,10.25,10.289,10.289,10.289,10.289,10.289,10.4101,10.5781,10.75,10.8008,10.8008,10.8008,10.8008,10.8008,10.8008,10.8008,10.8008,10.8008,10.8008,10.8008,10.8008,10.8008,10.8008,10.8008,10.8008,10.8008,10.8008,10.9101,11.0117,11.0508,11.1718,11.2695,11.3203,11.3203,11.3203,11.3203,11.3203,11.3203,11.3203,11.3203,11.3203,11.3203,11.3203,11.3203,11.3203,11.3203,11.3203,11.3203,11.3203,11.3203,11.3203,11.3203,11.3711,0.0,0.0,0.0,0.0,0.0,4.4359,0.0,0.0,0.0,4.7971,5.0202,5.2164,5.3515,5.3746,5.3746,5.3746,5.6742,6.0332,6.3885,7.2154,7.9262,8.3109,8.3863,8.4405,8.5288,8.552,8.6261,8.7854,8.8698,8.9317,8.9665,9.0787,9.1445,9.1445,9.16,9.1716,9.1716,9.334,9.3446,9.2016,9.38,9.392,9.2514,9.3468,9.3984,9.4257,9.582,9.6601,9.6797,9.7422,9.7695,9.7695,9.7695,9.8789,10.0312,10.0312,10.1406,10.289,10.289,10.289,10.289,10.289,10.289,10.3008,10.3281,10.4414,10.5781,10.75,10.8008,10.8008,10.8008,10.8008,10.8008,10.8008,10.8008,10.8008,10.8008,10.8008,10.8008,10.8008,10.8008,10.8008,10.8008,10.8008,10.8086,10.8203,10.9609,11.0703,11.0781,11.2187,11.3203,11.3203,11.3203,11.3203,11.3203,11.3203,11.3203,11.3203,11.3203,11.3203,11.3203,11.3203,11.3203,11.3203,11.3203,11.3203,11.3203,11.3203,11.3203,11.3203,11.3203,11.3789,0.0,0.0,0.0,0.0,4.7822,0.0,0.0,0.0,4.4513,4.4816,0.0,4.6513,4.6706,0.0,0.0,4.6744,5.0202,5.4113,5.7634,6.2343,6.8423,7.6463,7.8757,8.0034,8.084,8.1613,8.2471,8.3444,8.4327,8.5449,8.6958,8.9279,9.0555,9.0555,9.129,9.1716,9.1716,9.334,9.3458,9.2033,9.3756,9.3843,9.2427,9.3368,9.425,9.5115,9.6093,9.6914,9.7578,9.7656,9.7695,9.7695,9.7695,9.8789,10.0312,10.0312,10.1406,10.289,10.289,10.289,10.289,10.289,10.289,10.3203,10.4687,10.5312,10.5781,10.75,10.8008,10.8008,10.8008,10.8008,10.8008,10.8008,10.8008,10.8008,10.8008,10.8008,10.8008,10.8008,10.8008,10.8008,10.8008,10.8008,10.8281,10.8984,11.0,11.0898,11.1718,11.2617,11.3203,11.3203,11.3203,11.3203,11.3203,11.3203,11.3203,11.3203,11.3203,11.3203,11.3203,11.3203,11.3203,11.3203,11.3203,11.3203,11.3203,11.3203,11.3203,11.3203,11.3203,11.4101,0.0,0.0,0.0,0.0,0.0,0.0,0.0,0.0,4.4436,0.0,0.0,0.0,0.0,0.0,0.0,0.0,4.8235,5.0568,5.3109,5.5812,6.0755,6.9397,7.2803,0.0,7.7703,7.9172,8.0145,8.0531,8.1768,8.3276,8.5016,8.8485,9.04,9.04,9.1251,9.1716,9.1716,9.334,9.3663,9.2661,9.4396,9.4725,9.3803,9.4774,9.5443,9.5929,9.6835,9.7383,9.7695,9.7695,9.7695,9.7695,9.7695,9.8789,10.0312,10.0312,10.1406,10.289,10.289,10.289,10.289,10.289,10.289,10.3203,10.5,10.5508,10.5781,10.75,10.8008,10.8008,10.8008,10.8008,10.8008,10.8008,10.8008,10.8008,10.8008,10.8008,10.8008,10.8008,10.8008,10.8008,10.8008,10.8398,10.8906,10.9218,11.0508,11.1484,11.1914,11.2695,11.3203,11.3203,11.3203,11.3203,11.3203,11.3203,11.3203,11.3203,11.3203,11.3203,11.3203,11.3203,11.3203,11.3203,11.3203,11.3203,11.3203,11.3203,11.3515,11.3906,11.3398,11.4101,6.3281,0.0,0.0,0.0,0.0,0.0,0.0,0.0,0.0,0.0,0.0,0.0,0.0,0.0,0.0,0.0,0.0,4.8489,4.9584,5.0787,5.4482,6.2385,6.6957,7.0726,0.0,7.5591,7.6673,7.7149,7.849,8.0306,8.2529,8.6667,8.9124,8.9356,9.0633,9.1329,9.1329,9.3031,9.3481,9.2748,9.4527,9.5048,9.4466,9.5658,9.6276,9.6467,9.7303,9.7695,9.7695,9.7695,9.7695,9.7695,9.7695,9.8789,10.0312,10.0312,10.1406,10.289,10.289,10.289,10.289,10.289,10.289,10.3203,10.5,10.5508,10.5781,10.75,10.8008,10.8008,10.8008,10.8008,10.8008,10.8008,10.8008,10.8008,10.8008,10.8008,10.8008,10.8008,10.8008,10.8008,10.8008,10.8711,10.9414,10.9609,11.0898,11.1992,11.2187,11.2812,11.3203,11.3203,11.3203,11.3203,11.3203,11.3203,11.3203,11.3203,11.3203,11.3203,11.3203,11.3203,11.3203,11.3203,11.3203,11.3203,11.3203,11.3203,11.3593,11.4492,11.3906,11.4492,0.0,0.0,0.0,5.8781,0.0,0.0,0.0,0.0,4.7043,0.0,0.0,0.0,0.0,0.0,0.0,0.0,0.0,0.0,0.0,4.7071,4.9375,5.5499,6.1461,6.6144,0.0,6.9811,7.1004,0.0,7.3566,7.5532,7.8983,8.3167,8.5836,8.668,8.9124,9.0439,9.0439,9.218,9.264,9.1863,9.3607,9.4119,9.3596,9.5401,9.6282,9.6455,9.7302,9.7695,9.7695,9.7695,9.7695,9.7695,9.7695,9.8789,10.0312,10.0312,10.1406,10.289,10.289,10.289,10.289,10.289,10.289,10.3203,10.5,10.5508,10.5781,10.75,10.8008,10.8008,10.8008,10.8008,10.8008,10.8008,10.8008,10.8008,10.8008,10.8008,10.8008,10.8008,10.8008,10.8008,10.8008,10.8711,10.9609,11.039,11.1289,11.2187,11.3008,11.3203,11.3203,11.3203,11.3203,11.3203,11.3203,11.3203,11.3203,11.3203,11.3203,11.3203,11.3203,11.3203,11.3203,11.3203,11.3203,11.3203,11.3203,11.3203,11.3593,11.4492,11.4492,11.539,0.0,0.0,6.7167,6.4089,0.0,0.0,0.0,0.0,0.0,0.0,0.0,0.0,0.0,0.0,0.0,0.0,0.0,0.0,0.0,4.5247,4.6444,4.9701,5.5366,6.0017,6.2606,0.0,6.6267,6.7409,6.8249,7.0722,7.5294,8.0164,8.3702,8.5681,8.8776,9.04,9.04,9.2141,9.2845,9.2602,9.4333,9.5112,9.5131,9.6375,9.7015,9.722,9.7535,9.7695,9.7695,9.7695,9.7695,9.7695,9.7695,9.8789,10.0312,10.0312,10.1406,10.289,10.289,10.289,10.289,10.289,10.289,10.3203,10.5,10.5508,10.5781,10.75,10.8008,10.8008,10.8008,10.8008,10.8008,10.8008,10.8008,10.8008,10.8008,10.8008,10.8008,10.8008,10.8008,10.8203,10.8789,10.9609,11.0312,11.0586,11.1797,11.289,11.3203,11.3203,11.3203,11.3203,11.3203,11.3203,11.3203,11.3203,11.3203,11.3203,11.3203,11.3203,11.3203,11.3203,11.3203,11.3203,11.3203,11.3515,11.4101,11.4101,11.4804,11.6211,11.6211,11.6484,7.94,7.6669,0.0,7.0629,6.6282,0.0,5.8396,0.0,0.0,0.0,0.0,0.0,0.0,0.0,0.0,0.0,0.0,0.0,0.0,4.4183,4.4572,4.6031,5.1206,5.553,5.7814,6.0002,6.1702,6.2573,6.3683,6.6427,7.1313,7.6722,8.1001,8.3857,8.7886,8.9975,8.9975,9.1677,9.2528,9.2567,9.423,9.515,9.5434,9.6719,9.7383,9.7579,9.7643,9.7694,9.7695,9.7695,9.789,9.8164,9.8164,9.9219,10.0703,10.039,10.1406,10.289,10.289,10.289,10.289,10.289,10.289,10.3203,10.5,10.5508,10.5781,10.75,10.8008,10.8008,10.8008,10.8008,10.8008,10.8008,10.8008,10.8008,10.8008,10.8008,10.8008,10.8008,10.8281,10.8593,10.9218,11.0312,11.1093,11.1093,11.2304,11.3203,11.3203,11.3203,11.3203,11.3203,11.3203,11.3203,11.3203,11.3203,11.3203,11.3203,11.3203,11.3203,11.3203,11.3203,11.3203,11.3203,11.3203,11.3593,11.4492,11.4492,11.539,11.6992,11.6992,11.7187]}]]